[[{"header":{"parameterUnit":"m.s-1","parameterCategory":1,"la1":31.0,"la2":29.5877,"lo1":-88.7671,"lo2":-86.6584,"dy":0.0162,"dx":0.0185,"nx":115,"ny":88,"refTime":"2024-03-01T18:00:00:Z","depth":0,"parameterNumber":2,"parameterNumberName":"U-component_of_WINDS"},"data":[0.0,0.0,0.0,0.0,0.0,0.0,0.0,0.0,0.0,0.0,0.0,0.0,0.0,0.0,0.0,0.0,0.0,0.0,0.0,0.0,0.0,0.0,0.0,0.0,0.0,0.0,0.0,0.0,0.0,0.0,0.0,0.0,0.0,0.0,0.0,0.0,0.0,0.0,0.0,0.0,0.0,0.0,0.0,0.0,0.0,0.0,0.0,0.0,0.0,0.0,0.0,0.0,0.0,0.0,0.0,0.0,0.0,0.0,0.0,0.0,0.0,0.0,0.0,0.0,0.0,0.0,0.0,0.0,0.0,0.0,0.0,0.0,0.0,0.0,0.0,0.0,0.0,0.0,0.0,0.0,0.0,0.0,0.0,0.0,0.0,0.0,0.0,0.0,0.0,0.0,0.0,0.0,0.0,0.0,0.0,0.0,0.0,0.0,0.0,0.0,0.0,0.0,0.0,0.0,0.0,0.0,0.0,0.0,0.0,0.0,0.0,0.0,0.0,0.0,0.0,0.0,0.0,0.0,0.0,0.0,0.0,0.0,0.0,0.0,0.0,0.0,0.0,0.0,0.0,0.0,0.0,0.0,0.0,0.0,0.0,0.0,0.0,0.0,0.0,0.0,0.0,0.0,0.0,0.0,0.0,0.0,0.0,0.0,0.0,0.0,0.0,0.0,0.0,0.0,0.0,0.0,0.0,0.0,0.0,0.0,0.0,0.0,0.0,0.0,0.0,0.0,0.0,0.0,0.0,0.0,0.0,0.0,0.0,0.0,0.0,0.0,0.0,0.0,0.0,0.0,0.0,0.0,0.0,0.0,0.0,0.0,0.0,0.0,0.0,0.0,0.0,0.0,0.0,0.0,0.0,0.0,0.0,0.0,0.0,0.0,0.0,0.0,0.0,0.0,0.0,0.0,0.0,0.0,0.0,0.0,0.0,0.0,0.0,0.0,0.0,0.0,0.0,0.0,0.0,0.0,0.0,0.0,0.0,0.0,0.0,0.0,0.0,0.0,0.0,0.0,0.0,0.0,0.0,0.0,0.0,0.0,0.0,0.0,0.0,0.0,0.0,0.0,0.0,0.0,0.0,0.0,0.0,0.0,0.0,0.0,0.0,0.0,0.0,0.0,0.0,0.0,0.0,0.0,0.0,0.0,0.0,0.0,0.0,0.0,0.0,0.0,0.0,0.0,0.0,0.0,0.0,0.0,0.0,0.0,0.0,0.0,0.0,0.0,0.0,0.0,0.0,0.0,0.0,0.0,0.0,0.0,0.0,0.0,0.0,0.0,0.0,0.0,0.0,0.0,0.0,0.0,0.0,0.0,0.0,0.0,0.0,0.0,0.0,0.0,0.0,0.0,0.0,0.0,0.0,0.0,0.0,0.0,0.0,0.0,0.0,0.0,0.0,0.0,0.0,0.0,0.0,0.0,0.0,0.0,0.0,0.0,0.0,0.0,0.0,0.0,0.0,0.0,0.0,0.0,0.0,0.0,0.0,0.0,0.0,0.0,0.0,0.0,0.0,0.0,0.0,0.0,0.0,0.0,0.0,0.0,0.0,0.0,0.0,0.0,0.0,0.0,0.0,0.0,0.0,0.0,0.0,0.0,0.0,0.0,0.0,0.0,0.0,0.0,0.0,0.0,0.0,0.0,0.0,0.0,0.0,0.0,0.0,0.0,0.0,0.0,0.0,0.0,0.0,0.0,0.0,0.0,0.0,0.0,0.0,0.0,0.0,0.0,0.0,0.0,0.0,0.0,0.0,0.0,0.0,0.0,0.0,0.0,0.0,0.0,0.0,0.0,0.0,0.0,0.0,0.0,0.0,0.0,0.0,0.0,0.0,0.0,0.0,0.0,0.0,0.0,0.0,0.0,0.0,0.0,0.0,0.0,0.0,0.0,0.0,0.0,0.0,0.0,0.0,0.0,0.0,0.0,0.0,0.0,0.0,0.0,0.0,0.0,0.0,0.0,0.0,0.0,0.0,0.0,0.0,0.0,0.0,0.0,0.0,0.0,0.0,0.0,0.0,0.0,0.0,0.0,0.0,0.0,0.0,0.0,0.0,0.0,0.0,0.0,0.0,0.0,0.0,0.0,0.0,0.0,0.0,0.0,0.0,0.0,0.0,0.0,0.0,0.0,0.0,0.0,0.0,0.0,0.0,0.0,0.0,0.0,0.0,0.0,0.0,0.0,0.0,0.0,0.0,0.0,0.0,0.0,0.0,0.0,0.0,0.0,0.0,0.0,0.0,0.0,0.0,0.0,0.0,0.0,0.0,0.0,0.0,0.0,0.0,0.0,0.0,0.0,0.0,0.0,0.0,0.0,0.0,0.0,0.0,0.0,0.0,0.0,0.0,0.0,0.0,0.0,0.0,0.0,0.0,0.0,0.0,0.0,0.0,0.0,0.0,0.0,0.0,0.0,0.0,0.0,0.0,0.0,0.0,0.0,0.0,0.0,0.0,0.0,0.0,0.0,0.0,0.0,0.0,0.0,0.0,0.0,0.0,0.0,0.0,0.0,0.0,0.0,0.0,0.0,0.0,0.0,0.0,0.0,0.0,0.0,0.0,0.0,0.0,0.0,0.0,0.0,0.0,0.0,0.0,0.0,0.0,0.0,0.0,0.0,0.0,0.0,0.0,0.0,0.0,0.0,0.0,0.0,0.0,0.0,0.0,0.0,0.0,0.0,0.0,0.0,0.0,0.0,0.0,0.0,0.0,0.0,0.0,0.0,0.0,0.0,0.0,0.0,0.0,0.0,0.0,0.0,0.0,0.0,0.0,0.0,0.0,0.0,0.0,0.0,0.0,0.0,0.0,0.0,0.0,0.0,0.0,0.0,0.0,0.0,0.0,0.0,0.0,0.0,0.0,0.0,0.0,0.0,0.0,0.0,0.0,0.0,0.0,0.0,0.0,0.0,0.0,0.0,0.0,0.0,0.0,0.0,0.0,0.0,0.0,0.0,0.0,0.0,0.0,0.0,0.0,0.0,0.0,0.0,0.0,0.0,0.0,0.0,0.0,0.0,0.0,0.0,0.0,0.0,0.0,0.0,0.0,0.0,0.0,0.0,0.0,0.0,0.0,0.0,0.0,0.0,0.0,0.0,0.0,0.0,0.0,0.0,0.0,0.0,0.0,0.0,0.0,0.0,0.0,0.0,0.0,0.0,0.0,0.0,0.0,0.0,0.0,0.0,0.0,0.0,0.0,0.0,0.0,0.0,0.0,0.0,0.0,0.0,0.0,0.0,0.0,0.0,0.0,0.0,0.0,0.0,0.0,0.0,0.0,0.0,0.0,0.0,0.0,0.0,0.0,0.0,0.0,0.0,0.0,0.0,0.0,0.0,0.0,0.0,0.0,0.0,0.0,0.0,0.0,0.0,0.0,0.0,0.0,0.0,0.0,0.0,0.0,0.0,0.0,0.0,0.0,0.0,0.0,0.0,0.0,0.0,0.0,0.0,0.0,0.0,0.0,0.0,0.0,0.0,0.0,0.0,0.0,0.0,0.0,0.0,0.0,0.0,0.0,0.0,0.0,0.0,0.0,0.0,0.0,0.0,0.0,0.0,0.0,0.0,0.0,0.0,0.0,0.0,0.0,0.0,0.0,0.0,0.0,0.0,0.0,0.0,0.0,0.0,0.0,0.0,0.0,0.0,0.0,0.0,0.0,0.0,0.0,0.0,0.0,0.0,0.0,0.0,0.0,0.0,0.0,0.0,0.0,0.0,0.0,0.0,0.0,0.0,0.0,0.0,0.0,0.0,0.0,0.0,0.0,0.0,0.0,0.0,0.0,0.0,0.0,0.0,0.0,0.0,0.0,0.0,0.0,0.0,0.0,0.0,0.0,0.0,0.0,0.0,0.0,0.0,0.0,0.0,0.0,0.0,0.0,0.0,0.0,0.0,0.0,0.0,0.0,0.0,0.0,0.0,0.0,0.0,0.0,0.0,0.0,0.0,0.0,0.0,0.0,0.0,0.0,0.0,0.0,0.0,0.0,0.0,0.0,0.0,0.0,0.0,0.0,0.0,0.0,0.0,0.0,0.0,0.0,0.0,0.0,0.0,0.0,0.0,0.0,0.0,0.0,0.0,0.0,0.0,0.0,0.0,0.0,0.0,0.0,0.0,0.0,0.0,0.0,0.0,0.0,0.0,0.0,0.0,0.0,0.0,0.0,0.0,0.0,0.0,0.0,0.0,0.0,0.0,0.0,0.0,0.0,0.0,0.0,0.0,0.0,0.0,0.0,0.0,0.0,0.0,0.0,0.0,0.0,0.0,0.0,0.0,1.3922,0.0,0.0,0.0,0.0,0.0,0.0,0.0,0.0,0.0,0.0,0.0,0.0,0.0,0.0,0.0,0.0,0.0,0.0,0.0,0.0,0.0,0.0,0.0,0.0,0.0,0.0,0.0,0.0,0.0,0.0,0.0,0.0,0.0,0.0,0.0,0.0,0.0,0.0,0.0,0.0,0.0,0.0,0.0,0.0,0.0,0.0,0.0,0.0,0.0,0.0,0.0,0.0,0.0,0.0,0.0,0.0,0.0,0.0,0.0,0.0,0.0,0.0,0.0,0.0,0.0,0.0,0.0,0.0,0.0,0.0,0.0,0.0,0.0,0.0,0.0,0.0,0.0,0.0,0.0,0.0,0.0,0.0,0.0,0.0,0.0,0.0,0.0,0.0,0.0,0.0,0.0,0.0,0.0,0.0,0.0,0.0,0.0,0.0,0.0,0.0,0.0,0.0,0.0,0.0,0.0,0.0,0.0,0.0,0.0,0.0,1.3398,1.3412,1.3761,1.4019,1.4188,0.0,0.0,0.0,0.0,0.0,0.0,0.0,0.0,0.0,0.0,0.0,0.0,0.0,0.0,0.0,0.0,0.0,0.0,0.0,0.0,0.0,0.0,0.0,0.0,0.0,0.0,0.0,0.0,0.0,0.0,0.0,0.0,0.0,0.0,0.0,0.0,0.0,0.0,0.0,0.0,0.0,0.0,0.0,0.0,0.0,0.0,0.0,0.0,0.0,0.0,0.0,0.0,0.0,0.0,0.0,0.0,0.0,0.0,0.0,0.0,0.0,0.0,0.0,0.0,0.0,0.0,0.0,0.0,0.0,0.0,0.0,0.0,0.0,0.0,0.0,0.0,0.0,0.0,0.0,0.0,0.0,0.0,0.0,0.0,0.0,0.0,0.0,0.0,0.0,0.0,0.0,0.0,0.0,0.0,0.0,0.0,0.0,0.0,0.0,0.0,0.0,0.0,0.0,0.0,0.0,0.0,0.0,0.0,0.0,0.0,0.0,0.0,1.398,1.4131,1.4361,0.0,0.0,0.0,0.0,0.0,0.0,0.0,0.0,0.0,0.0,0.0,0.0,0.0,0.0,0.0,0.0,0.0,0.0,0.0,0.0,0.0,0.0,0.0,0.0,0.0,0.0,0.0,0.0,0.0,0.0,0.0,0.0,0.0,0.0,0.0,0.0,0.0,0.0,0.0,0.0,0.0,0.0,0.0,0.0,0.0,0.0,0.0,0.0,0.0,0.0,0.0,0.0,0.0,0.0,0.0,0.0,0.0,0.0,0.0,0.0,0.0,0.0,0.0,0.0,0.0,0.0,0.0,0.0,0.0,0.0,0.0,0.0,0.0,0.0,0.0,0.0,0.0,0.0,0.0,0.0,0.0,0.0,0.0,0.0,0.0,0.0,0.0,0.0,0.0,0.0,0.0,0.0,0.0,0.0,0.0,0.0,0.0,0.0,0.0,0.0,0.0,0.0,0.0,0.0,0.0,0.0,0.0,0.0,0.0,0.0,1.3063,1.3774,1.3987,0.0,1.4475,0.0,0.0,0.0,0.0,0.0,0.0,0.0,0.0,0.0,0.0,0.0,0.0,0.0,0.0,0.0,0.0,0.0,0.0,0.0,0.0,0.0,0.0,0.0,0.0,0.0,0.0,0.0,0.0,0.0,0.0,0.0,0.0,0.0,0.0,0.0,0.0,0.0,0.0,0.0,0.0,0.0,0.0,0.0,0.0,0.0,0.0,0.0,0.0,0.0,0.0,0.0,0.0,0.0,0.0,0.0,0.0,0.0,0.0,0.0,0.0,0.0,0.0,0.0,0.0,0.0,0.0,0.0,0.0,0.0,0.0,0.0,0.0,0.0,0.0,0.0,0.0,0.0,0.0,0.0,0.0,0.0,0.0,0.0,0.0,0.0,0.0,0.0,0.0,0.0,0.0,0.0,0.0,0.0,0.0,0.0,0.0,0.0,0.0,0.0,0.0,0.0,0.0,0.0,0.0,0.0,0.0,0.0,0.0,0.0,0.0,1.2181,1.3011,1.3847,1.3167,0.0,0.0,0.0,0.0,0.0,0.0,0.0,0.0,0.0,0.0,0.0,0.0,0.0,0.0,0.0,0.0,0.0,0.0,0.0,0.0,0.0,0.0,0.0,0.0,0.0,0.0,0.0,0.0,0.0,0.0,0.0,0.0,0.0,0.0,0.0,0.0,0.0,0.0,0.0,0.0,0.0,0.0,0.0,0.0,0.0,0.0,0.0,0.0,0.0,0.0,0.0,0.0,0.0,0.0,0.0,0.0,0.0,0.0,0.0,0.0,0.0,0.0,0.0,0.0,0.0,0.0,0.0,0.0,0.0,0.0,0.0,0.0,0.0,0.0,0.0,0.0,0.0,0.0,0.0,0.0,0.0,0.0,0.0,0.0,0.0,0.0,0.0,0.0,0.0,0.0,0.0,0.0,0.0,0.0,0.0,0.0,0.0,0.0,0.0,0.0,0.0,0.0,0.0,0.0,0.0,0.0,0.0,0.0,0.0,0.0,1.0494,1.138,1.2526,1.2233,1.072,0.7993,0.0,0.0,0.0,0.0,0.0,0.0,0.0,0.0,0.0,0.0,0.0,0.0,0.0,0.0,0.0,0.0,0.0,0.0,0.0,0.0,0.0,0.0,0.0,0.0,0.0,0.0,0.0,0.0,0.0,0.0,0.0,0.0,0.0,0.0,0.0,0.0,0.0,0.0,0.0,0.0,0.0,0.0,0.0,0.0,0.0,0.0,0.0,0.0,0.0,0.0,0.0,0.0,0.0,0.0,0.0,0.0,0.0,0.0,0.0,0.0,0.0,0.0,0.0,0.0,0.0,0.0,0.0,0.0,0.0,0.0,0.0,0.0,0.0,0.0,0.0,0.0,0.0,0.0,0.0,0.0,0.0,0.0,0.0,0.0,0.0,0.0,0.0,0.0,0.0,0.0,0.0,0.0,0.0,0.0,0.0,0.0,0.0,0.0,0.0,0.0,0.0,0.0,0.0,0.0,0.0,0.0,0.0,0.0,0.9662,0.9752,1.0801,1.268,0.8555,0.6552,0.0,0.0,0.0,0.0,0.0,0.0,0.0,0.0,0.0,0.0,0.0,0.0,0.0,0.0,0.0,0.0,0.0,0.0,0.0,0.0,0.0,0.0,0.0,0.0,0.0,0.0,0.0,0.0,0.0,0.0,0.0,0.0,0.0,0.0,0.0,0.0,0.0,0.0,0.0,0.0,0.0,0.0,0.0,0.0,0.0,0.0,0.0,0.0,0.0,0.0,0.0,0.0,0.0,0.0,0.0,0.0,0.0,0.0,0.0,0.0,0.0,0.0,0.0,0.0,0.0,0.0,0.0,0.0,0.0,0.0,0.0,0.0,0.0,0.0,0.0,0.0,0.0,0.0,0.0,0.0,0.0,0.0,0.0,0.0,0.0,0.0,0.0,0.0,0.0,0.0,0.0,0.0,0.0,0.0,0.0,0.0,0.0,0.0,0.0,0.0,0.0,0.0,0.0,0.0,0.0,0.0,0.0,0.0,0.0,0.8885,0.9378,0.9232,0.845,0.6579,0.3693,0.0,0.0,0.0,0.0,0.0,0.0,0.0,0.0,0.0,0.0,0.0,0.0,0.0,0.0,0.0,0.0,0.0,0.0,0.0,0.0,0.0,0.0,0.0,0.0,0.0,0.0,0.0,0.0,0.0,0.0,0.0,0.0,0.0,0.0,0.0,0.0,0.0,0.0,0.0,0.0,0.0,0.0,0.0,0.0,0.0,0.0,0.0,0.0,0.0,0.0,0.0,0.0,0.0,0.0,0.0,0.0,0.0,0.0,0.0,0.0,0.0,0.0,0.0,0.0,0.0,0.0,0.0,0.0,0.0,0.0,0.0,0.0,0.0,0.0,0.0,0.0,0.0,0.0,0.0,0.0,0.0,0.0,0.0,0.0,0.0,0.0,0.0,0.0,0.0,0.0,0.0,0.0,0.0,0.0,0.0,0.0,0.0,0.0,0.0,0.0,0.0,0.0,0.0,0.0,0.0,0.0,0.0,0.0,0.0,0.8372,0.0,0.8132,0.5804,0.4049,0.0477,0.0,0.0,0.0,0.0,0.0,0.0,0.0,0.0,0.0,0.0,0.0,0.0,0.0,0.0,0.0,0.0,0.0,0.0,0.0,0.0,0.0,0.0,0.0,0.0,0.0,0.0,0.0,0.0,0.0,0.0,0.0,0.0,0.0,0.0,0.0,0.0,0.0,0.0,0.0,0.0,0.0,0.0,0.0,0.0,0.0,0.0,0.0,0.0,0.0,0.0,0.0,0.0,0.0,0.0,0.0,0.0,0.0,0.0,0.0,0.0,0.0,0.0,0.0,0.0,0.0,0.0,0.0,0.0,0.0,0.0,0.0,0.0,0.0,0.0,0.0,0.0,0.0,0.0,0.0,0.0,0.0,0.0,0.0,0.0,0.0,0.0,0.0,0.0,0.0,0.0,0.0,0.0,0.0,0.0,0.0,0.0,0.0,0.0,0.0,0.0,0.0,0.0,0.0,0.0,0.0,0.0,0.0,0.0,0.8269,0.8218,0.8457,0.753,0.5337,0.0887,-0.3036,0.0,0.0,0.0,0.0,0.0,0.0,0.0,0.0,0.0,0.0,0.0,0.0,0.0,0.0,0.0,0.0,0.0,0.0,0.0,0.0,0.0,0.0,0.0,0.0,0.0,0.0,0.0,0.0,0.0,0.0,0.0,0.0,0.0,0.0,0.0,0.0,0.0,0.0,0.0,0.0,0.0,0.0,0.0,0.0,0.0,0.0,0.0,0.0,0.0,0.0,0.0,0.0,0.0,0.0,0.0,0.0,0.0,0.0,0.0,0.0,0.0,0.0,0.0,0.0,0.0,0.0,0.0,0.0,0.0,0.0,0.0,0.0,0.0,0.0,0.0,0.0,0.0,0.0,0.0,0.0,0.0,0.0,0.0,0.0,0.0,0.0,0.0,0.0,0.0,0.0,0.0,0.0,0.0,0.0,0.0,0.0,0.0,0.0,0.0,0.0,0.0,0.0,0.0,0.0,0.0,0.0,0.0,0.0,0.0,0.8205,0.8416,0.6425,0.2113,-0.037,-0.3989,0.0,0.0,0.0,0.0,0.0,0.0,0.0,0.0,0.0,0.0,0.0,0.0,0.0,0.0,0.0,0.0,0.0,0.0,0.0,0.0,0.0,0.0,0.0,0.0,0.0,0.0,0.0,0.0,0.0,0.0,0.0,0.0,0.0,0.0,0.0,0.0,0.0,0.0,0.0,0.0,0.0,0.0,0.0,0.0,0.0,0.0,0.0,0.0,0.0,0.0,0.0,0.0,0.0,0.0,0.0,0.0,0.0,0.0,0.0,0.0,0.0,0.0,0.0,0.0,0.0,0.0,0.0,0.0,0.0,0.0,0.0,0.0,0.0,0.0,0.0,0.0,0.0,0.0,0.0,0.0,0.0,0.0,0.0,0.0,0.0,0.0,0.0,0.0,0.0,0.0,0.0,0.0,0.0,0.0,0.0,0.0,0.0,0.0,0.0,0.0,0.0,0.0,0.0,0.0,0.0,0.0,0.0,0.0,0.0,0.8232,0.8263,0.6157,0.1693,0.0014,-0.3396,-0.8742,0.0,0.0,0.0,0.0,0.0,0.0,0.0,0.0,0.0,0.0,0.0,0.0,0.0,0.0,0.0,0.0,0.0,0.0,0.0,0.0,0.0,0.0,0.0,0.0,0.0,0.0,0.0,0.0,0.0,0.0,0.0,0.0,0.0,0.0,0.0,0.0,0.0,0.0,0.0,0.0,0.0,0.0,0.0,0.0,0.0,0.0,0.0,0.0,0.0,0.0,0.0,0.0,0.0,0.0,0.0,0.0,0.0,0.0,0.0,0.0,0.0,0.0,0.0,0.0,0.0,0.0,0.0,0.0,0.0,0.0,0.0,0.0,0.0,0.0,0.0,0.0,0.0,0.0,0.0,0.0,0.0,0.0,0.0,0.0,0.0,0.0,0.0,0.0,0.0,0.0,0.0,0.0,0.0,0.0,0.0,0.0,0.0,0.0,0.0,0.0,0.0,0.0,0.0,0.0,0.0,0.0,0.0,0.0,0.8364,0.8121,0.6628,0.3796,0.1713,-0.155,0.0,0.0,0.0,0.0,0.0,0.0,0.0,0.0,0.0,0.0,0.0,0.0,0.0,0.0,0.0,0.0,0.0,0.0,0.0,0.0,0.0,0.0,0.0,0.0,0.0,0.0,0.0,0.0,0.0,0.0,0.0,0.0,0.0,0.0,0.0,0.0,0.0,0.0,0.0,0.0,0.0,0.0,0.0,0.0,0.0,0.0,0.0,0.0,0.0,0.0,0.0,0.0,0.0,0.0,0.0,0.0,0.0,0.0,0.0,0.0,0.0,0.0,0.0,0.0,0.0,0.0,0.0,0.0,0.0,0.0,0.0,0.0,0.0,0.0,0.0,0.0,0.0,0.0,0.0,0.0,0.0,0.0,0.0,0.0,0.0,0.0,0.0,0.0,0.0,0.0,0.0,0.0,0.0,0.0,0.0,0.0,0.0,0.0,0.0,0.0,0.0,0.0,0.0,0.0,0.0,0.0,0.0,0.0,0.0,0.8994,0.8933,0.766,0.5238,0.3945,0.0872,0.0,0.0,0.0,0.0,0.0,0.0,0.0,0.0,0.0,0.0,0.0,0.0,0.0,0.0,0.0,0.0,0.0,0.0,0.0,0.0,0.0,0.0,0.0,0.0,0.0,0.0,0.0,0.0,0.0,0.0,0.0,0.0,0.0,0.0,0.0,0.0,0.0,0.0,0.0,0.0,0.0,0.0,0.0,0.0,0.0,0.0,0.0,0.0,0.0,0.0,0.0,0.0,0.0,0.0,0.0,0.0,0.0,0.0,0.0,0.0,0.0,0.0,0.0,0.0,0.0,0.0,0.0,0.0,0.0,0.0,0.0,0.0,0.0,0.0,0.0,0.0,0.0,0.0,0.0,0.0,0.0,0.0,0.0,0.0,0.0,0.0,0.0,0.0,0.0,0.0,0.0,0.0,0.0,0.0,0.0,0.0,0.0,0.0,0.0,0.0,0.0,0.0,0.0,0.0,0.0,0.0,0.0,0.0,0.8593,0.9453,0.9831,0.9529,0.8588,0.6112,0.2823,0.0,0.0,0.0,0.0,0.0,0.0,0.0,0.0,0.0,0.0,0.0,0.0,0.0,0.0,0.0,0.0,0.0,0.0,0.0,0.0,0.0,0.0,0.0,0.0,0.0,0.0,0.0,0.0,0.0,0.0,0.0,0.0,0.0,0.0,0.0,0.0,0.0,0.0,0.0,0.0,0.0,0.0,0.0,0.0,0.0,0.0,0.0,0.0,0.0,0.0,0.0,0.0,0.0,0.0,0.0,0.0,0.0,0.0,0.0,0.0,0.0,0.0,0.0,0.0,0.0,0.0,0.0,0.0,0.0,0.0,0.0,0.0,0.0,0.0,0.0,0.0,0.0,0.0,0.0,0.0,0.0,0.0,0.0,0.0,0.0,0.0,0.0,0.0,0.0,0.0,0.0,0.0,0.0,0.0,0.0,0.0,0.0,0.0,0.0,0.0,0.0,0.0,0.0,0.0,0.0,0.0,0.0,0.0,0.8829,0.9842,1.0727,1.1667,1.2529,0.8275,0.4563,0.0,0.0,0.0,0.0,0.0,0.0,0.0,0.0,0.0,0.0,0.0,0.0,0.0,0.0,0.0,0.0,0.0,0.0,0.0,0.0,0.0,0.0,0.0,0.0,0.0,0.0,0.0,0.0,0.0,0.0,0.0,0.0,0.0,0.0,0.0,0.0,0.0,0.0,0.0,0.0,0.0,0.0,0.0,0.0,0.0,0.0,0.0,0.0,0.0,0.0,0.0,0.0,0.0,0.0,0.0,0.0,0.0,0.0,0.0,0.0,0.0,0.0,0.0,0.0,0.0,0.0,0.0,0.0,0.0,0.0,0.0,0.0,0.0,0.0,0.0,0.0,0.0,0.0,0.0,0.0,0.0,0.0,0.0,0.0,0.0,0.0,0.0,0.0,0.0,0.0,0.0,0.0,0.0,0.0,0.0,0.0,0.0,0.0,0.0,0.0,0.0,0.0,0.0,0.0,0.0,0.0,0.0,0.0,0.9281,1.0858,1.1443,1.2451,1.3938,1.0506,0.6832,0.0,0.0,0.0,0.0,0.0,0.0,0.0,0.0,0.0,0.0,0.0,0.0,0.0,0.0,0.0,0.0,0.0,0.0,0.0,0.0,0.0,0.0,0.0,0.0,0.0,0.0,0.0,0.0,0.0,0.0,0.0,0.0,0.0,0.0,0.0,0.0,0.0,0.0,0.0,0.0,0.0,0.0,0.0,0.0,0.0,0.0,0.0,0.0,-1.5277,0.0,0.0,0.0,0.0,0.0,0.0,0.0,0.0,0.0,0.0,0.0,0.0,0.0,0.0,0.0,0.0,0.0,0.0,0.0,0.0,0.0,0.0,0.0,0.0,0.0,0.0,0.0,0.0,0.0,0.0,0.0,0.0,0.0,0.0,0.0,0.0,0.0,0.0,0.0,0.0,0.0,0.0,0.0,0.0,0.0,0.0,0.0,0.0,0.0,0.0,0.0,0.0,0.0,0.0,0.0,0.0,0.0,0.0,0.0,0.9669,1.1416,1.1452,1.2028,1.3123,1.1021,0.8128,0.0,0.0,0.0,0.0,0.0,0.0,0.0,0.0,0.0,0.0,0.0,0.0,0.0,0.0,0.0,0.0,0.0,0.0,0.0,0.0,0.0,0.0,0.0,0.0,0.0,0.0,0.0,0.0,0.0,0.0,0.0,0.0,0.0,0.0,0.0,0.0,0.0,0.0,0.0,0.0,0.0,0.0,0.0,0.0,0.0,0.0,0.0,0.0,0.0,0.0,0.0,0.0,0.0,0.0,0.0,0.0,0.0,0.0,0.0,0.0,0.0,0.0,0.0,0.0,0.0,0.0,0.0,0.0,0.0,0.0,0.0,0.0,0.0,0.0,0.0,0.0,0.0,0.0,0.0,0.0,0.0,0.0,0.0,0.0,0.0,0.0,0.0,0.0,0.0,0.0,0.0,0.0,0.0,0.0,0.0,0.0,0.0,0.0,0.0,0.0,0.0,0.0,0.0,0.0,0.0,0.0,0.0,0.9529,1.0212,1.1732,1.1364,1.1425,1.1984,1.0929,0.9046,0.6312,0.0,0.0,0.0,0.0,0.0,0.0,0.0,0.0,0.0,0.0,0.0,0.0,0.0,0.0,0.0,0.0,0.0,0.0,0.0,0.0,0.0,0.0,0.0,0.0,0.0,0.0,0.0,0.0,0.0,0.0,0.0,0.0,0.0,0.0,0.0,0.0,0.0,0.0,-1.3876,-1.4637,0.0,0.0,0.0,0.0,0.0,0.0,0.0,0.0,-1.7303,0.0,0.0,0.0,0.0,0.0,0.0,0.0,0.0,0.0,0.0,0.0,0.0,0.0,0.0,0.0,0.0,0.0,0.0,0.0,0.0,0.0,0.0,0.0,0.0,0.0,0.0,0.0,0.0,0.0,0.0,0.0,0.0,0.0,0.0,0.0,0.0,0.0,0.0,0.0,0.0,0.0,0.0,0.0,0.0,0.0,0.0,0.0,0.0,0.0,0.0,0.0,0.0,0.0,0.0,0.0,0.0,0.9954,1.091,1.1621,1.1964,1.2047,1.2118,1.2149,1.1328,1.0236,0.8734,0.0,0.0,0.0,0.0,0.0,0.0,0.0,0.0,0.0,0.0,0.0,0.0,0.0,0.0,0.0,0.0,0.0,0.0,0.0,0.0,0.0,0.0,0.0,0.0,0.0,0.0,0.0,0.0,0.0,0.0,0.0,0.0,0.0,0.0,0.0,0.0,0.0,0.0,0.0,-1.4673,-1.4897,0.0,0.0,0.0,0.0,0.0,0.0,0.0,0.0,-1.7714,0.0,0.0,0.0,0.0,0.0,0.0,0.0,0.0,0.0,0.0,0.0,0.0,0.0,0.0,0.0,0.0,0.0,0.0,0.0,0.0,0.0,0.0,0.0,0.0,0.0,0.0,0.0,0.0,0.0,0.0,0.0,0.0,0.0,0.0,0.0,0.0,0.0,0.0,0.0,0.0,0.0,0.0,0.0,0.0,0.0,0.0,0.0,0.0,0.0,0.0,0.0,0.0,0.0,0.0,0.0,1.154,1.1887,1.2288,1.2796,1.2041,1.1564,1.1469,1.0947,1.0431,0.0,0.0,0.0,0.0,0.0,0.0,0.0,0.0,0.0,0.0,0.0,0.0,0.0,0.0,0.0,0.0,0.0,0.0,0.0,0.0,0.0,0.0,0.0,0.0,0.0,0.0,0.0,0.0,0.0,0.0,0.0,0.0,0.0,0.0,0.0,0.0,0.0,0.0,0.0,0.0,-1.4787,-1.5165,-1.5731,0.0,0.0,0.0,0.0,0.0,0.0,-1.9328,-1.9653,0.0,0.0,0.0,0.0,0.0,0.0,0.0,0.0,0.0,0.0,0.0,0.0,0.0,0.0,0.0,0.0,0.0,0.0,0.0,0.0,0.0,0.0,0.0,0.0,0.0,0.0,0.0,0.0,0.0,0.0,0.0,0.0,0.0,0.0,0.0,0.0,0.0,0.0,0.0,0.0,0.0,0.0,0.0,0.0,0.0,0.0,0.0,0.0,0.0,0.0,0.0,0.0,0.0,0.0,0.0,1.297,1.2851,1.3008,1.3489,1.2058,1.109,1.0804,1.0505,1.0425,0.0,0.0,0.0,0.0,0.0,0.0,0.0,0.0,0.0,0.0,0.0,0.0,0.0,0.0,0.0,0.0,0.0,0.0,0.0,0.0,0.0,0.0,0.0,0.0,0.0,0.0,0.0,0.0,0.0,0.0,0.0,0.0,0.0,0.0,0.0,0.0,0.0,0.0,0.0,0.0,0.0,-1.5524,-1.6027,-1.6083,0.0,0.0,0.0,0.0,-2.0152,-2.1204,0.0,0.0,0.0,0.0,0.0,0.0,0.0,0.0,0.0,0.0,0.0,0.0,0.0,0.0,0.0,0.0,0.0,0.0,0.0,0.0,0.0,0.0,0.0,0.0,0.0,0.0,0.0,0.0,0.0,0.0,0.0,0.0,0.0,0.0,0.0,0.0,0.0,0.0,0.0,0.0,0.0,0.0,0.0,0.0,0.0,0.0,0.0,0.0,0.0,0.0,0.0,0.0,0.0,0.0,0.0,0.0,1.3102,1.4077,1.4247,1.3512,1.2557,1.1617,1.0731,1.0665,1.0761,0.0,0.0,0.0,0.0,0.0,0.0,0.0,0.0,0.0,0.0,0.0,0.0,0.0,0.0,0.0,0.0,0.0,0.0,0.0,0.0,0.0,0.0,0.0,0.0,0.0,0.0,0.0,0.0,0.0,0.0,0.0,0.0,0.0,0.0,0.0,0.0,0.0,0.0,0.0,0.0,0.0,-1.5695,-1.6353,-1.6936,-1.7451,0.0,0.0,-2.0351,-2.1813,-2.2384,0.0,0.0,0.0,0.0,0.0,0.0,0.0,0.0,0.0,0.0,0.0,0.0,0.0,0.0,0.0,0.0,0.0,0.0,0.0,0.0,0.0,0.0,0.0,0.0,0.0,0.0,0.0,0.0,0.0,0.0,0.0,0.0,0.0,0.0,0.0,0.0,0.0,0.0,0.0,0.0,0.0,0.0,0.0,0.0,0.0,0.0,0.0,0.0,0.0,0.0,0.0,0.0,0.0,0.0,0.0,1.374,1.4461,1.5265,1.5429,1.4856,1.3569,1.2399,1.1409,1.0622,1.0501,0.0,0.0,0.0,0.0,0.0,0.0,0.0,0.0,0.0,0.0,0.0,0.0,0.0,0.0,0.0,0.0,0.0,0.0,0.0,0.0,0.0,0.0,0.0,0.0,0.0,0.0,0.0,0.0,0.0,0.0,0.0,0.0,0.0,0.0,0.0,0.0,0.0,0.0,0.0,0.0,0.0,0.0,-1.7256,-1.8145,0.0,0.0,0.0,-2.138,-2.2868,0.0,0.0,0.0,0.0,0.0,0.0,0.0,0.0,0.0,0.0,0.0,0.0,0.0,0.0,0.0,0.0,0.0,0.0,0.0,0.0,0.0,0.0,0.0,0.0,0.0,0.0,0.0,0.0,0.0,0.0,0.0,0.0,0.0,0.0,0.0,0.0,0.0,0.0,0.0,0.0,0.0,0.0,0.0,0.0,0.0,0.0,0.0,0.0,0.0,0.0,0.0,0.0,0.0,0.0,0.0,0.0,0.0,1.5537,1.6266,1.6396,1.5911,1.447,1.3147,1.1965,1.0789,0.0,0.0,0.0,0.0,0.0,0.0,0.0,0.0,0.0,0.0,0.0,0.0,0.0,0.0,0.0,0.0,0.0,0.0,0.0,0.0,0.0,0.0,0.0,0.0,0.0,0.0,0.0,-0.7523,0.0,0.0,0.0,0.0,0.0,0.0,0.0,0.0,0.0,0.0,0.0,0.0,0.0,0.0,-1.6413,-1.8001,-1.9186,-2.0179,0.0,0.0,-2.2647,-2.3888,-2.4263,-2.4469,0.0,0.0,0.0,0.0,0.0,0.0,0.0,0.0,0.0,0.0,0.0,0.0,0.0,0.0,0.0,0.0,0.0,0.0,0.0,0.0,0.0,0.0,0.0,0.0,0.0,0.0,0.0,0.0,0.0,0.0,0.0,0.0,0.0,0.0,0.0,0.0,0.0,0.0,0.0,0.0,0.0,0.0,0.0,0.0,0.0,0.0,0.0,0.0,0.0,0.0,0.0,0.0,0.0,0.0,0.0,1.5722,1.6898,1.703,1.602,1.509,1.3772,1.2066,1.1555,1.119,0.0,0.0,0.0,0.0,0.0,0.0,0.0,0.0,0.0,0.0,0.0,0.0,0.0,0.0,0.0,0.0,0.0,0.0,0.0,0.0,0.0,0.0,0.0,0.0,0.0,0.0,0.0,0.0,0.0,0.0,0.0,0.0,0.0,0.0,0.0,0.0,0.0,0.0,0.0,0.0,0.0,-1.6416,-1.8316,-1.9866,-2.1112,0.0,0.0,-2.4397,-2.4992,-2.5207,-2.5331,-2.5405,0.0,0.0,0.0,0.0,0.0,0.0,0.0,0.0,0.0,0.0,0.0,0.0,0.0,0.0,0.0,0.0,0.0,0.0,0.0,0.0,0.0,0.0,0.0,0.0,0.0,0.0,0.0,0.0,0.0,0.0,0.0,0.0,0.0,0.0,0.0,0.0,0.0,0.0,0.0,0.0,0.0,0.0,0.0,0.0,0.0,0.0,0.0,0.0,0.0,0.0,0.0,0.0,0.0,1.5805,1.6512,1.7708,1.8096,1.7584,1.6228,1.4652,1.2909,1.1516,1.0707,0.0,0.0,0.0,0.0,0.0,0.0,0.0,0.0,0.0,0.0,0.0,0.0,0.0,0.0,0.0,0.0,0.0,0.0,0.0,0.0,0.0,0.0,0.0,0.0,0.0,0.0,0.0,0.0,-0.4961,-0.5643,-0.6455,0.0,0.0,0.0,0.0,0.0,0.0,0.0,0.0,0.0,0.0,-1.6676,-1.8641,-2.056,0.0,0.0,-2.4069,-2.4927,-2.5328,-2.546,-2.5535,-2.5571,-2.486,0.0,0.0,0.0,0.0,0.0,0.0,0.0,0.0,0.0,0.0,0.0,0.0,0.0,0.0,0.0,0.0,0.0,0.0,0.0,0.0,0.0,0.0,0.0,0.0,0.0,0.0,0.0,0.0,0.0,0.0,0.0,0.0,0.0,0.0,0.0,0.0,0.0,0.0,0.0,0.0,0.0,0.0,0.0,0.0,0.0,0.0,0.0,0.0,0.0,0.0,0.0,0.0,1.5908,1.6671,1.8106,1.8639,1.823,1.7041,1.5479,1.3505,1.1791,1.0398,0.0,0.0,0.0,0.0,0.0,0.0,0.0,0.0,0.0,0.0,0.0,0.0,0.0,0.0,0.0,0.0,0.0,0.0,0.0,0.0,0.0,0.0,0.0,0.0,0.0,0.0,0.0,0.0,-0.286,-0.3833,-0.5238,0.0,0.0,0.0,0.0,0.0,0.0,0.0,0.0,0.0,0.0,-1.6619,-1.8824,-2.0916,-2.2628,-2.3731,-2.4534,-2.5153,-2.5449,-2.5545,-2.5609,-2.5609,0.0,0.0,0.0,0.0,0.0,0.0,0.0,0.0,0.0,0.0,0.0,0.0,0.0,0.0,0.0,0.0,0.0,0.0,0.0,0.0,0.0,0.0,0.0,0.0,0.0,0.0,0.0,0.0,0.0,0.0,1.2372,0.0,0.0,0.0,0.0,0.0,0.0,0.0,0.0,0.0,0.0,0.0,0.0,0.0,0.0,0.0,0.0,0.0,0.0,0.0,0.0,0.0,0.0,1.5724,1.5946,1.7907,1.8418,1.7471,1.7394,1.6158,1.3678,1.2586,1.052,0.73,0.0,0.0,0.0,0.0,0.0,0.0,0.0,0.0,0.0,0.0,0.0,0.0,0.0,0.0,0.0,0.0,0.0,0.0,0.0,0.0,0.0,0.0,0.0,0.0,0.0,0.0,-0.0059,-0.1252,-0.2492,0.0,0.0,0.0,0.0,0.0,0.0,0.0,0.0,0.0,0.0,-1.3593,-1.61,-1.88,-2.0861,-2.2586,-2.3897,-2.4674,-2.5213,-2.5492,-2.5595,-2.5602,0.0,0.0,0.0,0.0,0.0,0.0,0.0,0.0,0.0,0.0,0.0,0.0,0.0,0.0,0.0,0.0,0.0,0.0,0.0,0.0,0.0,0.0,0.0,0.0,0.0,0.0,0.0,1.3559,1.414,0.0,0.0,0.0,0.0,0.0,0.0,0.0,0.0,0.0,0.0,0.0,1.4306,1.4194,0.0,0.0,0.0,0.0,0.0,0.0,0.0,0.0,0.0,0.0,0.0,0.0,1.5827,1.6054,1.7871,1.8364,1.7432,1.7355,1.6148,1.3668,1.2155,0.9557,0.5799,0.0,0.0,0.0,0.0,0.0,0.0,0.0,0.0,0.0,0.0,0.0,0.0,0.0,0.0,0.0,0.0,0.0,0.0,0.0,0.0,0.0,0.0,0.0,0.0,0.0,0.2687,0.0,0.0,0.0,0.0,0.0,0.0,0.0,0.0,0.0,0.0,0.0,-0.7722,-0.9798,-1.2491,-1.5259,-1.796,-2.0178,-2.2263,0.0,0.0,0.0,0.0,0.0,0.0,0.0,0.0,0.0,0.0,0.0,0.0,0.0,0.0,-2.199,-2.1116,-2.1111,-2.1193,-2.1058,0.0,0.0,0.0,0.0,0.0,0.0,0.0,0.0,0.0,0.0,0.0,0.0,0.0,0.0,0.0,0.0,1.5154,0.0,0.0,0.0,0.0,0.0,0.0,0.0,0.0,1.4451,1.4513,1.4538,1.4472,1.4404,0.0,1.427,1.3972,0.0,0.0,0.0,0.0,0.0,0.0,0.0,0.0,1.5828,1.6038,1.7752,1.8342,1.7693,1.739,1.6172,1.3969,1.098,0.8144,0.5475,0.6326,0.7254,0.0,0.0,0.0,0.0,0.0,0.0,0.0,0.0,0.0,0.0,0.0,0.0,0.0,0.0,0.0,0.0,0.0,0.0,0.0,0.0,0.0,0.0,0.0,0.446,0.0,0.0,0.0,0.0,0.0,0.0,0.0,0.0,0.0,-0.3147,-0.4492,-0.6144,-0.8497,-1.1469,-1.4383,-1.7063,0.0,0.0,0.0,0.0,0.0,0.0,0.0,-2.7901,-2.7422,-2.8001,-2.8392,-2.7981,-2.6857,-2.5642,-2.4464,0.0,0.0,-2.1804,-2.1713,-2.177,-2.169,-2.2041,-2.2355,-2.2353,-2.2443,-2.259,0.0,0.0,0.0,0.0,0.0,0.0,0.0,0.0,1.5217,1.5558,0.0,1.5912,0.0,0.0,0.0,0.0,0.0,1.4561,0.0,0.0,1.4727,1.4732,1.4815,1.4748,1.4646,1.4527,1.4401,1.4286,1.4208,1.4075,0.0,0.0,0.0,0.0,0.0,0.0,1.5781,1.5997,1.7568,1.8317,1.8111,1.7448,1.6246,1.4382,0.9331,0.6498,0.631,0.6215,0.7294,0.9806,1.0533,0.0,0.0,0.0,0.0,0.0,0.0,0.0,0.0,0.0,0.0,0.0,0.0,0.0,0.0,0.0,0.0,0.0,0.0,0.0,0.0,0.6592,0.0,0.0,0.0,0.0,0.0,0.0,0.0,0.0,0.0,0.0,-0.1554,-0.3133,-0.4908,-0.7471,0.0,0.0,0.0,0.0,-2.1401,-2.3073,-2.4837,-2.6302,-2.7094,-2.772,-2.8135,-2.8214,0.0,0.0,-2.8356,-2.7307,-2.6118,-2.4962,-2.4102,-2.3356,-2.2355,-2.1896,-2.1668,-2.16,-2.1628,-2.1599,-2.1732,-2.1979,-2.2303,1.3614,0.0,0.0,0.0,0.0,1.4016,1.3984,1.4183,1.5095,1.5706,1.6078,1.6378,0.0,0.0,0.0,0.0,0.0,0.0,1.472,1.4844,1.493,1.503,1.5076,1.5109,1.51,1.5077,1.5034,1.498,1.4928,1.5381,1.5104,1.4127,0.0,0.0,0.0,0.0,1.6191,1.6772,1.7734,1.7881,1.7123,1.695,1.5312,1.2049,0.9608,0.7754,0.6571,0.7464,0.8302,0.9013,1.0834,0.0,0.0,0.0,0.0,0.0,0.0,0.0,0.0,0.0,0.0,0.0,0.0,0.0,0.0,0.0,0.0,0.0,0.0,0.0,0.7859,0.7253,0.6697,0.0,0.0,0.0,0.0,0.0,0.0,0.0,0.0,0.0,0.0672,-0.1853,-0.4535,0.0,0.0,-1.2934,-1.5646,-1.7874,-2.0209,-2.2783,0.0,0.0,0.0,-2.88,-2.9562,-2.9136,-2.9033,-2.867,-2.7611,-2.648,-2.5292,-2.4138,-2.3333,-2.2685,-2.2322,-2.2294,-2.2365,-2.2382,-2.2314,-2.2352,-2.2527,-2.2687,-2.2961,1.3056,1.3499,1.3614,1.3715,1.3733,1.3569,1.3608,1.3871,1.4967,1.5663,1.6062,1.6593,1.7089,1.7407,1.668,0.0,0.0,0.0,1.484,1.4953,1.5028,1.5113,1.5166,1.522,1.5279,1.5298,1.5057,1.5077,1.533,1.5554,1.551,1.5163,0.0,0.0,1.6626,1.6872,1.7197,1.7631,1.8513,1.8695,1.81,1.7581,1.5426,1.1528,1.1287,1.0313,0.829,1.0002,1.0933,1.0847,1.2341,1.2875,0.0,0.0,0.0,0.0,0.0,0.0,0.0,0.0,0.0,0.0,0.0,0.9338,0.0,0.0,0.0,0.0,0.8838,0.8862,0.8896,0.8603,0.0,0.0,0.0,0.0,0.0,0.0,0.0,0.6263,0.5401,0.3908,0.1711,-0.1297,-0.4301,-0.7076,-0.9736,-1.2286,-1.4591,0.0,-1.9137,-2.1913,-2.4329,-2.6393,-2.7954,-2.9378,-3.005,-2.938,-2.8791,-2.802,-2.6929,-2.5704,-2.4563,-2.3593,-2.283,-2.2296,-2.2077,-2.2146,-2.2229,-2.2328,-2.2315,-2.2325,-2.2509,-2.2737,-2.2978,1.2678,1.2829,1.3054,1.3244,1.3345,1.3227,1.3471,1.4073,1.4842,1.5496,1.6036,1.6669,1.7228,1.7698,1.6988,0.0,1.5936,1.5252,1.4969,1.4973,1.4981,1.5011,1.5101,1.5176,1.5211,1.5201,1.4648,1.4745,1.5373,1.5009,1.5404,1.6646,1.7202,1.7553,1.7721,1.8257,1.8523,1.8511,1.9643,2.0209,2.0183,1.8875,1.6355,1.2547,1.3968,1.3593,1.1202,1.3262,1.4469,1.4394,1.4587,1.4278,1.3397,0.0,0.0,0.0,0.0,0.0,0.0,0.0,0.0,0.0,0.0,0.0,0.0,0.0,0.0,0.0,0.9993,0.0,1.0318,1.0342,0.0,0.0,0.0,0.8551,0.8362,0.8622,0.8508,0.7698,0.0,0.0,0.1934,0.0,-0.4247,-0.6945,-0.9401,-1.1547,-1.3249,-1.5679,-1.819,-2.0838,-2.3767,-2.6444,-2.8362,-2.9435,-2.9713,-2.9063,-2.825,-2.727,-2.6262,-2.5067,-2.393,-2.3201,-2.2586,-2.2077,-2.1807,-2.1554,-2.1418,-2.167,-2.1712,-2.1766,-2.1977,-2.217,-2.2402,1.2684,1.2722,1.2797,1.2908,1.3016,1.2926,1.3041,1.3376,1.4529,1.5179,1.5507,1.6682,1.7507,1.7977,1.7514,1.7014,1.6479,1.5878,1.5309,1.485,1.4902,1.4984,1.5099,1.517,1.496,1.455,1.4393,1.4444,1.4682,1.5263,1.612,1.7225,1.8336,1.8788,1.86,1.8726,1.8978,1.9307,2.0047,2.0387,2.0246,1.9447,1.7996,1.596,1.63,1.5888,1.4635,1.5565,1.6088,1.5971,1.578,1.5335,1.4611,1.4286,0.0,0.0,0.0,0.0,0.0,0.0,0.0,0.0,0.0,1.0869,1.1539,0.0,1.0684,0.0,1.0851,1.0794,1.0772,1.0855,0.0,0.0,1.0615,1.0607,1.0601,1.0539,1.0198,0.9395,0.7593,0.5345,0.2453,-0.0556,-0.3447,-0.6075,-0.8558,-1.083,-1.2583,-1.4682,-1.731,-2.0528,-2.3489,-2.608,-2.8313,-2.8996,-2.8985,-2.8353,-2.7474,-2.6527,-2.5598,-2.45,-2.3551,-2.2859,-2.2278,-2.1793,-2.141,-2.1202,-2.1091,-2.1055,-2.1113,-2.1314,-2.163,-2.1732,-2.1908,1.2813,1.2901,1.3176,1.3364,1.3477,1.3071,1.3139,1.3611,1.4697,1.5421,1.5887,1.7104,1.7876,1.818,1.7754,1.7441,1.7191,1.6586,1.6175,1.5887,1.5932,1.5826,1.5598,1.5703,1.541,1.479,1.4502,1.4579,1.503,1.5331,1.6163,1.747,1.8493,1.9125,1.9366,1.9798,2.0082,2.0217,2.1115,2.1514,2.1407,2.1123,2.0107,1.8308,1.8498,1.8029,1.6661,1.7113,1.7346,1.7152,1.6966,1.6658,1.6255,1.5616,1.4839,0.0,0.0,0.0,0.0,0.0,0.0,0.0,0.0,0.0,0.0,0.0,1.1958,1.2118,1.2127,1.2068,1.1914,1.2189,1.2182,1.175,1.1796,1.1744,1.1568,1.1236,1.0617,0.953,0.767,0.5339,0.2499,-0.0337,-0.2975,-0.537,-0.7611,-0.9757,-1.182,-1.4194,-1.7049,-2.056,-2.3716,-2.642,-2.8541,-2.8605,-2.8264,-2.7681,-2.6822,-2.5938,-2.5098,-2.4147,-2.326,-2.2692,-2.2137,-2.1602,-2.1264,-2.0983,-2.0835,-2.0785,-2.0762,-2.0924,-2.1326,-2.1506,-2.1589,1.3211,1.3468,1.3974,1.4245,1.4291,1.3635,1.3733,1.4422,1.5231,1.6038,1.6893,1.7776,1.829,1.8432,1.8004,1.7848,1.7879,1.7399,1.7176,1.7223,1.7251,1.6941,1.6352,1.6441,1.6085,1.5306,1.4722,1.4803,1.5522,1.5209,1.5863,1.746,1.8125,1.8912,1.9826,2.0972,2.1421,2.1159,2.23,2.2923,2.2978,2.3067,2.2094,2.0047,2.0341,1.9677,1.7868,1.8091,1.8243,1.8155,1.8044,1.8041,1.8042,1.7151,1.6174,0.0,1.4764,0.0,0.0,0.0,0.0,0.0,0.0,0.0,0.0,1.403,1.3494,1.3583,1.3699,1.369,1.3536,1.3851,1.3675,1.2757,1.2547,1.2273,1.1736,1.121,1.0274,0.8812,0.7066,0.4889,0.2074,-0.0513,-0.2847,-0.5023,-0.7074,-0.9253,-1.1638,-1.445,-1.753,-2.1003,-2.4556,-2.7474,-2.8512,-2.8264,-2.7683,-2.7115,-2.6334,-2.5546,-2.4828,-2.3932,-2.3187,-2.2706,-2.2077,-2.1554,-2.1229,-2.0871,-2.0673,-2.0662,-2.061,-2.0696,-2.1082,-2.1277,-2.1375,1.4502,1.4981,1.5213,1.504,1.4671,1.509,1.5261,1.5311,1.6157,1.711,1.8078,1.8419,1.8697,1.8789,1.8871,1.8583,1.8053,1.8006,1.7694,1.7223,1.7214,1.7168,1.7089,1.6913,1.6148,1.4973,1.4749,1.4528,1.4284,1.4621,1.5505,1.6946,1.782,1.8627,1.9395,0.0,0.0,0.0,2.2637,2.3346,2.3897,2.3377,2.2609,2.1569,2.0871,0.0,1.8644,1.8351,1.8395,1.8791,1.8767,0.0,0.0,0.0,0.0,0.0,0.0,0.0,0.0,0.0,0.0,0.0,1.6691,1.6407,1.52,1.4965,1.4998,1.5147,1.5531,1.5636,1.5377,1.4965,1.4346,1.3512,1.2832,1.2257,1.1741,1.0669,0.9373,0.7985,0.5856,0.3506,0.099,-0.1191,-0.3304,-0.5711,-0.7829,-1.0509,-1.4092,-1.6236,-1.8905,-2.2779,-2.6517,-2.8679,-2.8753,-2.8039,-2.739,-2.686,-2.6099,-2.5317,-2.4704,-2.3973,-2.3201,-2.2678,-2.2231,-2.1712,-2.118,-2.0871,-2.0736,-2.0601,-2.056,-2.0657,-2.0961,-2.1059,-2.118,1.5263,0.0,1.6067,1.6084,0.0,1.6669,1.6947,1.6907,1.6927,1.7517,1.8452,1.8734,1.8896,1.8966,1.9152,1.9044,1.8684,1.8794,1.8675,1.8334,1.8335,1.8106,1.7732,1.6965,1.6093,1.5151,1.4558,1.4349,1.4412,1.4891,1.5686,1.6773,1.7956,1.8913,1.9693,2.1896,2.3166,2.338,2.3574,2.3861,2.4174,2.3841,2.3285,2.2491,0.0,0.0,0.0,0.0,0.0,0.0,0.0,0.0,0.0,0.0,0.0,1.7727,1.7628,1.6965,1.5552,1.6321,1.705,1.7463,1.8021,1.7769,1.6507,1.6566,1.6586,1.6338,1.6504,1.6275,1.5528,1.4808,1.3974,1.2989,1.2145,1.1328,1.054,0.9743,0.8404,0.6262,0.4132,0.1846,-0.045,-0.2339,-0.4523,-0.7118,-0.9608,-1.2697,-1.6632,-1.8688,-2.1224,-2.583,-2.8028,-2.9245,-2.8755,-2.8029,-2.7341,-2.6876,-2.6118,-2.5362,-2.4789,-2.4024,-2.329,-2.2754,-2.2217,-2.1759,-2.1326,-2.1019,-2.0848,-2.0764,-2.0749,-2.0881,-2.1068,-2.1166,-2.1277,1.601,1.6279,1.6912,1.7193,1.7331,1.7974,1.84,1.8551,0.0,0.0,0.0,1.8896,1.9053,1.9035,1.9219,1.928,1.9274,1.9372,1.9435,1.9427,1.9423,1.8936,1.8071,1.7037,1.6164,1.5439,1.464,1.4546,1.5033,1.5605,1.6214,1.6986,1.8277,1.943,2.047,2.2238,2.3632,2.4563,2.4388,2.4247,2.4173,2.4173,2.3805,2.3031,2.2794,2.2124,2.0912,2.0483,2.0167,1.9999,2.0006,2.0358,2.1105,2.0843,1.986,1.8316,1.8566,1.7957,1.6181,1.7012,1.7923,1.8576,1.8835,1.8655,1.7902,1.8017,1.7875,1.7313,1.701,1.6332,1.5205,1.4287,1.3296,1.2055,1.1041,1.004,0.9231,0.8302,0.6724,0.427,0.2064,-0.0,-0.2108,-0.4045,-0.6287,-0.9093,-1.2066,-1.557,-1.9738,-2.1919,-2.4185,-2.8164,-2.9207,-2.9231,-2.8872,-2.8252,-2.759,-2.7144,-2.6317,-2.5556,-2.4918,-2.4188,-2.3523,-2.2889,-2.2296,-2.1841,-2.152,-2.1229,-2.101,-2.099,-2.105,-2.1118,-2.1224,-2.1477,-2.1808,1.7265,1.7883,1.8093,1.8243,1.8301,1.8471,1.9033,1.9774,1.8948,1.8699,1.8931,1.9102,1.9186,1.9186,1.9251,1.9232,1.9132,1.9148,1.9164,0.0,1.9079,1.8569,1.7693,1.7499,1.6686,1.5399,1.5524,1.5589,1.5673,1.6414,1.7161,1.7823,1.8647,1.9957,2.1611,2.1977,2.2733,2.3916,2.4062,2.4115,2.4113,2.4056,2.3692,2.3032,2.283,2.22,2.1193,2.078,2.0737,2.1139,2.1174,2.1498,2.2221,2.2716,2.1822,1.9407,1.9829,1.9276,1.7025,1.7219,1.7921,1.8978,1.9054,1.8811,1.8362,1.8223,1.8134,1.793,1.6967,1.6159,1.5429,1.4087,1.2647,1.129,0.9819,0.8908,0.8646,0.6164,0.3791,0.2055,-0.0128,-0.226,-0.4243,-0.6299,-0.8753,-1.191,-1.5188,-1.9017,-2.3519,-2.6079,-2.7306,-2.8722,-2.9022,-2.9065,-2.9194,-2.8772,-2.8092,-2.759,-2.6556,-2.5689,-2.5114,-2.441,-2.3754,-2.3113,-2.2601,-2.2123,-2.1664,-2.1361,-2.1166,-2.1055,-2.1202,-2.1299,-2.141,-2.2159,-2.2867,1.8031,1.8406,1.8467,1.8584,1.8751,1.9291,2.0065,2.0916,2.0623,2.0442,2.0426,2.0547,2.0599,2.0511,2.0039,1.9771,1.9632,1.9075,1.9022,1.936,1.9248,1.883,1.8064,1.7441,1.6503,1.5434,1.5215,1.5387,1.5847,1.6613,1.7309,1.7988,1.8974,2.011,2.1268,2.1745,2.2196,2.2669,2.3451,2.3881,2.3896,2.3855,2.3737,2.3565,2.3449,2.3206,2.2729,2.2488,2.2416,2.2594,2.2915,2.317,2.3423,2.3973,2.297,2.0069,2.0299,1.9545,1.7173,1.7804,1.8578,1.9231,1.9193,1.8941,1.857,1.8382,1.8069,1.7596,1.6513,1.5412,1.4486,1.2943,1.141,0.9907,0.8313,0.7016,0.6097,0.3959,0.1726,0.0128,-0.2362,-0.4669,-0.6238,-0.835,-1.0981,-1.4369,-1.845,-2.2696,-2.5712,-2.6949,-2.7888,-2.888,-2.9362,-2.9583,-2.9627,-2.9102,-2.8458,-2.7747,-2.674,-2.5892,-2.5269,-2.4549,-2.3839,-2.3304,-2.2737,-2.2203,-2.1732,-2.1506,-2.1334,-2.1342,-2.1417,-2.1541,-2.1815,-2.2944,-2.4063,1.8913,1.9209,1.9212,1.9362,1.9629,2.0567,2.1347,2.2039,2.2358,2.2434,2.226,2.1984,2.1767,2.1588,2.0843,2.0408,2.0148,1.9308,1.9143,1.9543,1.9261,1.8759,1.8058,1.7034,1.6197,1.552,1.5088,1.5375,1.6319,1.7014,1.7715,1.8392,1.9247,1.9882,2.0269,2.1158,2.1543,2.1552,2.2697,2.3432,2.3562,2.3602,2.3692,2.3917,2.3976,2.3978,2.4054,2.4101,2.4112,2.4024,2.4572,2.4813,2.4625,2.5045,2.3845,2.0903,2.0779,1.9928,1.7736,1.8378,1.9093,1.9316,1.921,1.8922,1.8548,1.8201,1.7743,1.709,1.5985,1.4718,1.352,1.1858,1.0166,0.8581,0.6837,0.5267,0.3727,0.1985,0.0257,-0.154,-0.4102,-0.6237,-0.7907,-1.0053,-1.305,-1.713,-2.1599,-2.4769,-2.5704,-2.6523,-2.7438,-2.8163,-2.916,-2.9787,-2.9725,-2.9336,-2.8676,-2.7897,-2.6906,-2.6016,-2.5253,-2.4492,-2.3797,-2.3216,-2.2586,-2.2077,-2.1766,-2.1554,-2.1444,-2.1513,-2.1623,-2.1938,-2.2648,-2.38,-2.5013,2.019,2.1014,2.1039,2.1298,2.1601,2.2493,2.2947,2.3163,2.3948,2.4351,2.4076,2.2629,2.1855,2.1589,2.1294,2.0945,2.0587,2.0031,1.9688,1.9471,1.8642,1.7754,1.6973,1.6424,1.589,1.5533,1.5899,1.6555,1.745,1.8145,1.892,1.9733,1.9468,1.9077,1.8832,1.9827,2.0508,2.0803,2.175,2.259,2.3182,2.3295,2.3463,2.3714,2.3855,2.3996,2.4225,2.4869,2.5256,2.5271,2.5801,2.6041,2.5883,2.61,2.4698,2.1353,2.1727,2.1127,1.8784,1.8792,1.9052,1.917,1.9011,1.8732,1.8333,1.7611,1.7067,1.6673,1.5584,1.4323,1.3097,1.1439,0.9615,0.7812,0.6056,0.4164,0.2388,0.0835,-0.0836,-0.3153,-0.455,-0.6336,-0.8506,-1.1286,-1.4963,-1.9446,-2.2105,-2.3989,-2.4237,-2.4961,-2.5588,-2.5953,-2.7233,-2.8824,-2.9414,-2.9436,-2.8838,-2.812,-2.7017,-2.5999,-2.5176,-2.4354,-2.361,-2.2875,-2.2342,-2.1841,-2.1554,-2.141,-2.1471,-2.1589,-2.191,-2.2446,-2.3917,-2.4805,-2.5477,2.102,2.1479,2.1589,2.2058,2.272,2.3154,2.3621,2.4193,2.4572,2.4785,2.4757,2.3997,2.3486,2.307,2.2253,2.1525,2.0887,1.9837,1.9324,1.9201,1.8652,1.7967,1.7223,1.7139,1.6713,1.6022,1.6484,1.716,1.8002,1.8846,1.9457,1.9792,1.942,1.8891,1.8361,1.9285,1.9738,1.9635,2.0891,2.1777,2.2209,2.2738,2.3164,2.3491,2.4122,2.465,2.5002,2.5761,2.6281,2.6432,2.694,2.7153,2.6885,2.7121,2.5618,2.2073,2.0166,1.9085,1.8525,1.8732,1.8958,1.9182,1.9011,1.8786,1.8506,1.7733,1.7134,1.657,1.5323,1.3948,1.2732,1.1017,0.9256,0.7562,0.5862,0.4169,0.2515,0.1222,-0.0321,-0.2441,-0.4351,-0.6438,-0.9156,-1.2923,-1.659,-1.9762,-2.1439,-2.2178,-2.2405,-2.2803,-2.318,-2.3743,-2.5224,-2.7098,-2.8649,-2.9069,-2.8692,-2.808,-2.698,-2.5839,-2.4926,-2.4006,-2.3157,-2.2452,-2.1908,-2.1492,-2.1224,-2.1251,-2.1326,-2.1554,-2.2113,-2.2861,-2.4413,-2.5014,-2.5707,2.2008,2.2355,2.2548,2.3029,2.372,2.3798,2.4233,2.4847,2.4956,2.5037,2.5084,2.5019,2.4804,2.4244,2.3062,2.2054,2.1207,1.9883,1.9199,1.902,1.8602,1.8082,1.7612,1.7525,1.7219,1.6718,1.6951,1.7585,1.8411,1.9161,1.9632,1.9596,1.9273,1.8727,1.8087,1.8769,1.9047,1.8923,2.0138,2.0983,2.1437,2.2281,2.2972,2.3506,2.4354,2.5125,2.5737,2.6648,2.7192,2.7364,2.7933,2.8128,2.7856,2.7906,2.6235,2.2429,1.8992,1.7457,1.8309,1.8667,1.9011,1.9275,1.921,1.904,1.8667,1.8127,1.7468,1.6729,1.5439,1.4195,1.2749,1.1087,0.9436,0.7812,0.6121,0.4501,0.3132,0.1887,0.0326,-0.1559,-0.3568,-0.6392,-0.9725,-1.3614,-1.6874,-1.8242,-1.9115,-1.9583,-1.9736,-1.9791,-2.0099,-2.107,-2.2793,-2.5144,-2.7618,-2.853,-2.8408,-2.8007,-2.6985,-2.568,-2.4617,-2.3608,-2.2603,-2.1894,-2.1348,-2.1019,-2.0894,-2.0957,-2.1215,-2.1554,-2.2052,-2.289,-2.4221,-2.4839,-2.5806,2.3346,2.4208,2.4484,2.4576,2.4831,2.486,2.4967,2.5099,2.5224,2.5284,2.5283,2.5273,2.5129,2.4774,2.3508,2.2551,2.1739,2.0517,1.9649,1.9106,1.8274,1.7828,1.7769,1.7234,1.7027,1.7131,1.7393,1.7948,1.8836,1.9228,1.9428,1.9472,1.9064,1.8363,1.772,1.8135,1.8497,1.878,1.9468,2.0265,2.114,2.2117,2.3046,2.3927,2.4435,2.5265,2.6308,2.7393,2.7945,2.7968,2.8685,2.8934,2.8603,2.809,2.5986,2.2402,1.8802,1.7235,1.8174,1.8727,1.9146,1.95,1.9565,1.9408,1.9093,1.8602,1.7897,1.7067,1.6228,1.505,1.3364,1.175,1.0179,0.8586,0.6767,0.519,0.3867,0.2594,0.0936,-0.0666,-0.2713,-0.5959,-1.0622,-1.3374,-1.4935,-1.591,-1.6411,-1.647,-1.6252,-1.6229,-1.6765,-1.8123,-2.0207,-2.2976,-2.6319,-2.7852,-2.8236,-2.7985,-2.7028,-2.5558,-2.4306,-2.3098,-2.2179,-2.1321,-2.0845,-2.0573,-2.0523,-2.0673,-2.1019,-2.1361,-2.1793,-2.2648,-2.3922,-2.4572,-2.5619,2.4146,2.4657,2.4827,2.498,2.5087,2.5107,2.5184,2.5293,2.5379,2.5428,2.5429,2.5376,2.523,2.4969,2.3794,2.2808,2.1941,2.08,1.9793,1.8969,1.8368,1.7995,1.7749,1.7579,1.7597,1.7666,1.7868,1.8307,1.8927,1.928,1.9376,1.9354,1.9153,1.8626,1.8092,1.8262,1.8494,1.8671,1.9254,2.0181,2.1376,2.2051,2.3111,2.472,2.5464,2.6229,2.7082,2.8068,2.8607,2.8701,2.8905,2.8887,2.8375,2.5562,2.3387,2.1923,1.8674,1.7101,1.8058,1.8833,1.9436,1.9823,2.0016,1.9965,1.9643,1.9174,1.8471,1.7479,1.6719,1.5623,1.4273,1.2687,1.1128,0.9603,0.8066,0.6515,0.5269,0.401,0.2608,0.0533,-0.2449,-0.6181,-0.8925,-1.1356,-1.261,-1.3155,-1.3254,-1.3127,-1.294,-1.2897,-1.3482,-1.529,-1.7795,-2.0953,-2.4373,-2.6728,-2.7865,-2.7788,-2.7076,-2.564,-2.4275,-2.2966,-2.188,-2.1224,-2.061,-2.0372,-2.0422,-2.0673,-2.0921,-2.1184,-2.1609,-2.2248,-2.3537,-2.4226,-2.5408,2.4697,2.4902,2.5038,2.5153,2.5261,2.5293,2.536,2.5466,2.5503,2.5525,2.5499,2.5429,2.5267,2.4918,2.3985,2.3054,2.2138,2.0886,1.9734,1.8819,1.8454,1.8161,1.7935,1.7975,1.8069,1.8109,1.8293,1.862,1.9017,1.9191,1.9213,1.9153,1.9003,1.8659,1.8204,1.8128,1.8229,1.8498,1.8938,1.989,2.1217,2.2037,2.3201,2.4846,2.5902,2.6755,2.7536,2.8243,2.8707,2.8832,2.8779,2.8626,2.7978,2.3926,2.1583,2.1628,1.8586,1.7034,1.8132,1.902,1.9747,2.022,2.0472,2.0472,2.0245,1.9734,1.8939,1.8015,1.718,1.6234,1.5157,1.3855,1.232,1.0683,0.9227,0.7952,0.6724,0.5474,0.3671,0.1199,-0.199,-0.5038,-0.7181,-0.8751,-0.9666,-1.0104,-0.9977,-0.9831,-0.9712,-1.0039,-1.0905,-1.3075,-1.6348,-1.9869,-2.3383,-2.6238,-2.7855,-2.7987,-2.7281,-2.5798,-2.434,-2.2966,-2.188,-2.1126,-2.0709,-2.0472,-2.0472,-2.0673,-2.0861,-2.1027,-2.1215,-2.1731,-2.2862,-2.3928,-2.5191,2.4962,2.5115,2.5243,2.5332,2.5388,2.5454,2.5526,2.5576,2.5561,2.5545,2.5476,2.5405,2.5182,2.4837,2.4038,2.3294,2.2278,2.0897,1.9759,1.8903,1.8527,1.8356,1.8266,1.8279,1.8372,1.8478,1.8683,1.8912,1.9116,1.9101,1.9026,1.8836,1.8659,1.8386,1.7922,1.7724,1.7728,1.8155,1.8554,1.938,2.0615,2.2044,2.3291,2.4454,2.548,2.6488,2.7507,2.7918,2.8183,2.8352,2.8396,2.821,2.7342,2.3597,2.1462,2.1498,1.8637,1.7355,1.8337,1.9297,2.0042,2.061,2.0934,2.0921,2.0709,2.0156,1.9436,1.8566,1.7654,1.6802,1.5911,1.4991,1.3717,1.1819,1.0312,0.9169,0.8016,0.6519,0.4392,0.1397,-0.1134,-0.2887,-0.442,-0.5844,-0.6742,-0.6867,-0.6928,-0.6923,-0.7062,-0.7713,-0.922,-1.1994,-1.5687,-1.9607,-2.2915,-2.5947,-2.7343,-2.8267,-2.7302,-2.6118,-2.4657,-2.3273,-2.2317,-2.1582,-2.114,-2.0921,-2.0875,-2.1023,-2.0898,-2.1,-2.1116,-2.1469,-2.2719,-2.3975,-2.5075,2.5126,2.5243,2.5331,2.541,2.5477,2.5473,2.5524,2.5584,2.55,2.542,2.5345,2.5149,2.4836,2.4381,2.3733,2.301,2.22,2.1507,2.0597,1.9531,1.8971,1.8711,1.8609,1.8503,1.8528,1.8683,1.876,1.8912,1.9064,1.9116,1.8974,1.8836,1.8745,1.845,1.7975,1.7907,1.7959,1.8255,1.8741,1.9767,2.125,2.2196,2.3266,2.4451,2.501,2.5582,2.6179,2.7046,2.7601,2.7776,2.7897,2.7876,2.6921,2.362,2.1628,2.157,1.8697,1.7224,1.8412,1.9386,2.0194,2.0822,2.1131,2.118,2.1033,2.0472,1.9708,1.8845,1.7958,1.7003,1.6234,1.5391,1.4204,1.2696,1.1571,1.0319,0.8924,0.6898,0.4593,0.2468,0.0401,-0.1138,-0.2344,-0.3398,-0.3916,-0.4122,-0.4392,-0.4794,-0.519,-0.662,-0.8799,-1.19,-1.5866,-1.999,-2.3693,-2.6548,-2.8024,-2.8542,-2.7724,-2.6573,-2.5104,-2.3812,-2.2863,-2.2207,-2.1766,-2.152,-2.1491,-2.1345,-2.1256,-2.1122,-2.1189,-2.1965,-2.306,-2.4048,-2.5009,2.5264,2.5359,2.5456,2.5496,2.5529,2.5487,2.5447,2.5424,2.5284,2.5129,2.4972,2.4723,2.4348,2.3841,2.328,2.2773,2.2274,2.1889,2.1208,2.0363,1.9689,1.9325,1.9112,1.8821,1.8955,1.9209,1.9089,1.9064,1.9191,1.9153,1.9026,1.8889,1.876,1.8528,1.8189,1.8314,1.847,1.8695,1.9369,2.0364,2.1471,2.2219,2.3074,2.4092,2.4517,2.4863,2.5275,2.6177,2.6855,2.7206,2.7535,2.7569,2.7058,2.3717,2.1623,2.1297,1.913,1.7435,1.859,1.9515,2.0245,2.0822,2.1068,2.1166,2.0983,2.0435,1.9708,1.9069,1.8132,1.7236,1.6528,1.57,1.4697,1.3606,1.2443,1.1073,0.9372,0.7423,0.5526,0.3803,0.2138,0.0868,-0.0067,-0.087,-0.1401,-0.1673,-0.2277,-0.3276,-0.4191,-0.625,-0.9371,-1.3076,-1.7303,-2.1258,-2.4988,-2.7151,-2.8747,-2.8725,-2.8266,-2.7016,-2.5648,-2.4531,-2.3505,-2.295,-2.248,-2.2338,-2.2255,-2.201,-2.1827,-2.1643,-2.1518,-2.2179,-2.3087,-2.3701,-2.4725,2.5387,2.5505,2.5571,2.5588,2.5543,2.543,2.529,2.5141,2.4946,2.4688,2.4451,2.4152,2.3777,2.3285,2.2772,2.2541,2.241,2.196,2.1629,2.1326,2.0709,2.0179,1.9861,1.9497,1.9619,2.005,1.9637,1.9478,1.97,1.9432,1.915,1.9238,1.8949,1.8616,1.8705,1.8947,1.9181,1.9378,2.024,2.1025,2.1533,2.209,2.2769,2.3585,2.3998,2.4397,2.4847,2.546,2.6085,2.6741,2.723,2.7324,2.6503,2.3543,2.1794,2.2029,1.908,1.8107,1.8774,1.9448,2.0042,2.0547,2.0696,2.0809,2.0723,2.0118,1.9512,1.9069,1.8174,1.7412,1.6775,1.5961,1.5079,1.4094,1.2696,1.1073,0.9111,0.7952,0.665,0.5279,0.4013,0.3008,0.2144,0.1405,0.0804,0.0268,-0.0469,-0.2006,-0.448,-0.7341,-1.0755,-1.4831,-1.9282,-2.2801,-2.6549,-2.8048,-2.9444,-2.9144,-2.863,-2.7477,-2.6185,-2.5038,-2.4101,-2.358,-2.3231,-2.3097,-2.2962,-2.2678,-2.2438,-2.2285,-2.232,-2.2519,-2.3053,-2.3892,-2.4876,2.5505,2.5581,2.559,2.5566,2.5485,2.5274,2.5034,2.4796,2.452,2.4241,2.3914,2.3512,2.3153,2.2548,2.2584,2.2327,2.2099,2.2262,2.2234,2.202,2.1695,2.1108,2.061,2.0366,2.046,2.0764,2.0294,2.0231,2.0769,2.0288,2.0201,2.044,1.9883,1.9792,2.0016,1.9884,1.9998,2.0385,2.1098,2.1542,2.1676,2.2026,2.2617,2.33,2.3422,2.3883,2.4623,2.5307,2.5957,2.659,2.6858,2.6923,2.6439,2.359,2.1845,2.1482,1.9299,1.7711,1.8371,1.897,1.9436,1.9876,2.008,2.0194,2.0105,1.972,1.9251,1.878,1.7997,1.7356,1.6856,1.5914,1.4675,1.3147,1.2027,1.0905,0.9633,0.8538,0.7437,0.6384,0.5332,0.4541,0.3816,0.3082,0.2345,0.1743,-0.0067,-0.2579,-0.5638,-1.0193,-1.4301,-1.7626,-2.1568,-2.4743,-2.7528,-2.9007,-2.9815,-2.9567,-2.8914,-2.7949,-2.6666,-2.5427,-2.4576,-2.3925,-2.3711,-2.3553,-2.3451,-2.3231,-2.3084,-2.2877,-2.2766,-2.2875,-2.3729,-2.4568,-2.5494,2.5901,2.5629,2.5993,2.5857,2.5389,2.5086,2.4747,2.4482,2.4301,2.4017,2.3691,2.3611,2.3268,2.2825,2.2671,2.2534,2.2329,2.2395,2.2391,2.2367,2.2264,2.1888,2.1383,2.1095,2.1162,2.1574,2.1002,2.102,2.1346,2.108,2.1035,2.1046,2.0761,2.0735,2.0942,2.1097,2.1167,2.1551,2.2103,2.2306,2.2048,2.206,2.2105,2.241,2.2393,2.2812,2.3888,2.4453,2.5154,2.6067,2.6454,2.6316,2.5454,2.3279,2.1689,2.1136,1.8824,1.7678,1.802,1.8422,1.8709,1.8939,1.9202,1.9307,1.9214,1.9028,1.8655,1.8321,1.7739,1.7258,1.6553,1.542,1.401,1.2658,1.1413,1.0471,0.9831,0.9064,0.8151,0.7298,0.6453,0.5672,0.4951,0.4154,0.3147,0.1666,-0.1253,-0.4263,-0.7768,-1.3093,-1.7723,-2.0837,-2.3577,-2.6606,-2.8349,-2.9664,-2.994,-2.9715,-2.8927,-2.8049,-2.6877,-2.566,-2.495,-2.4343,-2.4135,-2.3967,-2.3809,-2.3724,-2.3623,-2.3435,-2.3187,-2.3476,-2.4378,-2.5014,-2.5973,2.6493,2.5936,2.669,2.6432,2.5588,2.5095,2.4818,2.4371,2.4349,2.4077,2.3755,2.3942,2.3627,2.345,2.2861,2.2823,2.293,2.2523,2.2452,2.2603,2.2704,2.2566,2.2321,2.1882,2.2022,2.2384,2.1921,2.1853,2.2009,2.1824,2.1724,2.1802,2.1606,2.1562,2.188,2.2271,2.2509,2.2634,2.2964,2.2871,2.2382,2.2056,2.1754,2.1464,2.1402,2.1863,2.2709,2.3214,2.3872,2.5476,2.5876,2.5364,2.4095,2.262,2.1217,1.9959,1.8542,1.7501,1.759,1.7767,1.7931,1.8032,1.8328,1.8445,1.8449,1.832,1.8121,1.7744,1.7413,1.6845,1.5864,1.4529,1.3183,1.202,1.0836,1.0028,0.9606,0.9344,0.8807,0.7882,0.7177,0.6396,0.5477,0.4478,0.3072,-0.0589,-0.3734,-0.7973,-1.1704,-1.6412,-2.0358,-2.3437,-2.5991,-2.836,-2.944,-3.0255,-3.0044,-2.9734,-2.8787,-2.783,-2.6785,-2.5766,-2.5176,-2.4695,-2.4385,-2.4219,-2.4105,-2.4063,-2.3994,-2.3988,-2.3789,-2.4282,-2.4944,-2.5431,-2.6202,2.7148,2.7566,2.7648,2.7406,2.6911,2.6411,2.5827,2.5195,2.4793,2.4334,2.3879,2.3622,2.3262,2.2834,2.2848,2.2651,2.2481,2.2706,2.3084,2.3126,2.3406,2.3356,2.3216,2.299,2.3122,2.3163,2.2768,2.2836,2.3077,2.2847,2.2821,2.3011,2.2761,2.2873,2.3322,2.3183,2.332,2.358,2.3694,2.3236,2.2405,2.1802,2.1321,2.0964,2.0933,2.1236,2.1697,2.2045,2.2463,2.3121,2.3919,2.4199,2.3469,2.1958,2.066,1.9692,1.8254,1.722,1.7009,1.6914,1.6889,1.7243,1.7712,1.8021,1.7917,1.8021,1.772,1.7242,1.6824,1.6255,1.4946,1.3536,1.229,1.1101,0.9843,0.8755,0.8276,0.833,0.8166,0.7707,0.6924,0.6071,0.4818,0.2391,0.0197,-0.2908,-0.736,-1.1996,-1.5997,-1.9921,-2.2861,-2.5789,-2.7494,-2.9438,-2.9832,-3.0292,-2.9929,-2.9595,-2.8741,-2.7837,-2.6804,-2.6016,-2.5443,-2.4989,-2.462,-2.4441,-2.4287,-2.4245,-2.4177,-2.4234,-2.4392,-2.4911,-2.5393,-2.5841,-2.6471,2.7649,2.8012,2.8231,2.788,2.7138,2.658,2.5945,2.5358,2.5039,2.4596,2.4172,2.3987,2.3714,2.3216,2.3137,2.2922,2.2824,2.3263,2.371,2.382,2.3956,2.3996,2.4118,2.4018,2.3952,2.3806,2.3534,2.3652,2.3743,2.3705,2.3588,2.3806,2.3738,2.3861,2.4241,2.4064,2.4045,2.3987,2.3839,2.3246,2.2267,2.1411,2.0377,1.9766,1.9531,1.9661,2.0371,2.0671,2.128,2.1953,2.2417,2.2526,2.2344,2.1329,2.031,1.9071,1.8118,1.7022,1.6686,1.6448,1.6404,1.6608,1.7191,1.7486,1.7578,1.7747,1.7662,1.7189,1.6848,1.6158,1.445,1.2964,1.1674,1.0232,0.8756,0.7659,0.7027,0.723,0.7574,0.7154,0.5974,0.4118,0.2285,-0.0398,-0.3737,-0.7192,-1.4054,-1.851,-1.9094,-2.275,-2.5155,-2.7548,-2.8981,-3.0069,-3.0273,-3.0249,-2.978,-2.9364,-2.8764,-2.7893,-2.7014,-2.6351,-2.5795,-2.5246,-2.4686,-2.4482,-2.4343,-2.4302,-2.4317,-2.4342,-2.4637,-2.5267,-2.5834,-2.6335,-2.6955,2.7989,2.8107,2.8684,2.8263,2.7196,2.6593,2.5974,2.5316,2.5211,2.4863,2.4431,2.4611,2.4184,2.3882,2.357,2.3496,2.3658,2.378,2.4077,2.4402,2.4344,2.4418,2.4587,2.4585,2.4492,2.4219,2.4184,2.4245,2.4177,2.4177,2.4194,2.423,2.4467,2.4583,2.4735,2.4775,2.4648,2.4328,2.3809,2.3054,2.1974,2.1028,1.9788,1.8426,1.7871,1.8147,1.8884,1.9345,1.9991,2.138,2.1011,2.0719,2.0632,2.0503,2.0053,1.8341,1.7795,1.7216,1.667,1.6367,1.6262,1.624,1.676,1.7146,1.7365,1.7407,1.7326,1.7011,1.6578,1.5788,1.4271,1.2465,1.0893,0.9325,0.77,0.6344,0.5489,0.5686,0.5491,0.5777,0.3637,0.1299,-0.1612,-0.4584,-0.8012,-1.2107,-1.9035,-2.3853,-2.4252,-2.5094,-2.7323,-2.8582,-2.9767,-3.0199,-3.0364,-3.0675,-3.0151,-2.962,-2.9004,-2.8289,-2.7459,-2.6641,-2.601,-2.523,-2.4695,-2.4508,-2.4287,-2.4214,-2.4261,-2.4364,-2.4936,-2.5632,-2.6224,-2.678,-2.7454,2.8142,2.8785,2.9336,2.9158,2.8507,2.7835,2.6947,2.6184,2.5702,2.5207,2.4563,2.4307,2.3952,2.3584,2.3668,2.396,2.4118,2.4202,2.4362,2.4675,2.4652,2.4756,2.4865,2.4981,2.5013,2.4958,2.4895,2.4766,2.462,2.4742,2.4695,2.4648,2.4934,2.5162,2.5162,2.5162,2.4974,2.4477,2.3837,2.295,2.1927,2.067,1.9411,1.7854,1.7357,1.7416,1.7665,1.816,1.8707,1.9403,1.9685,2.004,2.0265,2.0126,1.949,1.8803,1.8181,1.7556,1.6972,1.6533,1.6542,1.6783,1.7002,1.7171,1.7246,1.7152,1.698,1.6341,1.566,1.4608,1.3469,1.1648,0.9649,0.7924,0.6008,0.4272,0.2865,0.1885,0.1472,0.1738,-0.0069,-0.2554,-0.6194,-0.955,-1.2769,-1.621,-2.1193,-2.5441,-2.6742,-2.7539,-2.8933,-2.973,-3.0243,-3.0349,-3.0352,-3.0752,-3.0733,-3.0253,-2.9698,-2.9133,-2.8211,-2.7078,-2.6222,-2.5538,-2.4885,-2.4467,-2.4271,-2.4116,-2.4254,-2.4449,-2.5211,-2.6056,-2.6605,-2.718,-2.7779,2.7528,2.8623,2.8652,2.8642,2.8451,2.7802,2.7026,2.6214,2.5668,2.5075,2.4492,2.4036,2.3537,2.3186,2.3028,2.3396,2.3822,2.4362,2.4679,2.5077,2.5197,2.5319,2.5425,2.5516,2.553,2.5589,2.5605,2.5339,2.5005,2.5123,2.5114,2.5114,2.5362,2.5492,2.5454,2.5394,2.5146,2.4639,2.3822,2.2846,2.171,2.0307,1.8738,1.7733,1.719,1.7134,1.7312,1.7689,1.8309,1.8972,1.9411,1.9811,2.0016,2.0029,1.9643,1.9226,1.8794,1.8196,1.7542,1.7135,1.7139,1.7052,1.713,1.7206,1.7148,1.7052,1.6652,1.6133,1.5314,1.4239,1.3075,1.0957,0.8882,0.6717,0.4483,0.2383,0.0453,-0.135,-0.2266,-0.2765,-0.4396,-0.7407,-1.204,-1.5115,-1.7771,-2.0964,-2.4208,-2.6602,-2.8828,-2.9743,-3.0528,-3.1052,-3.1445,-3.134,-3.1262,-3.1382,-3.1431,-3.0953,-3.0455,-2.9889,-2.9048,-2.7946,-2.6856,-2.5956,-2.5345,-2.4704,-2.4219,-2.4036,-2.4277,-2.4612,-2.545,-2.6229,-2.6934,-2.7565,-2.8167,2.677,2.8035,2.7751,2.7834,2.7995,2.737,2.6623,2.5892,2.5329,2.4719,2.4078,2.3595,2.3098,2.2661,2.263,2.2822,2.3294,2.4218,2.4817,2.5288,2.5419,2.5749,2.6099,2.6167,2.6046,2.6156,2.6189,2.5994,2.5519,2.5513,2.5551,2.5556,2.5705,2.5775,2.5754,2.5584,2.5246,2.4679,2.3879,2.2786,2.1253,1.9581,1.8116,1.7301,1.7078,1.7011,1.719,1.7634,1.8224,1.8827,1.9303,1.972,2.0093,2.0194,2.0065,1.9895,1.9643,1.8971,1.8436,1.8039,1.7875,1.7492,1.7194,1.712,1.6802,1.6531,1.6175,1.58,1.5064,1.3886,1.2365,1.0364,0.8056,0.556,0.3093,0.0608,-0.1612,-0.3753,-0.6186,-0.726,-0.8682,-1.1467,-1.5411,-1.8753,-2.1052,-2.346,-2.6698,-2.8306,-3.0284,-3.1073,-3.1817,-3.2415,-3.2714,-3.2584,-3.2468,-3.2298,-3.2201,-3.1745,-3.1327,-3.0851,-2.9888,-2.8836,-2.7801,-2.6772,-2.5775,-2.5174,-2.4559,-2.4073,-2.4298,-2.4758,-2.5618,-2.6421,-2.7195,-2.7829,-2.8418,2.6191,2.6925,2.7291,2.7543,2.759,2.708,2.6265,2.5319,2.4847,2.4173,2.3392,2.2965,2.2572,2.2222,2.2464,2.3034,2.3611,2.4043,2.452,2.4998,2.5237,2.5641,2.6065,2.6291,2.6453,2.6624,2.6624,2.6367,2.6052,2.6049,2.6016,2.5986,2.6049,2.6132,2.6026,2.577,2.5416,2.4934,2.3964,2.2363,2.0495,1.902,1.8027,1.7401,1.7032,1.6965,1.7123,1.7634,1.8182,1.8798,1.921,1.9617,2.0028,2.0563,2.0729,2.0573,2.0254,1.9812,1.9497,1.9123,1.8548,1.788,1.7335,1.6742,1.6184,1.5542,1.5076,1.4395,1.395,1.3098,1.1565,0.9483,0.7046,0.4548,0.1925,-0.0848,-0.3341,-0.5481,-0.8019,-1.0639,-1.1748,-1.4274,-1.7586,-2.0953,-2.4107,-2.655,-2.8767,-3.0317,-3.1665,-3.2424,-3.3026,-3.3598,-3.3751,-3.3643,-3.3486,-3.3349,-3.2987,-3.2576,-3.2161,-3.1743,-3.0818,-2.9851,-2.876,-2.7744,-2.6695,-2.5658,-2.4987,-2.4612,-2.4483,-2.5031,-2.6077,-2.6811,-2.7473,-2.8124,-2.8732,2.5439,2.6527,2.6369,2.6747,2.7291,2.6657,2.5855,2.5044,2.4446,2.3694,2.2875,2.248,2.1969,2.1636,2.1931,2.2353,2.2983,2.3608,2.4116,2.4733,2.514,2.5701,2.617,2.6487,2.6758,2.6956,2.6956,2.6923,2.6674,2.6487,2.6367,2.6333,2.6365,2.6329,2.6258,2.5917,2.553,2.4784,2.3462,2.1791,2.0344,1.9085,1.8093,1.7523,1.7134,1.7078,1.7301,1.759,1.8139,1.8691,1.9052,1.9408,1.9886,2.0422,2.0818,2.1335,2.1288,2.0926,2.0443,1.9987,1.9278,1.8297,1.7423,1.6455,1.548,1.4768,1.4322,1.3988,1.3353,1.2318,1.0865,0.8789,0.6367,0.3726,0.1168,-0.1707,-0.4501,-0.7106,-0.952,-1.2237,-1.4695,-1.6563,-1.8764,-2.1849,-2.472,-2.7105,-2.9337,-3.115,-3.2585,-3.3813,-3.4302,-3.4722,-3.4735,-3.4603,-3.4424,-3.428,-3.3851,-3.3449,-3.302,-3.2511,-3.1835,-3.087,-2.981,-2.8788,-2.7816,-2.6773,-2.5668,-2.5216,-2.5131,-2.58,-2.6581,-2.7348,-2.8121,-2.8496,-2.8936,2.4835,2.6,2.5661,2.6055,2.6871,2.625,2.5594,2.4839,2.4173,2.3348,2.2452,2.1813,2.1264,2.1033,2.134,2.1842,2.2259,2.3231,2.3921,2.4583,2.5291,2.5957,2.6418,2.6758,2.7085,2.7307,2.7293,2.723,2.7149,2.6923,2.6725,2.6674,2.6521,2.6468,2.6312,2.5974,2.5567,2.4583,2.3098,2.173,2.0544,1.9411,1.859,1.7952,1.7523,1.7346,1.7523,1.7854,1.8302,1.8691,1.9011,1.9364,1.9877,2.0373,2.0941,2.1487,2.1758,2.1715,2.1171,2.0662,1.9879,1.8613,1.712,1.5675,1.4697,1.4057,1.3608,1.3295,1.2652,1.1583,1.017,0.8232,0.5976,0.3341,0.0701,-0.2174,-0.4886,-0.711,-0.9466,-1.1978,-1.4419,-1.6853,-1.9265,-2.2352,-2.5119,-2.7603,-2.9799,-3.1823,-3.3351,-3.4721,-3.5086,-3.5332,-3.5248,-3.5104,-3.4928,-3.4774,-3.4492,-3.4117,-3.3707,-3.3189,-3.2388,-3.1708,-3.0827,-2.9846,-2.892,-2.8217,-2.7368,-2.6581,-2.5933,-2.6729,-2.7484,-2.8135,-2.8758,-2.9057,-2.9137,2.4486,2.5145,2.5454,2.5729,2.5999,2.6082,2.5598,2.4799,2.412,2.3172,2.2035,2.1091,2.0523,2.0536,2.1166,2.1732,2.2235,2.3348,2.4173,2.4902,2.5631,2.6227,2.6657,2.7053,2.7417,2.7582,2.7539,2.7509,2.7478,2.7149,2.699,2.6893,2.664,2.6606,2.6382,2.6026,2.523,2.4282,2.3025,2.2072,2.1051,2.0042,1.9133,1.8441,1.8007,1.7799,1.7723,1.8308,1.8717,1.9012,1.9305,1.9558,2.0116,2.0612,2.1144,2.1522,2.2028,2.1946,2.1631,2.1089,2.0193,1.8526,1.6688,1.5037,1.4114,1.3557,1.2959,1.2352,1.1774,1.0824,0.9397,0.7625,0.5597,0.3424,0.0935,-0.1478,-0.4112,-0.6423,-0.8844,-1.1537,-1.392,-1.6086,-1.8619,-2.1497,-2.471,-2.7203,-3.0425,-3.2517,-3.3848,-3.509,-3.5404,-3.5604,-3.5548,-3.5403,-3.5147,-3.4888,-3.4567,-3.416,-3.3752,-3.3314,-3.2791,-3.2156,-3.1549,-3.0974,-3.009,-2.957,-2.9042,-2.811,-2.7617,-2.7876,-2.8331,-2.8844,-2.9157,-2.9393,-2.9366,2.4158,2.4317,2.4866,2.5464,2.5966,2.5664,2.5337,2.4941,2.4225,2.2995,2.1513,2.0709,2.0334,2.0623,2.1313,2.2063,2.2711,2.3706,2.4502,2.5153,2.5848,2.6383,2.6791,2.7181,2.7539,2.7701,2.7701,2.7642,2.7612,2.7307,2.7038,2.6876,2.6708,2.6589,2.6364,2.5901,2.5052,2.4204,2.3304,2.2438,2.1595,2.0633,1.9837,1.9279,1.9022,1.8829,1.8879,1.9315,1.9577,1.9781,2.0036,2.0305,2.0523,2.1015,2.1265,2.1439,2.1861,2.1892,2.1702,2.1135,2.0085,1.822,1.6437,1.4895,1.389,1.3178,1.2372,1.17,1.095,0.9992,0.8618,0.7161,0.5452,0.3431,0.1403,-0.0856,-0.3027,-0.5337,-0.7643,-1.0118,-1.2469,-1.4844,-1.7494,-2.0277,-2.3616,-2.6852,-3.0133,-3.3002,-3.4282,-3.5253,-3.5533,-3.5683,-3.5644,-3.5502,-3.5254,-3.4944,-3.4583,-3.4203,-3.3778,-3.339,-3.2988,-3.2636,-3.2039,-3.1595,-3.1168,-3.0527,-2.9921,-2.9468,-2.9097,-2.8794,-2.8986,-2.9347,-2.9569,-2.9637,-2.9457,2.3996,2.3889,2.4302,2.5009,2.5773,2.5567,2.5461,2.5319,2.461,2.3098,2.1259,2.0646,2.051,2.0908,2.1589,2.2452,2.3231,2.4142,2.4863,2.5513,2.6118,2.6556,2.6956,2.7386,2.7795,2.7876,2.7904,2.7876,2.7701,2.7386,2.712,2.6909,2.6691,2.6554,2.6293,2.577,2.5092,2.4518,2.3908,2.3387,2.2729,2.2024,2.1286,2.0836,2.0461,2.0116,2.0057,2.0205,2.0361,2.0523,2.0742,2.0921,2.1177,2.134,2.144,2.1425,2.1331,2.1451,2.1146,2.0752,1.977,1.8104,1.6645,1.5155,1.3867,1.2799,1.1768,1.0726,1.0051,0.915,0.794,0.685,0.577,0.3982,0.2422,0.039,-0.1632,-0.3793,-0.6179,-0.8548,-1.0979,-1.3626,-1.7149,-2.0205,-2.4395,-2.7596,-3.0557,-3.3058,-3.4339,-3.5155,-3.5522,-3.5624,-3.5646,-3.5476,-3.5297,-3.4906,-3.4524,-3.4197,-3.3797,-3.3455,-3.3068,-3.2737,-3.2422,-3.195,-3.1531,-3.1218,-3.0721,-3.0096,-2.9704,-2.9383,-2.9544,-2.9704,-2.954,-2.9531,-2.9259,2.4016,2.3896,2.3789,2.4391,2.5347,2.5789,2.5959,2.5891,2.5032,2.3501,2.1649,2.1064,2.0944,2.1286,2.2035,2.2921,2.3776,2.4552,2.523,2.5864,2.64,2.6858,2.7276,2.7689,2.8053,2.8182,2.8191,2.8091,2.7818,2.7539,2.7279,2.6993,2.6758,2.6514,2.6274,2.5733,2.5481,2.5503,2.5098,2.4821,2.4465,2.3893,2.3202,2.2613,2.2111,2.1695,2.1269,2.1182,2.1259,2.1259,2.128,2.144,2.1712,2.1523,2.1341,2.1072,2.0775,2.052,2.0118,2.0107,1.9309,1.8172,1.6706,1.5138,1.3556,1.2191,1.0836,0.9677,0.8918,0.8295,0.7427,0.6732,0.5824,0.4711,0.3146,0.1644,-0.039,-0.2486,-0.4876,-0.7267,-0.975,-1.2449,-1.6382,-2.0408,-2.5033,-2.855,-3.1253,-3.3086,-3.4199,-3.4971,-3.5363,-3.5538,-3.5557,-3.5378,-3.5166,-3.4793,-3.4442,-3.413,-3.3734,-3.3339,-3.2975,-3.2606,-3.2335,-3.2126,-3.1691,-3.1173,-3.0952,-3.0692,-3.0205,-2.9778,-2.9745,-2.9782,-2.9603,-2.948,-2.9454,2.3937,2.3837,2.3837,2.4324,2.5046,2.5006,2.5386,2.5793,2.4912,2.3658,2.2472,2.188,2.1766,2.2114,2.2712,2.3548,2.4374,2.5067,2.5721,2.6173,2.6674,2.6989,2.7382,2.7829,2.821,2.838,2.8406,2.8291,2.7992,2.7672,2.7341,2.7058,2.7026,2.6846,2.6547,2.6212,2.6141,2.619,2.5995,2.5788,2.5523,2.5029,2.454,2.3988,2.3606,2.305,2.2419,2.2362,2.2247,2.2095,2.2095,2.2172,2.2188,2.1898,2.1354,2.0677,2.0129,1.9446,1.905,1.8885,1.8777,1.7755,1.6498,1.4712,1.2736,1.1081,0.9771,0.8595,0.7878,0.7285,0.6873,0.6711,0.6053,0.5151,0.384,0.2613,0.0786,-0.1406,-0.3653,-0.6193,-0.8628,-1.2834,-1.6812,-1.9659,-2.3901,-2.704,-2.9453,-3.193,-3.3401,-3.4466,-3.5121,-3.535,-3.5411,-3.5255,-3.5001,-3.4529,-3.4096,-3.3715,-3.3343,-3.2988,-3.2687,-3.2352,-3.2073,-3.1765,-3.1389,-3.1055,-3.07,-3.0412,-3.0319,-3.0131,-3.0133,-3.0129,-3.0082,-3.0078,-3.0114,2.3792,2.375,2.3792,2.4103,2.4545,2.4587,2.4998,2.5282,2.4644,2.3763,2.2906,2.2581,2.2589,2.2935,2.3477,2.422,2.5005,2.5594,2.6049,2.6453,2.6875,2.7213,2.7547,2.7982,2.8335,2.8554,2.8562,2.8448,2.8112,2.78,2.7528,2.7385,2.7394,2.7566,2.7382,2.7292,2.694,2.6961,2.6898,2.6796,2.6606,2.6348,2.5928,2.5467,2.4994,2.4477,2.3847,2.3496,2.3365,2.315,2.2982,2.2909,2.2531,2.1951,2.1239,2.0302,1.8998,1.8241,1.7666,1.7562,1.7186,1.6166,1.5476,1.3783,1.1409,0.9564,0.8246,0.7288,0.6805,0.6754,0.6622,0.6632,0.6261,0.542,0.4247,0.2992,0.1113,-0.1106,-0.3522,-0.5922,-0.8694,-1.2942,-1.6875,-1.949,-2.2483,-2.5015,-2.7456,-2.9964,-3.2419,-3.3642,-3.4674,-3.5042,-3.5171,-3.503,-3.4661,-3.4135,-3.3721,-3.3317,-3.2939,-3.2574,-3.2196,-3.1842,-3.162,-3.1334,-3.0885,-3.0485,-3.019,-2.999,-3.0006,-3.0237,-3.0476,-3.0479,-3.0552,-3.0541,-3.0477,2.3544,2.3611,2.3696,2.3765,2.3898,2.4437,2.4653,2.4539,2.443,2.3867,2.3016,2.3193,2.3331,2.3736,2.4225,2.4871,2.5503,2.6066,2.6418,2.6725,2.7085,2.7413,2.7829,2.8246,2.8562,2.8717,2.8767,2.8601,2.8237,2.8059,2.7892,2.776,2.7992,2.839,2.8543,2.8412,2.803,2.7981,2.784,2.7783,2.7684,2.7765,2.7265,2.6813,2.6318,2.5655,2.4983,2.4513,2.4047,2.3721,2.3509,2.3223,2.2714,2.1951,2.091,1.942,1.7725,1.6648,1.5934,1.5867,1.5014,1.3977,1.3393,1.1688,0.9896,0.8011,0.6898,0.6204,0.5838,0.6248,0.6499,0.6505,0.6505,0.546,0.4274,0.2724,0.0971,-0.1358,-0.3795,-0.6338,-0.8954,-1.2528,-1.6087,-1.8899,-2.1151,-2.2967,-2.545,-2.7931,-3.0401,-3.2828,-3.3834,-3.4695,-3.4783,-3.4751,-3.4355,-3.3864,-3.3322,-3.2896,-3.2529,-3.2156,-3.176,-3.1359,-3.105,-3.0707,-3.0276,-2.9918,-2.9515,-2.9562,-2.9816,-3.0104,-3.0525,-3.0869,-3.0899,-3.0716,-3.0639,2.3336,2.3407,2.3499,2.3638,2.375,2.4028,2.4241,2.4348,2.4384,2.4197,2.4127,2.381,2.4035,2.4617,2.5121,2.5594,2.6049,2.6418,2.6725,2.7021,2.7338,2.7624,2.8027,2.8448,2.8761,2.8923,2.8923,2.8785,2.8593,2.8415,2.7948,2.7552,2.8834,2.9465,2.9654,2.9625,2.928,2.8962,2.8695,2.8561,2.8448,2.8348,2.7974,2.756,2.7137,2.6428,2.5823,2.5217,2.4724,2.4279,2.3884,2.3471,2.2848,2.1753,2.0355,1.7296,1.5735,1.4564,1.4026,1.36,1.2862,1.1412,1.045,0.9228,0.7722,0.6632,0.5562,0.5157,0.5282,0.5809,0.6067,0.615,0.604,0.5152,0.3587,0.1346,-0.0577,-0.2919,-0.5459,-0.7876,-1.0355,-1.2889,-1.628,-1.7988,-2.0053,-2.1498,-2.3602,-2.6356,-2.8878,-3.1466,-3.3353,-3.43,-3.4568,-3.4576,-3.4128,-3.3643,-3.3036,-3.2485,-3.2156,-3.172,-3.1207,-3.0807,-3.0493,-2.9962,-2.9419,-2.9045,-2.8712,-2.8912,-2.9343,-3.0003,-3.0451,-3.0919,-3.1212,-3.0985,-3.091,2.1158,2.1252,2.2032,2.285,2.3666,2.3876,2.4064,2.42,2.4232,2.4384,2.4547,2.4395,2.4749,2.5443,2.5779,2.6137,2.6487,2.6741,2.7053,2.7324,2.7582,2.7897,2.8299,2.8626,2.8887,2.9021,2.9017,2.887,2.8815,2.8849,2.8526,2.8605,3.0041,3.0415,3.0585,3.0634,3.0385,2.9859,2.9377,2.9029,2.8763,2.8525,2.8284,2.7989,2.756,2.7034,2.6496,2.5932,2.5453,2.4894,2.4368,2.3682,2.2519,2.085,1.8407,1.5511,1.3996,1.2771,1.1933,1.1554,1.0524,0.9266,0.7966,0.6888,0.6037,0.5127,0.464,0.4312,0.4884,0.5453,0.5625,0.5703,0.5215,0.4736,0.2251,-0.0343,-0.2608,-0.4961,-0.7381,-0.9715,-1.2062,-1.4283,-1.6344,-1.7718,-1.9431,-2.1629,-2.4196,-2.6997,-2.9188,-3.1225,-3.3102,-3.4381,-3.4459,-3.4449,-3.396,-3.3561,-3.2957,-3.2419,-3.19,-3.1423,-3.0787,-3.0287,-2.9941,-2.921,-2.8401,-2.8238,-2.8157,-2.8502,-2.892,-2.9594,-3.0294,-3.0689,-3.107,-3.1228,-3.1213,1.8035,1.8115,1.984,2.1764,2.3398,2.38,2.4056,2.4112,2.4094,2.4303,2.4704,2.486,2.5413,2.6183,2.6419,2.6573,2.6858,2.7085,2.7338,2.7647,2.7858,2.8174,2.8507,2.8815,2.9021,2.9085,2.9095,2.9004,2.8987,2.9208,2.969,3.0024,3.0865,3.1376,3.1545,3.1425,3.1067,3.0502,2.9837,2.9273,2.8873,2.8653,2.8477,2.8235,2.7925,2.7575,2.7071,2.664,2.6215,2.5563,2.4711,2.3891,2.1434,1.9043,1.6203,1.4021,1.2368,1.107,1.0088,0.9592,0.8679,0.7543,0.6415,0.5478,0.4691,0.4339,0.3999,0.3914,0.4387,0.4654,0.4825,0.4103,0.3461,0.1939,-0.0437,-0.3278,-0.6117,-0.818,-0.9977,-1.2098,-1.3453,-1.5656,-1.6919,-1.8427,-2.0218,-2.2281,-2.4914,-2.78,-3.0179,-3.191,-3.334,-3.4804,-3.4692,-3.4637,-3.4144,-3.3676,-3.3023,-3.2417,-3.2019,-3.1373,-3.0936,-3.0202,-2.9364,-2.8746,-2.8127,-2.783,-2.7746,-2.8197,-2.8683,-2.9254,-2.986,-3.0435,-3.0791,-3.1014,-3.1292,1.787,1.8063,1.994,2.1191,2.1977,2.3386,2.4134,2.4303,2.4203,2.4699,2.5417,2.5439,2.5902,2.6874,2.697,2.7085,2.723,2.7386,2.7565,2.7858,2.811,2.8404,2.8725,2.8975,2.9108,2.913,2.9136,2.9186,2.95,3.0006,3.0599,3.1026,3.1781,3.2292,3.2214,3.1985,3.1528,3.0988,3.0335,2.9617,2.909,2.8873,2.8685,2.8429,2.8137,2.7974,2.7545,2.7188,2.6721,2.6068,2.484,2.2738,1.9613,1.6927,1.4638,1.2615,1.0713,0.9419,0.8439,0.7729,0.6954,0.618,0.525,0.4465,0.3941,0.3764,0.3676,0.3676,0.3673,0.3757,0.3393,0.2408,0.1156,-0.1063,-0.3265,-0.6436,-0.9639,-1.1232,-1.2836,-1.3967,-1.5173,-1.6488,-1.781,-1.9434,-2.1124,-2.3422,-2.6099,-2.8878,-3.1728,-3.3753,-3.4777,-3.5825,-3.5283,-3.504,-3.4512,-3.3977,-3.3379,-3.3062,-3.2751,-3.196,-3.1121,-3.0364,-2.9642,-2.8652,-2.7977,-2.79,-2.7883,-2.811,-2.8549,-2.903,-2.9425,-2.9946,-3.0294,-3.0582,-3.094,1.5921,1.6231,1.8745,2.0566,2.1799,2.3349,2.4229,2.4513,2.4476,2.5005,2.5834,2.5793,2.6233,2.7232,2.7372,2.7491,2.7569,2.76,2.7876,2.8138,2.8378,2.8676,2.891,2.9089,2.9152,2.9175,2.9049,2.9204,2.9834,3.0487,3.1031,3.1643,3.2442,3.2848,3.2639,3.2283,3.1858,3.1317,3.0747,3.0038,2.9303,2.8997,2.8795,2.8525,2.8284,2.8171,2.7875,2.7458,2.6774,2.5342,2.359,2.0859,1.7877,1.5271,1.3021,1.1068,0.9306,0.782,0.7024,0.6254,0.5633,0.4919,0.4476,0.3944,0.3314,0.3136,0.3226,0.3136,0.2508,0.2592,0.1068,-0.0089,-0.2033,-0.4142,-0.6666,-0.9582,-1.2122,-1.4077,-1.5072,-1.5821,-1.6967,-1.8089,-1.9583,-2.1366,-2.3271,-2.5909,-2.8398,-3.1115,-3.3736,-3.5505,-3.6508,-3.6911,-3.6396,-3.5705,-3.5191,-3.4559,-3.3941,-3.3632,-3.3421,-3.2688,-3.1873,-3.083,-2.9923,-2.9291,-2.8719,-2.8325,-2.8319,-2.8391,-2.8394,-2.8738,-2.9115,-2.9477,-2.9789,-3.0097,-3.0387,1.3818,1.4181,1.7389,2.0,2.2079,2.3506,2.4358,2.4783,2.4837,2.52,2.5815,2.5915,2.6416,2.7082,2.7654,2.7773,2.7876,2.7864,2.8128,2.837,2.8569,2.8839,2.9026,2.9197,2.9156,2.9067,2.8942,2.9314,2.9842,3.0559,3.1289,3.2025,3.2595,3.3073,3.2866,3.2573,3.2144,3.149,3.0868,3.0182,2.9617,2.909,2.8842,2.8573,2.8332,2.8171,2.7925,2.7342,2.6616,2.4394,2.1906,1.8636,1.6022,1.3498,1.1447,0.9526,0.7891,0.6665,0.5733,0.5196,0.4659,0.421,0.3857,0.3417,0.279,0.2256,0.2347,0.1623,0.1081,0.0179,-0.1343,-0.3118,-0.5237,-0.7526,-1.0154,-1.2516,-1.4671,-1.6539,-1.704,-1.7573,-1.8514,-1.9621,-2.1362,-2.3111,-2.5567,-2.8229,-3.1014,-3.3845,-3.6155,-3.7202,-3.8233,-3.8159,-3.7678,-3.6911,-3.5946,-3.5157,-3.4415,-3.4203,-3.394,-3.3315,-3.2583,-3.1643,-3.0861,-3.0438,-2.9868,-2.923,-2.8777,-2.8641,-2.8677,-2.8661,-2.8817,-2.9099,-2.9275,-2.9512,-2.9808,1.4459,1.5593,1.8343,2.0192,2.1489,2.3448,2.4639,2.5057,2.5063,2.5165,2.5408,2.5916,2.6581,2.7675,2.8196,2.8352,2.8156,2.8119,2.8228,2.8466,2.8669,2.8934,2.9112,2.9178,2.9071,2.8975,2.8931,2.9253,2.9834,3.0577,3.1373,3.2159,3.2936,3.3178,3.2993,3.2603,3.2109,3.1473,3.0788,3.007,2.9454,2.9059,2.8842,2.8558,2.8332,2.8235,2.791,2.7122,2.6008,2.3794,2.0435,1.6791,1.3924,1.1642,0.9715,0.8127,0.6532,0.5586,0.4802,0.4168,0.3537,0.308,0.273,0.2297,0.1476,0.0279,-0.0279,-0.1577,-0.222,-0.275,-0.4112,-0.6271,-0.8434,-1.1175,-1.3931,-1.5691,-1.7568,-1.8163,-1.8451,-1.9065,-1.9865,-2.12,-2.2822,-2.493,-2.7337,-2.9999,-3.27,-3.5449,-3.7279,-3.8581,-3.9771,-3.9307,-3.8765,-3.7632,-3.6466,-3.5622,-3.4982,-3.4771,-3.4558,-3.4124,-3.3423,-3.2474,-3.1806,-3.1554,-3.0791,-3.0026,-2.9635,-2.9186,-2.885,-2.883,-2.8638,-2.8716,-2.8894,-2.9168,-2.9568]},{"header":{"parameterUnit":"m.s-1","parameterCategory":1,"la1":31.0,"la2":29.5877,"lo1":-88.7671,"lo2":-86.6584,"dy":0.0162,"dx":0.0185,"nx":115,"ny":88,"refTime":"2024-03-01T18:00:00:Z","depth":0,"parameterNumber":3,"parameterNumberName":"V-component_of_WINDS"},"data":[0.0,0.0,0.0,0.0,0.0,0.0,0.0,0.0,0.0,0.0,0.0,0.0,0.0,0.0,0.0,0.0,0.0,0.0,0.0,0.0,0.0,0.0,0.0,0.0,0.0,0.0,0.0,0.0,0.0,0.0,0.0,0.0,0.0,0.0,0.0,0.0,0.0,0.0,0.0,0.0,0.0,0.0,0.0,0.0,0.0,0.0,0.0,0.0,0.0,0.0,0.0,0.0,0.0,0.0,0.0,0.0,0.0,0.0,0.0,0.0,0.0,0.0,0.0,0.0,0.0,0.0,0.0,0.0,0.0,0.0,0.0,0.0,0.0,0.0,0.0,0.0,0.0,0.0,0.0,0.0,0.0,0.0,0.0,0.0,0.0,0.0,0.0,0.0,0.0,0.0,0.0,0.0,0.0,0.0,0.0,0.0,0.0,0.0,0.0,0.0,0.0,0.0,0.0,0.0,0.0,0.0,0.0,0.0,0.0,0.0,0.0,0.0,0.0,0.0,0.0,0.0,0.0,0.0,0.0,0.0,0.0,0.0,0.0,0.0,0.0,0.0,0.0,0.0,0.0,0.0,0.0,0.0,0.0,0.0,0.0,0.0,0.0,0.0,0.0,0.0,0.0,0.0,0.0,0.0,0.0,0.0,0.0,0.0,0.0,0.0,0.0,0.0,0.0,0.0,0.0,0.0,0.0,0.0,0.0,0.0,0.0,0.0,0.0,0.0,0.0,0.0,0.0,0.0,0.0,0.0,0.0,0.0,0.0,0.0,0.0,0.0,0.0,0.0,0.0,0.0,0.0,0.0,0.0,0.0,0.0,0.0,0.0,0.0,0.0,0.0,0.0,0.0,0.0,0.0,0.0,0.0,0.0,0.0,0.0,0.0,0.0,0.0,0.0,0.0,0.0,0.0,0.0,0.0,0.0,0.0,0.0,0.0,0.0,0.0,0.0,0.0,0.0,0.0,0.0,0.0,0.0,0.0,0.0,0.0,0.0,0.0,0.0,0.0,0.0,0.0,0.0,0.0,0.0,0.0,0.0,0.0,0.0,0.0,0.0,0.0,0.0,0.0,0.0,0.0,0.0,0.0,0.0,0.0,0.0,0.0,0.0,0.0,0.0,0.0,0.0,0.0,0.0,0.0,0.0,0.0,0.0,0.0,0.0,0.0,0.0,0.0,0.0,0.0,0.0,0.0,0.0,0.0,0.0,0.0,0.0,0.0,0.0,0.0,0.0,0.0,0.0,0.0,0.0,0.0,0.0,0.0,0.0,0.0,0.0,0.0,0.0,0.0,0.0,0.0,0.0,0.0,0.0,0.0,0.0,0.0,0.0,0.0,0.0,0.0,0.0,0.0,0.0,0.0,0.0,0.0,0.0,0.0,0.0,0.0,0.0,0.0,0.0,0.0,0.0,0.0,0.0,0.0,0.0,0.0,0.0,0.0,0.0,0.0,0.0,0.0,0.0,0.0,0.0,0.0,0.0,0.0,0.0,0.0,0.0,0.0,0.0,0.0,0.0,0.0,0.0,0.0,0.0,0.0,0.0,0.0,0.0,0.0,0.0,0.0,0.0,0.0,0.0,0.0,0.0,0.0,0.0,0.0,0.0,0.0,0.0,0.0,0.0,0.0,0.0,0.0,0.0,0.0,0.0,0.0,0.0,0.0,0.0,0.0,0.0,0.0,0.0,0.0,0.0,0.0,0.0,0.0,0.0,0.0,0.0,0.0,0.0,0.0,0.0,0.0,0.0,0.0,0.0,0.0,0.0,0.0,0.0,0.0,0.0,0.0,0.0,0.0,0.0,0.0,0.0,0.0,0.0,0.0,0.0,0.0,0.0,0.0,0.0,0.0,0.0,0.0,0.0,0.0,0.0,0.0,0.0,0.0,0.0,0.0,0.0,0.0,0.0,0.0,0.0,0.0,0.0,0.0,0.0,0.0,0.0,0.0,0.0,0.0,0.0,0.0,0.0,0.0,0.0,0.0,0.0,0.0,0.0,0.0,0.0,0.0,0.0,0.0,0.0,0.0,0.0,0.0,0.0,0.0,0.0,0.0,0.0,0.0,0.0,0.0,0.0,0.0,0.0,0.0,0.0,0.0,0.0,0.0,0.0,0.0,0.0,0.0,0.0,0.0,0.0,0.0,0.0,0.0,0.0,0.0,0.0,0.0,0.0,0.0,0.0,0.0,0.0,0.0,0.0,0.0,0.0,0.0,0.0,0.0,0.0,0.0,0.0,0.0,0.0,0.0,0.0,0.0,0.0,0.0,0.0,0.0,0.0,0.0,0.0,0.0,0.0,0.0,0.0,0.0,0.0,0.0,0.0,0.0,0.0,0.0,0.0,0.0,0.0,0.0,0.0,0.0,0.0,0.0,0.0,0.0,0.0,0.0,0.0,0.0,0.0,0.0,0.0,0.0,0.0,0.0,0.0,0.0,0.0,0.0,0.0,0.0,0.0,0.0,0.0,0.0,0.0,0.0,0.0,0.0,0.0,0.0,0.0,0.0,0.0,0.0,0.0,0.0,0.0,0.0,0.0,0.0,0.0,0.0,0.0,0.0,0.0,0.0,0.0,0.0,0.0,0.0,0.0,0.0,0.0,0.0,0.0,0.0,0.0,0.0,0.0,0.0,0.0,0.0,0.0,0.0,0.0,0.0,0.0,0.0,0.0,0.0,0.0,0.0,0.0,0.0,0.0,0.0,0.0,0.0,0.0,0.0,0.0,0.0,0.0,0.0,0.0,0.0,0.0,0.0,0.0,0.0,0.0,0.0,0.0,0.0,0.0,0.0,0.0,0.0,0.0,0.0,0.0,0.0,0.0,0.0,0.0,0.0,0.0,0.0,0.0,0.0,0.0,0.0,0.0,0.0,0.0,0.0,0.0,0.0,0.0,0.0,0.0,0.0,0.0,0.0,0.0,0.0,0.0,0.0,0.0,0.0,0.0,0.0,0.0,0.0,0.0,0.0,0.0,0.0,0.0,0.0,0.0,0.0,0.0,0.0,0.0,0.0,0.0,0.0,0.0,0.0,0.0,0.0,0.0,0.0,0.0,0.0,0.0,0.0,0.0,0.0,0.0,0.0,0.0,0.0,0.0,0.0,0.0,0.0,0.0,0.0,0.0,0.0,0.0,0.0,0.0,0.0,0.0,0.0,0.0,0.0,0.0,0.0,0.0,0.0,0.0,0.0,0.0,0.0,0.0,0.0,0.0,0.0,0.0,0.0,0.0,0.0,0.0,0.0,0.0,0.0,0.0,0.0,0.0,0.0,0.0,0.0,0.0,0.0,0.0,0.0,0.0,0.0,0.0,0.0,0.0,0.0,0.0,0.0,0.0,0.0,0.0,0.0,0.0,0.0,0.0,0.0,0.0,0.0,0.0,0.0,0.0,0.0,0.0,0.0,0.0,0.0,0.0,0.0,0.0,0.0,0.0,0.0,0.0,0.0,0.0,0.0,0.0,0.0,0.0,0.0,0.0,0.0,0.0,0.0,0.0,0.0,0.0,0.0,0.0,0.0,0.0,0.0,0.0,0.0,0.0,0.0,0.0,0.0,0.0,0.0,0.0,0.0,0.0,0.0,0.0,0.0,0.0,0.0,0.0,0.0,0.0,0.0,0.0,0.0,0.0,0.0,0.0,0.0,0.0,0.0,0.0,0.0,0.0,0.0,0.0,0.0,0.0,0.0,0.0,0.0,0.0,0.0,0.0,0.0,0.0,0.0,0.0,0.0,0.0,0.0,0.0,0.0,0.0,0.0,0.0,0.0,0.0,0.0,0.0,0.0,0.0,0.0,0.0,0.0,0.0,0.0,0.0,0.0,0.0,0.0,0.0,0.0,0.0,0.0,0.0,0.0,0.0,0.0,0.0,0.0,0.0,0.0,0.0,0.0,0.0,0.0,0.0,0.0,0.0,0.0,0.0,0.0,0.0,0.0,0.0,0.0,0.0,0.0,0.0,0.0,0.0,0.0,0.0,0.0,0.0,0.0,0.0,0.0,0.0,0.0,0.0,0.0,0.0,0.0,0.0,0.0,0.0,0.0,0.0,0.0,0.0,0.0,0.0,0.0,0.0,0.0,0.0,0.0,0.0,0.0,0.0,0.0,0.0,0.0,0.0,0.0,0.0,0.0,0.0,0.0,0.0,0.0,0.0,0.0,0.0,0.0,0.0,0.0,0.0,0.0,0.0,0.0,0.0,0.0,0.0,0.0,0.0,0.0,0.0,0.0,0.0,0.0,0.0,0.0,0.0,0.0,0.0,0.0,0.0,0.0,0.0,0.0,-0.6235,0.0,0.0,0.0,0.0,0.0,0.0,0.0,0.0,0.0,0.0,0.0,0.0,0.0,0.0,0.0,0.0,0.0,0.0,0.0,0.0,0.0,0.0,0.0,0.0,0.0,0.0,0.0,0.0,0.0,0.0,0.0,0.0,0.0,0.0,0.0,0.0,0.0,0.0,0.0,0.0,0.0,0.0,0.0,0.0,0.0,0.0,0.0,0.0,0.0,0.0,0.0,0.0,0.0,0.0,0.0,0.0,0.0,0.0,0.0,0.0,0.0,0.0,0.0,0.0,0.0,0.0,0.0,0.0,0.0,0.0,0.0,0.0,0.0,0.0,0.0,0.0,0.0,0.0,0.0,0.0,0.0,0.0,0.0,0.0,0.0,0.0,0.0,0.0,0.0,0.0,0.0,0.0,0.0,0.0,0.0,0.0,0.0,0.0,0.0,0.0,0.0,0.0,0.0,0.0,0.0,0.0,0.0,0.0,0.0,0.0,-0.639,-0.6361,-0.649,-0.6352,-0.5913,0.0,0.0,0.0,0.0,0.0,0.0,0.0,0.0,0.0,0.0,0.0,0.0,0.0,0.0,0.0,0.0,0.0,0.0,0.0,0.0,0.0,0.0,0.0,0.0,0.0,0.0,0.0,0.0,0.0,0.0,0.0,0.0,0.0,0.0,0.0,0.0,0.0,0.0,0.0,0.0,0.0,0.0,0.0,0.0,0.0,0.0,0.0,0.0,0.0,0.0,0.0,0.0,0.0,0.0,0.0,0.0,0.0,0.0,0.0,0.0,0.0,0.0,0.0,0.0,0.0,0.0,0.0,0.0,0.0,0.0,0.0,0.0,0.0,0.0,0.0,0.0,0.0,0.0,0.0,0.0,0.0,0.0,0.0,0.0,0.0,0.0,0.0,0.0,0.0,0.0,0.0,0.0,0.0,0.0,0.0,0.0,0.0,0.0,0.0,0.0,0.0,0.0,0.0,0.0,0.0,0.0,0.0,0.0,0.0,0.0,0.0,0.0,-0.6482,-0.5998,-0.5085,0.0,0.0,0.0,0.0,0.0,0.0,0.0,0.0,0.0,0.0,0.0,0.0,0.0,0.0,0.0,0.0,0.0,0.0,0.0,0.0,0.0,0.0,0.0,0.0,0.0,0.0,0.0,0.0,0.0,0.0,0.0,0.0,0.0,0.0,0.0,0.0,0.0,0.0,0.0,0.0,0.0,0.0,0.0,0.0,0.0,0.0,0.0,0.0,0.0,0.0,0.0,0.0,0.0,0.0,0.0,0.0,0.0,0.0,0.0,0.0,0.0,0.0,0.0,0.0,0.0,0.0,0.0,0.0,0.0,0.0,0.0,0.0,0.0,0.0,0.0,0.0,0.0,0.0,0.0,0.0,0.0,0.0,0.0,0.0,0.0,0.0,0.0,0.0,0.0,0.0,0.0,0.0,0.0,0.0,0.0,0.0,0.0,0.0,0.0,0.0,0.0,0.0,0.0,0.0,0.0,0.0,0.0,0.0,0.0,0.0,-0.6584,-0.6867,-0.6374,0.0,-0.3542,0.0,0.0,0.0,0.0,0.0,0.0,0.0,0.0,0.0,0.0,0.0,0.0,0.0,0.0,0.0,0.0,0.0,0.0,0.0,0.0,0.0,0.0,0.0,0.0,0.0,0.0,0.0,0.0,0.0,0.0,0.0,0.0,0.0,0.0,0.0,0.0,0.0,0.0,0.0,0.0,0.0,0.0,0.0,0.0,0.0,0.0,0.0,0.0,0.0,0.0,0.0,0.0,0.0,0.0,0.0,0.0,0.0,0.0,0.0,0.0,0.0,0.0,0.0,0.0,0.0,0.0,0.0,0.0,0.0,0.0,0.0,0.0,0.0,0.0,0.0,0.0,0.0,0.0,0.0,0.0,0.0,0.0,0.0,0.0,0.0,0.0,0.0,0.0,0.0,0.0,0.0,0.0,0.0,0.0,0.0,0.0,0.0,0.0,0.0,0.0,0.0,0.0,0.0,0.0,0.0,0.0,0.0,0.0,0.0,0.0,-0.6545,-0.7064,-0.5455,-0.3682,0.0,0.0,0.0,0.0,0.0,0.0,0.0,0.0,0.0,0.0,0.0,0.0,0.0,0.0,0.0,0.0,0.0,0.0,0.0,0.0,0.0,0.0,0.0,0.0,0.0,0.0,0.0,0.0,0.0,0.0,0.0,0.0,0.0,0.0,0.0,0.0,0.0,0.0,0.0,0.0,0.0,0.0,0.0,0.0,0.0,0.0,0.0,0.0,0.0,0.0,0.0,0.0,0.0,0.0,0.0,0.0,0.0,0.0,0.0,0.0,0.0,0.0,0.0,0.0,0.0,0.0,0.0,0.0,0.0,0.0,0.0,0.0,0.0,0.0,0.0,0.0,0.0,0.0,0.0,0.0,0.0,0.0,0.0,0.0,0.0,0.0,0.0,0.0,0.0,0.0,0.0,0.0,0.0,0.0,0.0,0.0,0.0,0.0,0.0,0.0,0.0,0.0,0.0,0.0,0.0,0.0,0.0,0.0,0.0,0.0,-0.612,-0.6341,-0.652,-0.4422,-0.245,-0.0928,0.0,0.0,0.0,0.0,0.0,0.0,0.0,0.0,0.0,0.0,0.0,0.0,0.0,0.0,0.0,0.0,0.0,0.0,0.0,0.0,0.0,0.0,0.0,0.0,0.0,0.0,0.0,0.0,0.0,0.0,0.0,0.0,0.0,0.0,0.0,0.0,0.0,0.0,0.0,0.0,0.0,0.0,0.0,0.0,0.0,0.0,0.0,0.0,0.0,0.0,0.0,0.0,0.0,0.0,0.0,0.0,0.0,0.0,0.0,0.0,0.0,0.0,0.0,0.0,0.0,0.0,0.0,0.0,0.0,0.0,0.0,0.0,0.0,0.0,0.0,0.0,0.0,0.0,0.0,0.0,0.0,0.0,0.0,0.0,0.0,0.0,0.0,0.0,0.0,0.0,0.0,0.0,0.0,0.0,0.0,0.0,0.0,0.0,0.0,0.0,0.0,0.0,0.0,0.0,0.0,0.0,0.0,0.0,-0.6244,-0.6213,-0.5895,-0.5317,-0.3435,-0.2082,0.0,0.0,0.0,0.0,0.0,0.0,0.0,0.0,0.0,0.0,0.0,0.0,0.0,0.0,0.0,0.0,0.0,0.0,0.0,0.0,0.0,0.0,0.0,0.0,0.0,0.0,0.0,0.0,0.0,0.0,0.0,0.0,0.0,0.0,0.0,0.0,0.0,0.0,0.0,0.0,0.0,0.0,0.0,0.0,0.0,0.0,0.0,0.0,0.0,0.0,0.0,0.0,0.0,0.0,0.0,0.0,0.0,0.0,0.0,0.0,0.0,0.0,0.0,0.0,0.0,0.0,0.0,0.0,0.0,0.0,0.0,0.0,0.0,0.0,0.0,0.0,0.0,0.0,0.0,0.0,0.0,0.0,0.0,0.0,0.0,0.0,0.0,0.0,0.0,0.0,0.0,0.0,0.0,0.0,0.0,0.0,0.0,0.0,0.0,0.0,0.0,0.0,0.0,0.0,0.0,0.0,0.0,0.0,0.0,-0.6107,-0.6178,-0.5938,-0.5383,-0.3992,-0.2659,0.0,0.0,0.0,0.0,0.0,0.0,0.0,0.0,0.0,0.0,0.0,0.0,0.0,0.0,0.0,0.0,0.0,0.0,0.0,0.0,0.0,0.0,0.0,0.0,0.0,0.0,0.0,0.0,0.0,0.0,0.0,0.0,0.0,0.0,0.0,0.0,0.0,0.0,0.0,0.0,0.0,0.0,0.0,0.0,0.0,0.0,0.0,0.0,0.0,0.0,0.0,0.0,0.0,0.0,0.0,0.0,0.0,0.0,0.0,0.0,0.0,0.0,0.0,0.0,0.0,0.0,0.0,0.0,0.0,0.0,0.0,0.0,0.0,0.0,0.0,0.0,0.0,0.0,0.0,0.0,0.0,0.0,0.0,0.0,0.0,0.0,0.0,0.0,0.0,0.0,0.0,0.0,0.0,0.0,0.0,0.0,0.0,0.0,0.0,0.0,0.0,0.0,0.0,0.0,0.0,0.0,0.0,0.0,0.0,-0.6055,0.0,-0.5615,-0.5023,-0.3876,-0.2811,0.0,0.0,0.0,0.0,0.0,0.0,0.0,0.0,0.0,0.0,0.0,0.0,0.0,0.0,0.0,0.0,0.0,0.0,0.0,0.0,0.0,0.0,0.0,0.0,0.0,0.0,0.0,0.0,0.0,0.0,0.0,0.0,0.0,0.0,0.0,0.0,0.0,0.0,0.0,0.0,0.0,0.0,0.0,0.0,0.0,0.0,0.0,0.0,0.0,0.0,0.0,0.0,0.0,0.0,0.0,0.0,0.0,0.0,0.0,0.0,0.0,0.0,0.0,0.0,0.0,0.0,0.0,0.0,0.0,0.0,0.0,0.0,0.0,0.0,0.0,0.0,0.0,0.0,0.0,0.0,0.0,0.0,0.0,0.0,0.0,0.0,0.0,0.0,0.0,0.0,0.0,0.0,0.0,0.0,0.0,0.0,0.0,0.0,0.0,0.0,0.0,0.0,0.0,0.0,0.0,0.0,0.0,0.0,-0.6063,-0.6165,-0.5624,-0.4937,-0.4114,-0.3017,-0.2458,0.0,0.0,0.0,0.0,0.0,0.0,0.0,0.0,0.0,0.0,0.0,0.0,0.0,0.0,0.0,0.0,0.0,0.0,0.0,0.0,0.0,0.0,0.0,0.0,0.0,0.0,0.0,0.0,0.0,0.0,0.0,0.0,0.0,0.0,0.0,0.0,0.0,0.0,0.0,0.0,0.0,0.0,0.0,0.0,0.0,0.0,0.0,0.0,0.0,0.0,0.0,0.0,0.0,0.0,0.0,0.0,0.0,0.0,0.0,0.0,0.0,0.0,0.0,0.0,0.0,0.0,0.0,0.0,0.0,0.0,0.0,0.0,0.0,0.0,0.0,0.0,0.0,0.0,0.0,0.0,0.0,0.0,0.0,0.0,0.0,0.0,0.0,0.0,0.0,0.0,0.0,0.0,0.0,0.0,0.0,0.0,0.0,0.0,0.0,0.0,0.0,0.0,0.0,0.0,0.0,0.0,0.0,0.0,0.0,-0.6183,-0.565,-0.4647,-0.3239,-0.3673,-0.3655,0.0,0.0,0.0,0.0,0.0,0.0,0.0,0.0,0.0,0.0,0.0,0.0,0.0,0.0,0.0,0.0,0.0,0.0,0.0,0.0,0.0,0.0,0.0,0.0,0.0,0.0,0.0,0.0,0.0,0.0,0.0,0.0,0.0,0.0,0.0,0.0,0.0,0.0,0.0,0.0,0.0,0.0,0.0,0.0,0.0,0.0,0.0,0.0,0.0,0.0,0.0,0.0,0.0,0.0,0.0,0.0,0.0,0.0,0.0,0.0,0.0,0.0,0.0,0.0,0.0,0.0,0.0,0.0,0.0,0.0,0.0,0.0,0.0,0.0,0.0,0.0,0.0,0.0,0.0,0.0,0.0,0.0,0.0,0.0,0.0,0.0,0.0,0.0,0.0,0.0,0.0,0.0,0.0,0.0,0.0,0.0,0.0,0.0,0.0,0.0,0.0,0.0,0.0,0.0,0.0,0.0,0.0,0.0,0.0,-0.5069,-0.451,-0.3555,-0.2197,-0.3203,-0.3906,-0.4264,0.0,0.0,0.0,0.0,0.0,0.0,0.0,0.0,0.0,0.0,0.0,0.0,0.0,0.0,0.0,0.0,0.0,0.0,0.0,0.0,0.0,0.0,0.0,0.0,0.0,0.0,0.0,0.0,0.0,0.0,0.0,0.0,0.0,0.0,0.0,0.0,0.0,0.0,0.0,0.0,0.0,0.0,0.0,0.0,0.0,0.0,0.0,0.0,0.0,0.0,0.0,0.0,0.0,0.0,0.0,0.0,0.0,0.0,0.0,0.0,0.0,0.0,0.0,0.0,0.0,0.0,0.0,0.0,0.0,0.0,0.0,0.0,0.0,0.0,0.0,0.0,0.0,0.0,0.0,0.0,0.0,0.0,0.0,0.0,0.0,0.0,0.0,0.0,0.0,0.0,0.0,0.0,0.0,0.0,0.0,0.0,0.0,0.0,0.0,0.0,0.0,0.0,0.0,0.0,0.0,0.0,0.0,0.0,-0.3003,-0.229,-0.1591,-0.1,-0.1767,-0.3286,0.0,0.0,0.0,0.0,0.0,0.0,0.0,0.0,0.0,0.0,0.0,0.0,0.0,0.0,0.0,0.0,0.0,0.0,0.0,0.0,0.0,0.0,0.0,0.0,0.0,0.0,0.0,0.0,0.0,0.0,0.0,0.0,0.0,0.0,0.0,0.0,0.0,0.0,0.0,0.0,0.0,0.0,0.0,0.0,0.0,0.0,0.0,0.0,0.0,0.0,0.0,0.0,0.0,0.0,0.0,0.0,0.0,0.0,0.0,0.0,0.0,0.0,0.0,0.0,0.0,0.0,0.0,0.0,0.0,0.0,0.0,0.0,0.0,0.0,0.0,0.0,0.0,0.0,0.0,0.0,0.0,0.0,0.0,0.0,0.0,0.0,0.0,0.0,0.0,0.0,0.0,0.0,0.0,0.0,0.0,0.0,0.0,0.0,0.0,0.0,0.0,0.0,0.0,0.0,0.0,0.0,0.0,0.0,0.0,-0.0728,0.0959,0.2124,0.2583,-0.1048,-0.292,0.0,0.0,0.0,0.0,0.0,0.0,0.0,0.0,0.0,0.0,0.0,0.0,0.0,0.0,0.0,0.0,0.0,0.0,0.0,0.0,0.0,0.0,0.0,0.0,0.0,0.0,0.0,0.0,0.0,0.0,0.0,0.0,0.0,0.0,0.0,0.0,0.0,0.0,0.0,0.0,0.0,0.0,0.0,0.0,0.0,0.0,0.0,0.0,0.0,0.0,0.0,0.0,0.0,0.0,0.0,0.0,0.0,0.0,0.0,0.0,0.0,0.0,0.0,0.0,0.0,0.0,0.0,0.0,0.0,0.0,0.0,0.0,0.0,0.0,0.0,0.0,0.0,0.0,0.0,0.0,0.0,0.0,0.0,0.0,0.0,0.0,0.0,0.0,0.0,0.0,0.0,0.0,0.0,0.0,0.0,0.0,0.0,0.0,0.0,0.0,0.0,0.0,0.0,0.0,0.0,0.0,0.0,0.0,-0.1651,0.0021,0.2982,0.4699,0.5084,-0.0107,-0.3108,0.0,0.0,0.0,0.0,0.0,0.0,0.0,0.0,0.0,0.0,0.0,0.0,0.0,0.0,0.0,0.0,0.0,0.0,0.0,0.0,0.0,0.0,0.0,0.0,0.0,0.0,0.0,0.0,0.0,0.0,0.0,0.0,0.0,0.0,0.0,0.0,0.0,0.0,0.0,0.0,0.0,0.0,0.0,0.0,0.0,0.0,0.0,0.0,0.0,0.0,0.0,0.0,0.0,0.0,0.0,0.0,0.0,0.0,0.0,0.0,0.0,0.0,0.0,0.0,0.0,0.0,0.0,0.0,0.0,0.0,0.0,0.0,0.0,0.0,0.0,0.0,0.0,0.0,0.0,0.0,0.0,0.0,0.0,0.0,0.0,0.0,0.0,0.0,0.0,0.0,0.0,0.0,0.0,0.0,0.0,0.0,0.0,0.0,0.0,0.0,0.0,0.0,0.0,0.0,0.0,0.0,0.0,0.0,-0.0579,-0.0172,0.3878,0.6138,0.6212,0.0651,-0.3486,0.0,0.0,0.0,0.0,0.0,0.0,0.0,0.0,0.0,0.0,0.0,0.0,0.0,0.0,0.0,0.0,0.0,0.0,0.0,0.0,0.0,0.0,0.0,0.0,0.0,0.0,0.0,0.0,0.0,0.0,0.0,0.0,0.0,0.0,0.0,0.0,0.0,0.0,0.0,0.0,0.0,0.0,0.0,0.0,0.0,0.0,0.0,0.0,0.0,0.0,0.0,0.0,0.0,0.0,0.0,0.0,0.0,0.0,0.0,0.0,0.0,0.0,0.0,0.0,0.0,0.0,0.0,0.0,0.0,0.0,0.0,0.0,0.0,0.0,0.0,0.0,0.0,0.0,0.0,0.0,0.0,0.0,0.0,0.0,0.0,0.0,0.0,0.0,0.0,0.0,0.0,0.0,0.0,0.0,0.0,0.0,0.0,0.0,0.0,0.0,0.0,0.0,0.0,0.0,0.0,0.0,0.0,0.0,-0.0812,-0.0166,0.3173,0.5157,0.5596,-0.0183,-0.35,0.0,0.0,0.0,0.0,0.0,0.0,0.0,0.0,0.0,0.0,0.0,0.0,0.0,0.0,0.0,0.0,0.0,0.0,0.0,0.0,0.0,0.0,0.0,0.0,0.0,0.0,0.0,0.0,0.0,0.0,0.0,0.0,0.0,0.0,0.0,0.0,0.0,0.0,0.0,0.0,0.0,0.0,0.0,0.0,0.0,0.0,0.0,0.0,0.1035,0.0,0.0,0.0,0.0,0.0,0.0,0.0,0.0,0.0,0.0,0.0,0.0,0.0,0.0,0.0,0.0,0.0,0.0,0.0,0.0,0.0,0.0,0.0,0.0,0.0,0.0,0.0,0.0,0.0,0.0,0.0,0.0,0.0,0.0,0.0,0.0,0.0,0.0,0.0,0.0,0.0,0.0,0.0,0.0,0.0,0.0,0.0,0.0,0.0,0.0,0.0,0.0,0.0,0.0,0.0,0.0,0.0,0.0,0.0,-0.0591,0.0473,0.2988,0.4527,0.4776,-0.0867,-0.4008,0.0,0.0,0.0,0.0,0.0,0.0,0.0,0.0,0.0,0.0,0.0,0.0,0.0,0.0,0.0,0.0,0.0,0.0,0.0,0.0,0.0,0.0,0.0,0.0,0.0,0.0,0.0,0.0,0.0,0.0,0.0,0.0,0.0,0.0,0.0,0.0,0.0,0.0,0.0,0.0,0.0,0.0,0.0,0.0,0.0,0.0,0.0,0.0,0.0,0.0,0.0,0.0,0.0,0.0,0.0,0.0,0.0,0.0,0.0,0.0,0.0,0.0,0.0,0.0,0.0,0.0,0.0,0.0,0.0,0.0,0.0,0.0,0.0,0.0,0.0,0.0,0.0,0.0,0.0,0.0,0.0,0.0,0.0,0.0,0.0,0.0,0.0,0.0,0.0,0.0,0.0,0.0,0.0,0.0,0.0,0.0,0.0,0.0,0.0,0.0,0.0,0.0,0.0,0.0,0.0,0.0,0.0,-0.2134,-0.0223,0.1233,0.3018,0.413,0.4421,-0.0788,-0.398,-0.467,0.0,0.0,0.0,0.0,0.0,0.0,0.0,0.0,0.0,0.0,0.0,0.0,0.0,0.0,0.0,0.0,0.0,0.0,0.0,0.0,0.0,0.0,0.0,0.0,0.0,0.0,0.0,0.0,0.0,0.0,0.0,0.0,0.0,0.0,0.0,0.0,0.0,0.0,-0.1888,-0.222,0.0,0.0,0.0,0.0,0.0,0.0,0.0,0.0,-0.0264,0.0,0.0,0.0,0.0,0.0,0.0,0.0,0.0,0.0,0.0,0.0,0.0,0.0,0.0,0.0,0.0,0.0,0.0,0.0,0.0,0.0,0.0,0.0,0.0,0.0,0.0,0.0,0.0,0.0,0.0,0.0,0.0,0.0,0.0,0.0,0.0,0.0,0.0,0.0,0.0,0.0,0.0,0.0,0.0,0.0,0.0,0.0,0.0,0.0,0.0,0.0,0.0,0.0,0.0,0.0,0.0,-0.3771,-0.1655,0.0076,0.1443,0.2948,0.385,0.4006,0.1491,-0.1257,-0.4236,0.0,0.0,0.0,0.0,0.0,0.0,0.0,0.0,0.0,0.0,0.0,0.0,0.0,0.0,0.0,0.0,0.0,0.0,0.0,0.0,0.0,0.0,0.0,0.0,0.0,0.0,0.0,0.0,0.0,0.0,0.0,0.0,0.0,0.0,0.0,0.0,0.0,0.0,0.0,-0.4311,-0.4378,0.0,0.0,0.0,0.0,0.0,0.0,0.0,0.0,-0.0116,0.0,0.0,0.0,0.0,0.0,0.0,0.0,0.0,0.0,0.0,0.0,0.0,0.0,0.0,0.0,0.0,0.0,0.0,0.0,0.0,0.0,0.0,0.0,0.0,0.0,0.0,0.0,0.0,0.0,0.0,0.0,0.0,0.0,0.0,0.0,0.0,0.0,0.0,0.0,0.0,0.0,0.0,0.0,0.0,0.0,0.0,0.0,0.0,0.0,0.0,0.0,0.0,0.0,0.0,0.0,-0.2717,-0.0805,0.094,0.2545,0.3283,0.3785,0.4005,0.0478,-0.2122,0.0,0.0,0.0,0.0,0.0,0.0,0.0,0.0,0.0,0.0,0.0,0.0,0.0,0.0,0.0,0.0,0.0,0.0,0.0,0.0,0.0,0.0,0.0,0.0,0.0,0.0,0.0,0.0,0.0,0.0,0.0,0.0,0.0,0.0,0.0,0.0,0.0,0.0,0.0,0.0,-0.5787,-0.5783,-0.6678,0.0,0.0,0.0,0.0,0.0,0.0,-0.2202,-0.0772,0.0,0.0,0.0,0.0,0.0,0.0,0.0,0.0,0.0,0.0,0.0,0.0,0.0,0.0,0.0,0.0,0.0,0.0,0.0,0.0,0.0,0.0,0.0,0.0,0.0,0.0,0.0,0.0,0.0,0.0,0.0,0.0,0.0,0.0,0.0,0.0,0.0,0.0,0.0,0.0,0.0,0.0,0.0,0.0,0.0,0.0,0.0,0.0,0.0,0.0,0.0,0.0,0.0,0.0,0.0,-0.1736,0.0112,0.1886,0.3614,0.3715,0.3846,0.412,-0.0252,-0.2672,0.0,0.0,0.0,0.0,0.0,0.0,0.0,0.0,0.0,0.0,0.0,0.0,0.0,0.0,0.0,0.0,0.0,0.0,0.0,0.0,0.0,0.0,0.0,0.0,0.0,0.0,0.0,0.0,0.0,0.0,0.0,0.0,0.0,0.0,0.0,0.0,0.0,0.0,0.0,0.0,0.0,-0.7239,-0.821,-0.8732,0.0,0.0,0.0,0.0,-0.4745,-0.2792,0.0,0.0,0.0,0.0,0.0,0.0,0.0,0.0,0.0,0.0,0.0,0.0,0.0,0.0,0.0,0.0,0.0,0.0,0.0,0.0,0.0,0.0,0.0,0.0,0.0,0.0,0.0,0.0,0.0,0.0,0.0,0.0,0.0,0.0,0.0,0.0,0.0,0.0,0.0,0.0,0.0,0.0,0.0,0.0,0.0,0.0,0.0,0.0,0.0,0.0,0.0,0.0,0.0,0.0,0.0,0.0,-0.106,0.083,0.2544,0.4035,0.408,0.4114,0.4254,0.2243,0.0117,0.0,0.0,0.0,0.0,0.0,0.0,0.0,0.0,0.0,0.0,0.0,0.0,0.0,0.0,0.0,0.0,0.0,0.0,0.0,0.0,0.0,0.0,0.0,0.0,0.0,0.0,0.0,0.0,0.0,0.0,0.0,0.0,0.0,0.0,0.0,0.0,0.0,0.0,0.0,0.0,0.0,-0.8789,-0.9489,-1.0076,-1.0126,0.0,0.0,-0.7007,-0.5439,-0.3096,0.0,0.0,0.0,0.0,0.0,0.0,0.0,0.0,0.0,0.0,0.0,0.0,0.0,0.0,0.0,0.0,0.0,0.0,0.0,0.0,0.0,0.0,0.0,0.0,0.0,0.0,0.0,0.0,0.0,0.0,0.0,0.0,0.0,0.0,0.0,0.0,0.0,0.0,0.0,0.0,0.0,0.0,0.0,0.0,0.0,0.0,0.0,0.0,0.0,0.0,0.0,0.0,0.0,0.0,0.0,-0.3172,-0.0948,0.1436,0.3315,0.4648,0.4442,0.4421,0.4609,0.2526,0.0367,0.0,0.0,0.0,0.0,0.0,0.0,0.0,0.0,0.0,0.0,0.0,0.0,0.0,0.0,0.0,0.0,0.0,0.0,0.0,0.0,0.0,0.0,0.0,0.0,0.0,0.0,0.0,0.0,0.0,0.0,0.0,0.0,0.0,0.0,0.0,0.0,0.0,0.0,0.0,0.0,0.0,0.0,-1.1046,-1.1394,0.0,0.0,0.0,-0.6947,-0.4861,0.0,0.0,0.0,0.0,0.0,0.0,0.0,0.0,0.0,0.0,0.0,0.0,0.0,0.0,0.0,0.0,0.0,0.0,0.0,0.0,0.0,0.0,0.0,0.0,0.0,0.0,0.0,0.0,0.0,0.0,0.0,0.0,0.0,0.0,0.0,0.0,0.0,0.0,0.0,0.0,0.0,0.0,0.0,0.0,0.0,0.0,0.0,0.0,0.0,0.0,0.0,0.0,0.0,0.0,0.0,0.0,0.0,-0.095,0.1817,0.3823,0.494,0.4702,0.4591,0.4743,0.2318,0.0,0.0,0.0,0.0,0.0,0.0,0.0,0.0,0.0,0.0,0.0,0.0,0.0,0.0,0.0,0.0,0.0,0.0,0.0,0.0,0.0,0.0,0.0,0.0,0.0,0.0,0.0,-0.7139,0.0,0.0,0.0,0.0,0.0,0.0,0.0,0.0,0.0,0.0,0.0,0.0,0.0,0.0,-1.1599,-1.2429,-1.2341,-1.165,0.0,0.0,-0.6547,-0.4105,-0.2123,-0.0427,0.0,0.0,0.0,0.0,0.0,0.0,0.0,0.0,0.0,0.0,0.0,0.0,0.0,0.0,0.0,0.0,0.0,0.0,0.0,0.0,0.0,0.0,0.0,0.0,0.0,0.0,0.0,0.0,0.0,0.0,0.0,0.0,0.0,0.0,0.0,0.0,0.0,0.0,0.0,0.0,0.0,0.0,0.0,0.0,0.0,0.0,0.0,0.0,0.0,0.0,0.0,0.0,0.0,0.0,0.0,-0.079,0.1963,0.3854,0.4783,0.4686,0.4575,0.4481,0.2064,-0.0195,0.0,0.0,0.0,0.0,0.0,0.0,0.0,0.0,0.0,0.0,0.0,0.0,0.0,0.0,0.0,0.0,0.0,0.0,0.0,0.0,0.0,0.0,0.0,0.0,0.0,0.0,0.0,0.0,0.0,0.0,0.0,0.0,0.0,0.0,0.0,0.0,0.0,0.0,0.0,0.0,0.0,-1.3058,-1.3368,-1.2656,-1.1463,0.0,0.0,-0.597,-0.3346,-0.1542,0.0166,0.2055,0.0,0.0,0.0,0.0,0.0,0.0,0.0,0.0,0.0,0.0,0.0,0.0,0.0,0.0,0.0,0.0,0.0,0.0,0.0,0.0,0.0,0.0,0.0,0.0,0.0,0.0,0.0,0.0,0.0,0.0,0.0,0.0,0.0,0.0,0.0,0.0,0.0,0.0,0.0,0.0,0.0,0.0,0.0,0.0,0.0,0.0,0.0,0.0,0.0,0.0,0.0,0.0,0.0,-0.2468,-0.0613,0.2096,0.4012,0.5001,0.4768,0.4515,0.4382,0.3548,0.2033,0.0,0.0,0.0,0.0,0.0,0.0,0.0,0.0,0.0,0.0,0.0,0.0,0.0,0.0,0.0,0.0,0.0,0.0,0.0,0.0,0.0,0.0,0.0,0.0,0.0,0.0,0.0,0.0,-1.0228,-1.0025,-1.0084,0.0,0.0,0.0,0.0,0.0,0.0,0.0,0.0,0.0,0.0,-1.4754,-1.4239,-1.291,0.0,0.0,-0.6902,-0.462,-0.2272,-0.0667,0.078,0.2181,0.2449,0.0,0.0,0.0,0.0,0.0,0.0,0.0,0.0,0.0,0.0,0.0,0.0,0.0,0.0,0.0,0.0,0.0,0.0,0.0,0.0,0.0,0.0,0.0,0.0,0.0,0.0,0.0,0.0,0.0,0.0,0.0,0.0,0.0,0.0,0.0,0.0,0.0,0.0,0.0,0.0,0.0,0.0,0.0,0.0,0.0,0.0,0.0,0.0,0.0,0.0,0.0,0.0,-0.2307,-0.0546,0.2223,0.4089,0.5013,0.4766,0.4475,0.4193,0.4379,0.3328,0.0,0.0,0.0,0.0,0.0,0.0,0.0,0.0,0.0,0.0,0.0,0.0,0.0,0.0,0.0,0.0,0.0,0.0,0.0,0.0,0.0,0.0,0.0,0.0,0.0,0.0,0.0,0.0,-1.1364,-1.1053,-1.1629,0.0,0.0,0.0,0.0,0.0,0.0,0.0,0.0,0.0,0.0,-1.6332,-1.5176,-1.3261,-1.1036,-0.8637,-0.6231,-0.3871,-0.1724,-0.0334,0.0894,0.1959,0.0,0.0,0.0,0.0,0.0,0.0,0.0,0.0,0.0,0.0,0.0,0.0,0.0,0.0,0.0,0.0,0.0,0.0,0.0,0.0,0.0,0.0,0.0,0.0,0.0,0.0,0.0,0.0,0.0,0.0,-0.3548,0.0,0.0,0.0,0.0,0.0,0.0,0.0,0.0,0.0,0.0,0.0,0.0,0.0,0.0,0.0,0.0,0.0,0.0,0.0,0.0,0.0,0.0,-0.207,-0.0592,0.2238,0.3999,0.46,0.4661,0.4443,0.3954,0.4181,0.2992,0.0255,0.0,0.0,0.0,0.0,0.0,0.0,0.0,0.0,0.0,0.0,0.0,0.0,0.0,0.0,0.0,0.0,0.0,0.0,0.0,0.0,0.0,0.0,0.0,0.0,0.0,0.0,-1.3574,-1.2712,-1.2528,0.0,0.0,0.0,0.0,0.0,0.0,0.0,0.0,0.0,0.0,-1.8708,-1.7725,-1.6271,-1.3742,-1.1077,-0.8463,-0.6152,-0.3993,-0.195,-0.0726,0.0391,0.0,0.0,0.0,0.0,0.0,0.0,0.0,0.0,0.0,0.0,0.0,0.0,0.0,0.0,0.0,0.0,0.0,0.0,0.0,0.0,0.0,0.0,0.0,0.0,0.0,0.0,0.0,0.1216,-0.0154,0.0,0.0,0.0,0.0,0.0,0.0,0.0,0.0,0.0,0.0,0.0,-0.4102,-0.407,0.0,0.0,0.0,0.0,0.0,0.0,0.0,0.0,0.0,0.0,0.0,0.0,-0.1698,-0.0105,0.2512,0.4155,0.4671,0.4731,0.4478,0.3919,0.3862,0.2876,0.0841,0.0,0.0,0.0,0.0,0.0,0.0,0.0,0.0,0.0,0.0,0.0,0.0,0.0,0.0,0.0,0.0,0.0,0.0,0.0,0.0,0.0,0.0,0.0,0.0,0.0,-1.4857,0.0,0.0,0.0,0.0,0.0,0.0,0.0,0.0,0.0,0.0,0.0,-2.0654,-2.1011,-2.0383,-1.9183,-1.7193,-1.4526,-1.1838,0.0,0.0,0.0,0.0,0.0,0.0,0.0,0.0,0.0,0.0,0.0,0.0,0.0,0.0,1.3608,1.294,1.2685,1.3372,1.5868,0.0,0.0,0.0,0.0,0.0,0.0,0.0,0.0,0.0,0.0,0.0,0.0,0.0,0.0,0.0,0.0,0.1359,0.0,0.0,0.0,0.0,0.0,0.0,0.0,0.0,-0.3303,-0.2821,-0.2466,-0.2389,-0.2443,0.0,-0.3558,-0.4777,0.0,0.0,0.0,0.0,0.0,0.0,0.0,0.0,-0.1003,0.0735,0.325,0.4744,0.5115,0.511,0.4752,0.4072,0.3807,0.3457,0.2973,0.254,0.1263,0.0,0.0,0.0,0.0,0.0,0.0,0.0,0.0,0.0,0.0,0.0,0.0,0.0,0.0,0.0,0.0,0.0,0.0,0.0,0.0,0.0,0.0,0.0,-1.4363,0.0,0.0,0.0,0.0,0.0,0.0,0.0,0.0,0.0,-2.2042,-2.2326,-2.2537,-2.2575,-2.1685,-2.0257,-1.8138,0.0,0.0,0.0,0.0,0.0,0.0,0.0,-0.1645,-0.012,0.1223,0.3047,0.6075,0.9642,1.2785,1.5065,0.0,0.0,1.5409,1.4993,1.5457,1.7564,1.769,1.7387,1.723,1.7144,1.7178,0.0,0.0,0.0,0.0,0.0,0.0,0.0,0.0,0.524,0.5206,0.0,0.4152,0.0,0.0,0.0,0.0,0.0,-0.3261,0.0,0.0,-0.1515,-0.1256,-0.1198,-0.129,-0.1539,-0.188,-0.2216,-0.2551,-0.2955,-0.583,0.0,0.0,0.0,0.0,0.0,0.0,0.0069,0.1929,0.438,0.5688,0.5885,0.5711,0.524,0.4397,0.4009,0.4613,0.6147,0.357,0.2195,0.249,-0.1668,0.0,0.0,0.0,0.0,0.0,0.0,0.0,0.0,0.0,0.0,0.0,0.0,0.0,0.0,0.0,0.0,0.0,0.0,0.0,0.0,-1.3821,0.0,0.0,0.0,0.0,0.0,0.0,0.0,0.0,0.0,0.0,-2.2936,-2.3404,-2.3856,-2.3878,0.0,0.0,0.0,0.0,-1.5336,-1.2922,-1.0864,-0.8673,-0.6193,-0.4267,-0.2461,-0.0677,0.0,0.0,0.9972,1.3025,1.5462,1.7641,1.8831,1.9168,1.7703,1.7339,1.7468,1.8286,1.9559,2.0053,1.8643,1.8199,1.8142,0.675,0.0,0.0,0.0,0.0,0.5663,0.6044,0.6463,0.7322,0.7075,0.6131,0.6164,0.0,0.0,0.0,0.0,0.0,0.0,-0.045,0.0065,0.0587,0.0919,0.112,0.1189,0.1056,0.079,0.0854,0.0098,-0.147,-0.3164,-0.4295,-0.4864,0.0,0.0,0.0,0.0,0.1132,0.2957,0.5043,0.6201,0.6402,0.6253,0.5498,0.4061,0.4303,0.4499,0.4644,0.4529,0.3871,0.2649,0.1499,0.0,0.0,0.0,0.0,0.0,0.0,0.0,0.0,0.0,0.0,0.0,0.0,0.0,0.0,0.0,0.0,0.0,0.0,0.0,-1.1873,-1.3018,-1.4527,0.0,0.0,0.0,0.0,0.0,0.0,0.0,0.0,0.0,-2.3701,-2.4226,-2.4466,0.0,0.0,-2.1849,-2.0858,-1.9251,-1.7567,-1.5953,0.0,0.0,0.0,-0.469,-0.2262,0.0509,0.4339,0.8357,1.2077,1.4754,1.706,1.8943,2.0016,2.0515,2.0276,1.9898,1.97,2.0064,2.0718,2.0935,2.0106,1.9808,1.961,0.8001,0.7102,0.675,0.6542,0.655,0.6839,0.7273,0.7768,0.8685,0.8727,0.8184,0.873,0.7475,0.4909,0.3242,0.0,0.0,0.0,0.156,0.1935,0.2246,0.2461,0.2504,0.2411,0.2284,0.2014,0.135,0.079,0.0268,-0.2429,-0.3581,-0.3431,0.0,0.0,-0.1931,0.0295,0.2532,0.4683,0.6284,0.727,0.7544,0.6793,0.5921,0.4983,0.4849,0.4781,0.4859,0.5318,0.5069,0.3948,0.322,0.1382,0.0,0.0,0.0,0.0,0.0,0.0,0.0,0.0,0.0,0.0,0.0,-1.4243,0.0,0.0,0.0,0.0,-1.1312,-1.0944,-1.1859,-1.397,0.0,0.0,0.0,0.0,0.0,0.0,0.0,-2.2585,-2.3869,-2.4673,-2.4471,-2.4751,-2.4707,-2.408,-2.3217,-2.251,-2.2149,0.0,-1.9559,-1.8064,-1.4836,-1.1203,-0.736,-0.3998,-0.0721,0.257,0.6912,1.0826,1.3573,1.614,1.8258,1.9709,2.0646,2.1251,2.1506,2.1293,2.1094,2.1188,2.1456,2.1559,2.1082,2.0835,2.0599,0.8795,0.8572,0.8078,0.7801,0.7666,0.7869,0.8295,0.888,0.9455,1.0063,1.0664,1.1297,0.9648,0.6311,0.3495,0.0,0.3278,0.3207,0.3318,0.356,0.3528,0.3397,0.3072,0.2676,0.2341,0.2001,0.0032,-0.0129,0.1075,-0.3225,-0.4453,-0.2525,-0.2995,-0.2389,-0.0696,0.1517,0.3979,0.6646,0.7688,0.8474,0.8881,0.7293,0.6442,0.6393,0.5467,0.5354,0.6178,0.5939,0.5846,0.5926,0.4114,0.3002,0.2726,0.0,0.0,0.0,0.0,0.0,0.0,0.0,0.0,0.0,0.0,0.0,0.0,0.0,0.0,0.0,-1.0577,0.0,-1.303,-1.585,0.0,0.0,0.0,-2.0643,-2.1644,-2.3216,-2.4026,-2.3518,0.0,0.0,-2.5278,0.0,-2.4716,-2.4219,-2.3565,-2.316,-2.318,-2.2497,-2.1297,-1.9178,-1.5508,-1.143,-0.694,-0.2123,0.2338,0.5452,0.9315,1.2644,1.4783,1.7148,1.9206,2.0258,2.097,2.1506,2.1807,2.1838,2.189,2.186,2.2094,2.215,2.1691,2.141,2.1166,0.8717,0.8662,0.8551,0.8382,0.8213,0.8354,0.8428,0.8521,0.9435,0.9905,0.9974,1.0782,1.0261,0.872,0.7121,0.6192,0.5714,0.5044,0.4571,0.4188,0.3923,0.3597,0.3175,0.2709,0.1539,-0.019,-0.0786,-0.2191,-0.4349,-0.5405,-0.5907,-0.5764,-0.4444,-0.2724,-0.069,0.1762,0.3904,0.5719,0.705,0.7877,0.8283,0.7271,0.6461,0.5888,0.5573,0.551,0.5691,0.621,0.6582,0.6862,0.6861,0.5886,0.3643,0.1407,0.0,0.0,0.0,0.0,0.0,0.0,0.0,0.0,0.0,-1.4358,-1.4903,0.0,-1.2732,0.0,-1.0804,-1.108,-1.4039,-1.5431,0.0,0.0,-2.129,-2.2746,-2.3672,-2.4828,-2.556,-2.5638,-2.5841,-2.5979,-2.6076,-2.5482,-2.4919,-2.4593,-2.4506,-2.4468,-2.4562,-2.4195,-2.2661,-1.9311,-1.4892,-1.0736,-0.6471,0.1266,0.7429,0.8601,1.1804,1.4628,1.6308,1.8212,1.985,2.0673,2.1326,2.1793,2.217,2.2342,2.242,2.248,2.264,2.2559,2.201,2.1827,2.1623,0.8561,0.8499,0.8721,0.872,0.8544,0.8489,0.8492,0.8588,0.9318,0.9636,0.9736,1.0176,1.0011,0.9363,0.8279,0.7448,0.6772,0.5996,0.5334,0.4819,0.4456,0.4019,0.3458,0.2946,0.1348,-0.1261,-0.2329,-0.4215,-0.677,-0.8109,-0.8459,-0.7916,-0.6098,-0.4152,-0.2035,0.1341,0.3858,0.537,0.7065,0.8044,0.8271,0.7636,0.6874,0.6037,0.6145,0.6252,0.6354,0.722,0.7859,0.8273,0.8691,0.826,0.6691,0.3893,0.0356,0.0,0.0,0.0,0.0,0.0,0.0,0.0,0.0,0.0,0.0,0.0,-1.3281,-1.3109,-1.1508,-1.1963,-1.5526,-1.807,-1.9977,-2.1088,-2.2903,-2.4347,-2.4949,-2.5996,-2.6613,-2.6544,-2.6531,-2.6539,-2.6562,-2.5779,-2.5137,-2.4996,-2.5489,-2.5753,-2.5348,-2.4461,-2.2319,-1.8351,-1.3011,-0.6894,-0.0872,0.6145,1.1062,1.1964,1.4037,1.6208,1.782,1.9121,2.022,2.0885,2.1471,2.1983,2.231,2.2601,2.2737,2.2783,2.2857,2.2735,2.2278,2.2077,2.1969,0.8416,0.8375,0.8817,0.8901,0.8715,0.8438,0.854,0.8838,0.9197,0.9447,0.9606,0.9502,0.9319,0.899,0.8063,0.7438,0.6998,0.6333,0.5789,0.5389,0.5028,0.4539,0.3926,0.3532,0.1478,-0.1947,-0.3842,-0.5906,-0.8123,-1.0798,-1.1159,-0.9431,-0.7787,-0.6008,-0.3944,0.0412,0.3585,0.5472,0.7462,0.8514,0.8591,0.8056,0.7339,0.6562,0.6855,0.7211,0.7493,0.8436,0.9195,0.9704,0.995,1.0155,1.0312,0.6158,0.2093,0.0,-1.0242,0.0,0.0,0.0,0.0,0.0,0.0,0.0,0.0,-1.485,-1.4282,-1.4439,-1.3171,-1.3931,-1.7801,-2.1953,-2.3926,-2.2897,-2.4361,-2.5588,-2.5903,-2.6898,-2.7478,-2.712,-2.7324,-2.7379,-2.7108,-2.6147,-2.5486,-2.5546,-2.617,-2.6311,-2.539,-2.3696,-2.0985,-1.6484,-0.9549,-0.12,0.6648,1.1062,1.3278,1.4569,1.5823,1.7312,1.888,1.9728,2.0334,2.0898,2.1506,2.203,2.237,2.2678,2.2859,2.2947,2.2889,2.2785,2.2509,2.2324,2.2231,0.8628,0.9046,0.8961,0.8948,0.8991,0.8668,0.8723,0.9064,0.9281,0.9338,0.9261,0.8884,0.8521,0.8218,0.7672,0.718,0.6705,0.6376,0.5963,0.5389,0.5222,0.4963,0.4739,0.493,0.1983,-0.3388,-0.3575,-0.6506,-1.2146,-1.2323,-1.2005,-1.1163,-0.908,-0.7011,-0.4881,0.0,0.0,0.0,0.7684,0.8382,0.858,0.7936,0.7401,0.706,0.7237,0.0,0.7914,0.8753,0.9627,1.0416,1.0618,0.0,0.0,0.0,0.0,0.0,0.0,0.0,0.0,0.0,0.0,0.0,-1.7977,-1.7441,-1.5948,-1.5497,-1.5736,-1.6822,-1.7709,-1.9482,-2.2374,-2.4066,-2.4847,-2.4377,-2.5596,-2.6588,-2.6841,-2.7976,-2.8847,-2.9039,-2.8785,-2.8555,-2.8362,-2.7279,-2.6435,-2.6301,-2.6219,-2.5371,-2.3569,-2.2244,-1.9238,-1.3085,-0.3432,0.5057,0.9901,1.2557,1.4258,1.543,1.6467,1.7645,1.8785,1.9587,2.0258,2.0871,2.1375,2.1902,2.2417,2.2678,2.2828,2.3081,2.2934,2.2741,2.2675,2.2583,2.2417,0.868,0.0,0.9044,0.9054,0.0,0.9004,0.9106,0.918,0.9143,0.907,0.895,0.8439,0.8118,0.7904,0.7496,0.712,0.68,0.6609,0.6294,0.5957,0.5825,0.5709,0.5464,0.3413,0.0105,-0.4202,-0.6142,-0.9318,-1.3498,-1.3175,-1.2533,-1.1799,-1.0107,-0.8421,-0.6637,-0.1579,0.2844,0.6539,0.7717,0.8391,0.856,0.8209,0.7904,0.769,0.0,0.0,0.0,0.0,0.0,0.0,0.0,0.0,0.0,0.0,0.0,-0.2413,-0.9571,-1.5075,-1.8616,-1.9194,-1.9442,-1.9651,-1.9753,-1.9055,-1.7319,-1.7533,-1.818,-1.9129,-2.0563,-2.2094,-2.3684,-2.5392,-2.6281,-2.5911,-2.6961,-2.7863,-2.8192,-2.891,-2.9551,-2.9778,-2.9399,-2.9141,-2.9489,-2.8145,-2.7026,-2.6563,-2.5871,-2.4261,-2.1383,-1.9693,-1.5777,-0.668,0.1469,0.7973,1.0537,1.2626,1.4309,1.5205,1.64,1.7512,1.8511,1.9368,2.0156,2.0759,2.1361,2.1855,2.2278,2.254,2.2752,2.296,2.2843,2.2589,2.2495,2.2402,2.2324,0.8784,0.8656,0.9087,0.9142,0.8878,0.9208,0.9274,0.9148,0.0,0.0,0.0,0.807,0.7795,0.7787,0.7377,0.716,0.7063,0.6907,0.6787,0.6689,0.6641,0.6062,0.4927,0.1341,-0.2308,-0.5888,-0.9372,-1.226,-1.4517,-1.3989,-1.3247,-1.2341,-1.1255,-0.9529,-0.6899,-0.1117,0.3479,0.6582,0.7865,0.8527,0.8679,0.8679,0.8488,0.8099,0.8579,0.9108,0.9641,1.0436,1.1236,1.1957,1.2021,1.2232,1.2619,1.2524,0.7723,-0.2574,-0.6895,-1.2458,-2.0071,-2.0729,-2.0985,-2.1558,-2.1383,-2.0628,-1.9198,-1.9835,-2.0563,-2.119,-2.2471,-2.3542,-2.4216,-2.6313,-2.7566,-2.7236,-2.8209,-2.8953,-2.9057,-2.9438,-2.9717,-2.9911,-2.9518,-2.9492,-3.0141,-2.878,-2.7233,-2.6222,-2.5015,-2.2549,-1.8326,-1.5348,-1.0453,-0.1045,0.4495,0.8244,1.0153,1.192,1.3382,1.4433,1.5891,1.7157,1.8104,1.9069,1.9914,2.061,2.1251,2.1746,2.2091,2.237,2.2629,2.2807,2.2672,2.2449,2.2267,2.224,2.2192,0.9132,0.9509,0.9318,0.9195,0.9124,0.891,0.8724,0.8598,0.8486,0.8325,0.7987,0.7621,0.7461,0.7461,0.7293,0.7286,0.744,0.7398,0.7356,0.0,0.7467,0.5106,0.0889,0.0841,-0.3509,-1.1137,-1.133,-1.3023,-1.6089,-1.5645,-1.4852,-1.3987,-1.2936,-0.9147,-0.2989,-0.0815,0.2842,0.8352,0.8698,0.8837,0.8956,0.9054,0.8799,0.8156,0.865,0.9026,0.9105,0.9967,1.0795,1.1537,1.1676,1.1978,1.2445,1.3115,0.7943,-0.3948,-0.8012,-1.3435,-2.1596,-2.2139,-2.213,-2.2319,-2.2408,-2.2025,-2.1123,-2.1243,-2.1804,-2.2847,-2.3787,-2.4764,-2.5933,-2.7061,-2.7913,-2.83,-2.8926,-2.9137,-2.8727,-2.9,-2.9287,-2.9381,-2.9277,-2.9543,-3.0192,-2.9011,-2.7139,-2.5112,-2.3276,-1.9865,-1.3716,-0.8663,-0.4386,0.0689,0.4143,0.651,0.8302,1.026,1.1997,1.3382,1.5332,1.6922,1.7831,1.8815,1.9668,2.0359,2.0983,2.1458,2.1949,2.2217,2.2402,2.248,2.2342,2.2249,2.217,2.2256,2.2374,0.9138,0.9177,0.9007,0.8765,0.8496,0.8338,0.826,0.8186,0.7968,0.795,0.8046,0.7785,0.7702,0.7771,0.7692,0.7788,0.8031,0.8048,0.8222,0.8569,0.8772,0.6073,0.1224,-0.0838,-0.5522,-1.2222,-1.4126,-1.5521,-1.6626,-1.5973,-1.5247,-1.4502,-1.3659,-1.0976,-0.6655,-0.2718,0.1163,0.5129,0.7961,0.9347,0.9413,0.9517,0.9231,0.8693,0.9001,0.9141,0.9125,0.9604,1.0156,1.0656,1.1115,1.1615,1.2064,1.2948,0.7797,-0.4312,-0.6352,-1.1802,-2.2789,-2.3414,-2.3356,-2.333,-2.3387,-2.339,-2.3138,-2.3213,-2.3654,-2.4442,-2.5187,-2.6034,-2.696,-2.7756,-2.842,-2.8978,-2.9475,-2.9509,-2.8995,-2.9087,-2.9265,-2.9297,-2.9201,-2.9476,-3.0322,-2.9119,-2.7351,-2.5014,-2.1794,-1.7102,-1.2195,-0.9017,-0.5358,-0.063,0.2311,0.4355,0.6028,0.862,1.0995,1.3235,1.5129,1.6574,1.7611,1.8667,1.9565,2.0169,2.0835,2.1348,2.1827,2.2077,2.2189,2.21,2.2081,2.2016,2.191,2.2351,2.2935,0.9072,0.8856,0.8756,0.8369,0.7881,0.7843,0.7875,0.7859,0.7535,0.7615,0.7937,0.7839,0.7923,0.8125,0.821,0.8453,0.8865,0.9106,0.9492,0.9958,0.893,0.5646,0.0552,-0.4011,-0.8932,-1.3791,-1.6979,-1.7922,-1.7121,-1.643,-1.5672,-1.5027,-1.4636,-1.3097,-1.0383,-0.4449,-0.0094,0.2837,0.7871,1.0372,1.0123,1.0079,0.9814,0.9361,0.9263,0.9204,0.9113,0.9372,0.9559,0.9829,1.0493,1.1112,1.1614,1.2624,0.7576,-0.3827,-0.4893,-1.0319,-2.2701,-2.4278,-2.4219,-2.4067,-2.4151,-2.4328,-2.4614,-2.4823,-2.5105,-2.5577,-2.6214,-2.6967,-2.7566,-2.8278,-2.8909,-2.9439,-2.9912,-2.9871,-2.9295,-2.9308,-2.9432,-2.9393,-2.9186,-2.9344,-2.9769,-2.899,-2.7056,-2.4127,-2.0053,-1.6009,-1.3309,-1.1395,-0.8454,-0.4713,-0.1082,0.1496,0.3255,0.6638,0.9944,1.3009,1.4991,1.6415,1.76,1.8709,1.9617,2.0271,2.097,2.1506,2.1766,2.203,2.2109,2.1988,2.1908,2.1842,2.1871,2.2389,2.3122,0.9201,0.9028,0.8768,0.8336,0.7809,0.7745,0.7622,0.7526,0.7379,0.7329,0.7361,0.7462,0.7793,0.8287,0.8766,0.938,1.0097,1.0876,1.1367,1.096,0.651,0.1436,-0.3841,-0.9482,-1.4948,-1.9012,-1.9546,-1.9045,-1.8309,-1.7676,-1.6961,-1.6194,-1.6481,-1.4375,-0.9803,-0.476,0.0045,0.4612,0.9969,1.2138,1.1057,1.0863,1.0446,0.9762,0.9517,0.9211,0.8877,0.9051,0.913,0.926,0.9904,1.0521,1.1053,1.2379,0.7257,-0.5423,-0.5619,-1.0591,-2.2888,-2.4379,-2.4276,-2.4208,-2.4333,-2.4523,-2.4775,-2.5269,-2.5663,-2.5921,-2.659,-2.7224,-2.777,-2.8492,-2.9159,-2.9672,-3.01,-3.0104,-2.9513,-2.9441,-2.9461,-2.9382,-2.9139,-2.9183,-2.9664,-2.8469,-2.6047,-2.2869,-2.0167,-1.7589,-1.5966,-1.4924,-1.3821,-1.1285,-0.7106,-0.2649,-0.0064,0.4006,0.8337,1.2081,1.4669,1.6404,1.771,1.8857,1.9811,2.0597,2.1202,2.1746,2.203,2.217,2.2137,2.1969,2.1815,2.1771,2.2206,2.2335,2.2343,0.8814,0.8569,0.8287,0.7865,0.7437,0.73,0.7109,0.6823,0.6699,0.6583,0.646,0.6655,0.7349,0.8511,0.9104,1.0037,1.1223,1.2037,1.0822,0.825,0.5926,0.0235,-0.8261,-1.0866,-1.4917,-1.9697,-1.9645,-1.9058,-1.8319,-1.7421,-1.6765,-1.6461,-1.6808,-1.6135,-1.4026,-0.6127,-0.1034,0.0729,0.9356,1.3542,1.2822,1.19,1.1049,1.0336,1.0053,0.9524,0.8854,0.8933,0.8921,0.8652,0.9408,1.0084,1.0726,1.2217,0.7165,-0.5606,-1.3411,-1.9253,-2.4362,-2.4523,-2.4374,-2.4223,-2.4333,-2.4482,-2.467,-2.5208,-2.5642,-2.601,-2.6674,-2.7374,-2.7939,-2.87,-2.9357,-2.9777,-3.0158,-3.0143,-2.9483,-2.9467,-2.9471,-2.9371,-2.911,-2.9041,-2.904,-2.7247,-2.5065,-2.3036,-2.1346,-1.9882,-1.8967,-1.8548,-1.7948,-1.6625,-1.3131,-0.8027,-0.2632,0.2543,0.7154,1.1417,1.4573,1.662,1.8027,1.9267,2.0308,2.1028,2.1623,2.2063,2.2267,2.2296,2.2278,2.203,2.1636,2.1506,2.1982,2.213,2.2347,0.8503,0.8192,0.7764,0.7372,0.6914,0.6712,0.638,0.6023,0.5819,0.555,0.5332,0.5719,0.6357,0.7412,0.9026,1.0697,1.1937,1.1538,0.9468,0.586,0.3155,-0.3066,-1.0846,-1.3027,-1.564,-1.898,-1.9244,-1.8693,-1.7935,-1.7102,-1.662,-1.6663,-1.6976,-1.7463,-1.7089,-0.8504,-0.3444,-0.1531,0.7429,1.2858,1.3788,1.3125,1.2086,1.1149,1.0653,1.0024,0.9177,0.9176,0.8967,0.8562,0.9278,1.003,1.0763,1.2134,0.7709,-0.4056,-1.7866,-2.54,-2.4744,-2.4549,-2.4333,-2.4124,-2.4151,-2.4261,-2.4549,-2.495,-2.5416,-2.5885,-2.6607,-2.7269,-2.7974,-2.8694,-2.9258,-2.9672,-3.0087,-3.0115,-2.9797,-2.9784,-2.9842,-2.9744,-2.959,-2.9131,-2.8648,-2.6864,-2.5135,-2.4429,-2.35,-2.2727,-2.2308,-2.2076,-2.1743,-2.0887,-1.8375,-1.3159,-0.4994,0.1183,0.6038,1.0751,1.4273,1.6757,1.8382,1.9722,2.0894,2.1609,2.2203,2.254,2.2603,2.2572,2.2356,2.203,2.1671,2.1532,2.2194,2.2268,2.2531,0.8439,0.81,0.7427,0.6758,0.6249,0.5968,0.5592,0.5164,0.4732,0.4401,0.4174,0.4684,0.4601,0.4257,0.8037,1.106,1.1742,0.8498,0.6766,0.5433,-0.3926,-0.9529,-1.0624,-1.6142,-1.8993,-1.9109,-1.8898,-1.8344,-1.7488,-1.7086,-1.6888,-1.6927,-1.724,-1.7733,-1.7413,-1.2406,-0.724,-0.1808,0.4227,0.9504,1.3992,1.4569,1.3711,1.2323,1.1329,1.0659,1.0164,0.9768,0.9486,0.9358,0.9737,1.0388,1.1267,1.1851,0.8256,-0.0098,-1.6059,-2.5433,-2.4673,-2.4405,-2.4177,-2.3867,-2.3839,-2.3967,-2.4219,-2.4574,-2.5091,-2.5663,-2.6225,-2.6873,-2.7707,-2.8366,-2.8946,-2.9458,-2.9908,-3.0202,-3.0399,-3.0417,-3.063,-3.054,-3.025,-2.9621,-2.8411,-2.7572,-2.6669,-2.5962,-2.5392,-2.5121,-2.5146,-2.5231,-2.4855,-2.3833,-2.1481,-1.7314,-0.887,-0.146,0.4979,0.991,1.3549,1.6837,1.8567,2.0168,2.1232,2.2175,2.2649,2.2949,2.2994,2.2859,2.254,2.2217,2.1793,2.1871,2.28,2.2418,2.2566,0.7787,0.7187,0.6652,0.6055,0.5504,0.5222,0.4838,0.446,0.368,0.301,0.2449,0.2388,0.2041,0.1582,0.345,0.4952,0.5725,0.3621,0.0691,-0.2962,-0.7561,-1.163,-1.5634,-1.7967,-1.8788,-1.8697,-1.8503,-1.8069,-1.7419,-1.7057,-1.6918,-1.6973,-1.717,-1.7598,-1.7168,-1.2669,-0.7192,-0.1716,0.3917,0.968,1.476,1.5226,1.4723,1.4057,1.2835,1.1678,1.06,1.0424,1.02,0.9813,1.0236,1.08,1.0609,0.4163,-0.0715,-0.4212,-1.749,-2.5594,-2.4855,-2.4323,-2.3894,-2.3625,-2.3436,-2.348,-2.3724,-2.4105,-2.4623,-2.5313,-2.5868,-2.6522,-2.7272,-2.8002,-2.8615,-2.9122,-2.9584,-3.0004,-3.0267,-3.046,-3.0573,-3.0562,-3.0272,-2.9715,-2.9193,-2.8463,-2.7994,-2.7893,-2.7478,-2.7214,-2.7282,-2.7346,-2.704,-2.6219,-2.4948,-2.1415,-1.3028,-0.4533,0.2622,0.8034,1.2411,1.6022,1.8543,2.0319,2.1595,2.2267,2.2889,2.3127,2.3083,2.2859,2.2632,2.252,2.2085,2.2443,2.364,2.299,2.2978,0.6907,0.6209,0.5723,0.5289,0.4853,0.4233,0.3677,0.3183,0.2287,0.1449,0.0668,0.0111,-0.0551,-0.1469,-0.2362,-0.2627,-0.1985,-0.2333,-0.4647,-0.8676,-1.0925,-1.4253,-1.7779,-1.8372,-1.8307,-1.8268,-1.8055,-1.7747,-1.735,-1.7128,-1.7073,-1.717,-1.7337,-1.7706,-1.7503,-1.442,-0.9897,-0.4356,0.1324,0.7141,1.2623,1.5004,1.5723,1.545,1.4506,1.3267,1.1759,1.1483,1.1163,1.078,1.0975,1.1421,1.088,-0.0,-0.7327,-0.9181,-1.9331,-2.5615,-2.4729,-2.4127,-2.3638,-2.326,-2.3038,-2.3038,-2.3187,-2.3623,-2.4241,-2.491,-2.547,-2.6106,-2.6791,-2.7487,-2.8166,-2.8764,-2.9263,-2.9676,-3.0018,-3.0271,-3.0444,-3.0523,-3.0364,-3.0109,-2.9912,-2.9307,-2.9101,-2.9344,-2.8975,-2.8756,-2.8817,-2.8747,-2.8408,-2.7412,-2.6035,-2.1874,-1.4399,-0.5817,0.1399,0.6913,1.2004,1.5578,1.8425,2.023,2.1595,2.236,2.2799,2.3038,2.3038,2.2859,2.2766,2.2747,2.2651,2.2701,2.3264,2.3412,2.3389,0.5878,0.5281,0.4736,0.4467,0.4135,0.2956,0.2009,0.1228,0.0502,-0.0334,-0.1279,-0.2055,-0.3092,-0.4884,-0.7868,-1.025,-0.9745,-0.8496,-0.8336,-0.9579,-1.4671,-1.7344,-1.8028,-1.8042,-1.7975,-1.7922,-1.7652,-1.7406,-1.7212,-1.7199,-1.7282,-1.7488,-1.7706,-1.7989,-1.8478,-1.7879,-1.5479,-0.9704,-0.4198,0.144,0.7605,1.318,1.6008,1.6417,1.6311,1.537,1.364,1.287,1.2328,1.2035,1.1981,1.2413,1.1465,0.0876,-0.8292,-1.2412,-2.0881,-2.49,-2.4333,-2.383,-2.3363,-2.2889,-2.2646,-2.2632,-2.2799,-2.329,-2.3894,-2.4527,-2.5096,-2.5628,-2.635,-2.6906,-2.7512,-2.8358,-2.892,-2.9302,-2.9658,-3.0023,-3.0289,-3.0476,-3.0565,-3.0685,-3.0482,-3.0062,-2.9794,-2.9745,-2.9711,-2.9692,-2.9699,-2.9557,-2.902,-2.7583,-2.5227,-2.1026,-1.4042,-0.6771,-0.0179,0.6137,1.11,1.5308,1.7832,1.9877,2.1086,2.1866,2.2374,2.2632,2.2781,2.2644,2.2706,2.2718,2.2744,2.2922,2.3322,2.356,2.3485,0.5226,0.4736,0.4581,0.3741,0.2565,0.1335,0.039,-0.0335,-0.1169,-0.2336,-0.3506,-0.4265,-0.5279,-0.6876,-0.9349,-1.1099,-1.2242,-1.2859,-1.3504,-1.4255,-1.6491,-1.7679,-1.7815,-1.7868,-1.7814,-1.7652,-1.757,-1.7406,-1.724,-1.7212,-1.731,-1.7488,-1.7557,-1.7895,-1.8372,-1.8302,-1.575,-1.0646,-0.8889,-0.291,0.7214,0.9882,1.2897,1.728,1.7675,1.7013,1.6042,1.4532,1.3537,1.3174,1.3009,1.3147,1.1705,0.3688,-0.3765,-0.8497,-1.9277,-2.5416,-2.4545,-2.3834,-2.3231,-2.2723,-2.2463,-2.2417,-2.2555,-2.3038,-2.3696,-2.4338,-2.4831,-2.5447,-2.6106,-2.6657,-2.7286,-2.802,-2.846,-2.8938,-2.9418,-2.9878,-3.0279,-3.0506,-3.0622,-3.0662,-3.0633,-3.0416,-3.0255,-3.0287,-3.0289,-3.0267,-3.0202,-2.9861,-2.9007,-2.7368,-2.3858,-1.9645,-1.2931,-0.6129,0.0428,0.5677,1.0228,1.4503,1.7093,1.9196,2.0406,2.1259,2.1766,2.2091,2.2255,2.2395,2.2399,2.2552,2.2623,2.3045,2.3671,2.3736,2.3526,0.4625,0.4073,0.3691,0.2567,0.0947,-0.0278,-0.1445,-0.2504,-0.3217,-0.4262,-0.5479,-0.6279,-0.727,-0.8677,-1.0183,-1.1792,-1.3516,-1.5185,-1.6347,-1.7087,-1.742,-1.7708,-1.7822,-1.7705,-1.7676,-1.7602,-1.7416,-1.724,-1.7128,-1.717,-1.7282,-1.7461,-1.757,-1.7814,-1.8189,-1.8394,-1.6557,-1.3645,-1.1753,-0.5647,0.3641,0.7273,1.163,1.7746,1.8643,1.8147,1.7534,1.612,1.4963,1.4314,1.3803,1.3821,1.349,0.5367,-0.1559,-0.7074,-1.7225,-2.5368,-2.4558,-2.3779,-2.3187,-2.2723,-2.2495,-2.2402,-2.2601,-2.3098,-2.3696,-2.4188,-2.4729,-2.5314,-2.5944,-2.6521,-2.7068,-2.7589,-2.8112,-2.8658,-2.9279,-2.9772,-3.0182,-3.0427,-3.057,-3.0613,-3.0664,-3.0652,-3.0554,-3.0638,-3.0638,-3.0528,-3.0297,-2.9721,-2.8211,-2.5802,-2.2048,-1.7291,-1.1852,-0.5462,0.1129,0.5454,0.9389,1.3177,1.6339,1.8235,1.9723,2.0484,2.1055,2.1291,2.1491,2.163,2.1732,2.2024,2.2283,2.2867,2.3289,2.3393,2.3259,0.4021,0.3188,0.2181,0.0949,-0.0446,-0.1722,-0.3329,-0.5058,-0.5416,-0.6098,-0.7127,-0.8022,-0.9127,-1.0367,-1.1665,-1.3145,-1.4693,-1.6028,-1.7204,-1.7974,-1.8242,-1.8249,-1.8279,-1.7866,-1.782,-1.7896,-1.745,-1.7157,-1.72,-1.7268,-1.7319,-1.7629,-1.7825,-1.7977,-1.8222,-1.87,-1.8685,-1.7679,-1.4238,-0.8335,-0.0658,0.3845,1.0557,1.7772,1.7839,1.7725,1.8135,1.7335,1.6379,1.5284,1.4478,1.43,1.307,0.5925,0.038,-0.4282,-1.7714,-2.392,-2.4467,-2.3909,-2.3363,-2.292,-2.2785,-2.2709,-2.2814,-2.3348,-2.3882,-2.4188,-2.4673,-2.5217,-2.5832,-2.6434,-2.6925,-2.7365,-2.802,-2.8658,-2.9341,-2.9676,-2.9994,-3.0325,-3.0479,-3.0536,-3.0667,-3.0651,-3.0693,-3.0741,-3.0739,-3.0598,-2.9979,-2.8906,-2.6957,-2.3735,-1.988,-1.4807,-0.9401,-0.4192,0.1994,0.5336,0.9027,1.2378,1.5578,1.7532,1.9085,1.9786,2.0283,2.0524,2.0675,2.0871,2.1015,2.1148,2.1648,2.2421,2.2853,2.2972,2.3096,0.3188,0.2294,0.1341,-0.0056,-0.1782,-0.3721,-0.5093,-0.6067,-0.7031,-0.7876,-0.8763,-0.9739,-1.0797,-1.2052,-1.3303,-1.4569,-1.5836,-1.7315,-1.841,-1.9057,-1.9279,-1.9173,-1.9051,-1.8826,-1.8666,-1.8533,-1.8033,-1.7898,-1.8054,-1.7714,-1.7873,-1.8485,-1.814,-1.8296,-1.8829,-1.8542,-1.8648,-1.9092,-1.8421,-1.4057,-0.7943,-0.616,0.0148,1.0989,1.1678,1.3789,1.7645,1.7556,1.6616,1.5584,1.5118,1.5001,1.4505,1.1379,0.6007,-0.2448,-1.5768,-2.5294,-2.4941,-2.439,-2.3894,-2.3478,-2.3304,-2.3231,-2.3334,-2.3711,-2.4094,-2.4364,-2.4658,-2.5018,-2.5709,-2.6485,-2.7169,-2.7876,-2.8334,-2.8785,-2.9214,-2.9533,-2.9829,-3.0032,-3.0237,-3.0385,-3.0524,-3.0607,-3.0653,-3.0693,-3.0586,-3.0242,-2.9346,-2.7446,-2.5278,-2.1287,-1.7156,-1.2135,-0.7055,-0.2092,0.2281,0.5413,0.8771,1.1936,1.4781,1.707,1.8436,1.946,1.972,1.9939,2.0029,2.0194,2.0244,2.0419,2.0861,2.1519,2.2322,2.2711,2.2854,0.2437,0.1343,0.0397,-0.1072,-0.2837,-0.4933,-0.6342,-0.7368,-0.8785,-0.9948,-1.0797,-1.1516,-1.2568,-1.3851,-1.4935,-1.6,-1.7133,-1.8461,-1.9464,-2.0051,-2.0223,-1.9969,-1.9509,-1.9245,-1.9054,-1.9003,-1.85,-1.8272,-1.8312,-1.8083,-1.8285,-1.8539,-1.8449,-1.8507,-1.8774,-1.8747,-1.8727,-1.9235,-1.9555,-1.6808,-1.0754,-1.0819,-0.5717,0.2752,0.4454,0.7083,1.2568,1.3002,1.3515,1.5202,1.5661,1.4363,1.14,0.9941,0.4858,-0.4734,-1.8099,-2.5246,-2.5147,-2.4782,-2.4492,-2.4241,-2.4032,-2.3948,-2.4048,-2.4245,-2.4533,-2.4759,-2.4869,-2.5228,-2.5859,-2.6708,-2.7496,-2.8101,-2.8608,-2.8966,-2.9169,-2.9416,-2.9642,-2.9823,-3.0037,-3.0234,-3.04,-3.0519,-3.0581,-3.0521,-3.0208,-2.94,-2.8248,-2.5836,-2.2786,-1.8598,-1.4307,-0.9356,-0.5126,-0.0453,0.3081,0.6181,0.919,1.2196,1.4517,1.6824,1.7961,1.8934,1.9198,1.9408,1.954,1.9643,1.9734,1.9927,2.0245,2.0862,2.1758,2.2424,2.2578,0.162,0.0283,-0.0699,-0.2196,-0.3996,-0.5736,-0.7469,-0.8991,-1.0714,-1.207,-1.2898,-1.3408,-1.4337,-1.5669,-1.6382,-1.7355,-1.8485,-1.9579,-2.0394,-2.0894,-2.0987,-2.0588,-1.9662,-1.9274,-1.9144,-1.9202,-1.8722,-1.85,-1.8468,-1.8475,-1.8472,-1.8621,-1.8699,-1.8661,-1.877,-1.8854,-1.9056,-1.9331,-1.9787,-1.7869,-1.3716,-1.3122,-0.9914,-0.4221,-0.1356,0.0716,0.4569,0.595,0.7872,1.3904,1.479,1.1693,0.6288,0.3381,-0.284,-1.164,-1.9454,-2.5346,-2.5355,-2.5256,-2.5139,-2.5163,-2.4997,-2.4813,-2.4932,-2.51,-2.5171,-2.5224,-2.5335,-2.5693,-2.6401,-2.7181,-2.7794,-2.8316,-2.879,-2.9123,-2.9347,-2.9411,-2.9494,-2.9674,-2.9893,-3.0089,-3.029,-3.0414,-3.051,-2.9975,-2.9353,-2.7805,-2.5831,-2.3008,-1.9574,-1.5512,-1.1099,-0.6613,-0.277,0.1057,0.4022,0.7001,0.9982,1.283,1.4847,1.6733,1.771,1.8441,1.8881,1.9093,1.9174,1.9226,1.9344,1.9599,1.9962,2.0739,2.1588,2.201,2.228,-0.0178,-0.1324,-0.2419,-0.3852,-0.5659,-0.7449,-0.9273,-1.1021,-1.2429,-1.3628,-1.4562,-1.5121,-1.5913,-1.6819,-1.7771,-1.8672,-1.9628,-2.0898,-2.181,-2.1851,-2.1637,-2.0938,-2.0092,-1.9636,-1.9661,-1.9522,-1.9021,-1.8909,-1.9108,-1.8834,-1.8896,-1.9309,-1.8846,-1.8772,-1.9055,-1.8607,-1.8717,-1.9265,-1.9619,-1.9497,-1.8967,-1.8621,-1.636,-1.0739,-0.655,-0.3506,-0.228,-0.1687,-0.0883,0.1414,0.5084,0.6654,0.377,-0.3184,-0.7982,-1.0803,-1.9404,-2.5772,-2.6192,-2.6045,-2.6131,-2.6552,-2.6383,-2.6221,-2.6315,-2.6221,-2.6025,-2.5805,-2.566,-2.6139,-2.7244,-2.7754,-2.8264,-2.8731,-2.9206,-2.9795,-3.0357,-3.0038,-2.9698,-2.9801,-2.9992,-3.0177,-3.0422,-3.0375,-3.0136,-2.9525,-2.7954,-2.6171,-2.3275,-2.0184,-1.6382,-1.2439,-0.8669,-0.4531,-0.1368,0.2185,0.5277,0.7723,1.0461,1.2907,1.4934,1.6415,1.7324,1.8073,1.8637,1.8839,1.8975,1.9028,1.9146,1.945,1.9752,2.0444,2.1119,2.1587,2.2113,-0.2176,-0.3439,-0.4661,-0.5799,-0.7082,-0.8765,-1.0549,-1.23,-1.3808,-1.4999,-1.5923,-1.6718,-1.7468,-1.822,-1.9158,-2.0014,-2.0914,-2.2076,-2.2598,-2.231,-2.176,-2.0951,-2.0147,-1.9624,-1.9396,-1.9451,-1.9228,-1.9238,-1.9312,-1.9111,-1.9101,-1.9451,-1.8882,-1.8726,-1.8939,-1.8465,-1.8618,-1.9165,-1.9565,-2.0207,-2.1224,-2.1979,-2.2044,-1.8922,-1.5259,-1.2829,-0.9553,-0.8935,-0.6812,-0.4367,-0.3001,-0.2766,-0.324,-0.8835,-1.2083,-1.5861,-2.0034,-2.5717,-2.6191,-2.6709,-2.7033,-2.7504,-2.7512,-2.758,-2.7591,-2.7459,-2.7328,-2.6982,-2.6574,-2.6497,-2.7907,-2.8284,-2.8714,-2.9507,-3.0039,-3.072,-3.1371,-3.0703,-3.0097,-3.038,-3.0733,-3.0761,-3.0755,-3.0427,-2.9373,-2.8582,-2.5884,-2.3906,-2.0034,-1.6834,-1.3305,-0.962,-0.616,-0.2763,0.0132,0.3313,0.6534,0.8698,1.0683,1.2785,1.4591,1.5833,1.6832,1.7678,1.8518,1.8786,1.8934,1.8987,1.8999,1.9189,1.9509,2.0098,2.0734,2.1326,2.1925,-0.4058,-0.5463,-0.6688,-0.7639,-0.8444,-1.0075,-1.1769,-1.3461,-1.4999,-1.6223,-1.7106,-1.8128,-1.8725,-1.9512,-2.0309,-2.1249,-2.2255,-2.2665,-2.2948,-2.2459,-2.1443,-2.058,-1.9822,-1.9036,-1.8709,-1.9093,-1.898,-1.9028,-1.9146,-1.9146,-1.8903,-1.9016,-1.8774,-1.8525,-1.8387,-1.8333,-1.8405,-1.8922,-1.954,-2.0396,-2.15,-2.2452,-2.3169,-2.3798,-2.3608,-2.1154,-1.738,-1.5805,-1.3358,-0.7257,-1.1887,-1.4507,-1.5197,-1.5662,-1.7509,-2.4011,-2.4948,-2.601,-2.6939,-2.7511,-2.8026,-2.8129,-2.8595,-2.882,-2.8758,-2.8686,-2.8553,-2.8172,-2.7727,-2.7623,-2.8938,-2.9188,-2.9727,-3.0501,-3.1172,-3.1895,-3.237,-3.1443,-3.1141,-3.1168,-3.1313,-3.1321,-3.0758,-3.0221,-2.889,-2.7192,-2.4364,-2.129,-1.7459,-1.391,-1.0625,-0.7658,-0.4449,-0.0989,0.199,0.4311,0.7518,0.9197,1.0989,1.2669,1.4294,1.5459,1.657,1.7667,1.8441,1.8721,1.8975,1.9004,1.904,1.9035,1.9221,1.9757,2.0397,2.1112,2.174,-0.5279,-0.6053,-0.7314,-0.8637,-0.9955,-1.1601,-1.3362,-1.5117,-1.6217,-1.7324,-1.8258,-1.8821,-1.9396,-2.0054,-2.094,-2.2246,-2.3189,-2.327,-2.2818,-2.2217,-2.1148,-2.0047,-1.8993,-1.8317,-1.8007,-1.805,-1.817,-1.841,-1.8637,-1.8476,-1.8441,-1.8405,-1.8116,-1.7865,-1.7865,-1.7865,-1.8061,-1.8697,-1.9475,-2.0484,-2.1547,-2.2756,-2.3864,-2.5146,-2.5492,-2.4643,-2.3982,-2.3139,-2.2394,-2.1082,-2.1672,-2.1584,-2.1076,-2.1209,-2.242,-2.3851,-2.5489,-2.6651,-2.7968,-2.8636,-2.9238,-2.9663,-2.9898,-2.9892,-2.9871,-2.9858,-2.9709,-2.9329,-2.9145,-2.9621,-3.2516,-3.1364,-3.1075,-3.1781,-3.2417,-3.3006,-3.3589,-3.3189,-3.2115,-3.1828,-3.1836,-3.1576,-3.0789,-2.9611,-2.7857,-2.5568,-2.2431,-1.9171,-1.5517,-1.2046,-0.8708,-0.5914,-0.3179,0.0397,0.3929,0.5978,0.8307,0.9466,1.103,1.2592,1.4066,1.5164,1.6306,1.7634,1.8414,1.8774,1.8963,1.9097,1.9206,1.9274,1.9345,1.9457,2.0415,2.1331,2.1801,-0.6482,-0.7269,-0.8555,-0.9862,-1.1279,-1.289,-1.4446,-1.5985,-1.6989,-1.7886,-1.8709,-1.9291,-1.9837,-2.0423,-2.1009,-2.2105,-2.2904,-2.3017,-2.2417,-2.1703,-2.0496,-1.9428,-1.8303,-1.7701,-1.7301,-1.7179,-1.719,-1.7579,-1.8084,-1.792,-1.7831,-1.7831,-1.7512,-1.7357,-1.7412,-1.7534,-1.7854,-1.8483,-1.9463,-2.057,-2.171,-2.3054,-2.442,-2.5208,-2.5605,-2.5642,-2.5546,-2.5262,-2.4744,-2.4066,-2.3864,-2.361,-2.3436,-2.3451,-2.3724,-2.4063,-2.5284,-2.6976,-2.8627,-2.9235,-2.9685,-3.0139,-3.0588,-3.0882,-3.0936,-3.0922,-3.0829,-3.0663,-3.0884,-3.1609,-3.3621,-3.2747,-3.258,-3.3015,-3.349,-3.4077,-3.4587,-3.4368,-3.3458,-3.2421,-3.23,-3.1765,-3.0566,-2.9036,-2.6977,-2.4011,-2.0676,-1.7275,-1.3827,-1.0679,-0.7541,-0.4295,-0.1579,0.1711,0.4881,0.6886,0.8717,0.9908,1.1235,1.2764,1.409,1.5331,1.6619,1.7923,1.8414,1.8785,1.9093,1.9291,1.9397,1.9665,2.0244,2.077,2.1043,2.1536,2.1908,-0.7613,-0.8438,-0.9691,-1.1034,-1.2464,-1.387,-1.5293,-1.6574,-1.749,-1.8375,-1.9239,-1.9798,-2.0346,-2.0947,-2.1381,-2.1943,-2.2495,-2.2485,-2.1764,-2.0939,-1.9682,-1.8622,-1.7853,-1.7156,-1.6513,-1.6265,-1.6285,-1.656,-1.7213,-1.729,-1.7234,-1.7157,-1.6933,-1.6899,-1.6965,-1.7256,-1.7678,-1.8429,-1.9423,-2.0607,-2.2104,-2.3649,-2.4934,-2.553,-2.568,-2.5701,-2.5605,-2.5301,-2.4855,-2.4426,-2.4051,-2.3711,-2.3422,-2.354,-2.3702,-2.3921,-2.5029,-2.6844,-2.8526,-2.9582,-3.0046,-3.0451,-3.1179,-3.1531,-3.1768,-3.1756,-3.1917,-3.2039,-3.2305,-3.2913,-3.3972,-3.39,-3.388,-3.414,-3.449,-3.4838,-3.5158,-3.4975,-3.4211,-3.344,-3.2978,-3.1721,-3.0245,-2.8739,-2.6704,-2.3358,-1.9936,-1.6673,-1.3325,-1.0171,-0.6908,-0.305,0.0143,0.3137,0.5725,0.7531,0.9082,1.0315,1.1635,1.3096,1.4416,1.5657,1.687,1.7973,1.8385,1.8713,1.9102,1.9494,1.9589,2.0138,2.1306,2.1683,2.1343,2.1451,2.1806,-0.851,-0.9271,-1.0272,-1.1691,-1.3382,-1.4551,-1.5938,-1.7401,-1.8135,-1.9056,-2.0067,-2.0497,-2.0957,-2.1553,-2.2171,-2.2734,-2.2701,-2.1839,-2.0942,-2.0153,-1.8759,-1.7623,-1.6846,-1.6269,-1.5816,-1.5526,-1.5526,-1.5921,-1.6358,-1.6436,-1.6415,-1.6317,-1.6436,-1.6488,-1.6581,-1.6976,-1.7468,-1.8116,-1.9319,-2.1037,-2.2862,-2.4127,-2.4926,-2.5438,-2.5733,-2.5754,-2.5626,-2.5301,-2.491,-2.4498,-2.4151,-2.3797,-2.3554,-2.397,-2.4163,-2.4627,-2.5691,-2.7395,-2.9043,-2.9872,-3.0416,-3.0813,-3.1435,-3.1821,-3.2109,-3.2403,-3.2515,-3.2523,-3.2865,-3.3465,-3.4314,-3.4785,-3.5021,-3.5137,-3.526,-3.5341,-3.5507,-3.5102,-3.439,-3.3487,-3.272,-3.1142,-2.9559,-2.8059,-2.6309,-2.2776,-1.9312,-1.6035,-1.2553,-0.9297,-0.5823,-0.1908,0.1105,0.4056,0.6131,0.8006,0.9459,1.0663,1.2025,1.3393,1.4782,1.5956,1.6941,1.7846,1.8261,1.8813,1.9347,1.9665,1.9826,2.036,2.1117,2.1231,2.1081,2.1289,2.1651,-0.9196,-0.9918,-1.1057,-1.2472,-1.3981,-1.5313,-1.6631,-1.7863,-1.8673,-1.9619,-2.0597,-2.1055,-2.1589,-2.2113,-2.2317,-2.2255,-2.2001,-2.0978,-2.0057,-1.9324,-1.8098,-1.7011,-1.6353,-1.5758,-1.5294,-1.4942,-1.4942,-1.5001,-1.54,-1.5758,-1.5921,-1.5901,-1.5999,-1.6134,-1.6249,-1.6751,-1.7301,-1.8255,-1.9774,-2.1602,-2.2995,-2.4101,-2.4902,-2.5378,-2.5642,-2.568,-2.553,-2.5355,-2.4966,-2.458,-2.4276,-2.3967,-2.3699,-2.3911,-2.4267,-2.498,-2.571,-2.7148,-2.8793,-2.9632,-3.026,-3.0908,-3.1432,-3.1949,-3.2454,-3.2784,-3.2939,-3.2955,-3.3259,-3.3844,-3.446,-3.4927,-3.521,-3.5449,-3.5664,-3.5545,-3.5379,-3.4929,-3.4329,-3.3395,-3.2432,-3.0988,-2.9313,-2.7468,-2.5598,-2.2543,-1.9052,-1.5701,-1.1779,-0.7651,-0.4136,-0.053,0.2201,0.4709,0.6536,0.823,0.9707,1.0949,1.2182,1.3633,1.5099,1.6327,1.7038,1.7728,1.8237,1.8834,1.9518,1.9879,2.008,2.0431,2.0861,2.089,2.0903,2.1086,2.1411,-0.9533,-1.0307,-1.1559,-1.2919,-1.4363,-1.585,-1.7101,-1.8213,-1.9056,-2.0029,-2.1028,-2.1718,-2.231,-2.2555,-2.2292,-2.1938,-2.1402,-2.0194,-1.9371,-1.8525,-1.7545,-1.6616,-1.5874,-1.5294,-1.4706,-1.4291,-1.4359,-1.4478,-1.4588,-1.5001,-1.543,-1.5556,-1.5778,-1.5904,-1.6124,-1.6627,-1.7245,-1.8525,-2.0168,-2.1635,-2.2817,-2.3864,-2.4558,-2.5052,-2.5378,-2.5476,-2.5378,-2.5146,-2.4846,-2.458,-2.4333,-2.4128,-2.4113,-2.4387,-2.4956,-2.5721,-2.6512,-2.73,-2.8481,-2.9236,-2.9892,-3.0673,-3.1531,-3.2317,-3.2816,-3.3117,-3.3262,-3.3325,-3.3616,-3.4123,-3.4611,-3.4962,-3.5239,-3.5507,-3.5696,-3.5539,-3.5328,-3.4948,-3.4425,-3.3592,-3.2577,-3.1364,-2.9524,-2.7236,-2.4792,-2.2055,-1.8802,-1.535,-1.0997,-0.6435,-0.3224,0.0154,0.2697,0.4934,0.671,0.8348,0.9809,1.1168,1.2352,1.3578,1.4931,1.5982,1.6738,1.7406,1.8071,1.8588,1.9074,1.9669,2.0261,2.051,2.0711,2.0819,2.0894,2.1014,2.1169,-0.9461,-1.0287,-1.14,-1.2828,-1.4412,-1.5749,-1.7024,-1.8267,-1.9186,-2.0232,-2.1465,-2.242,-2.2994,-2.3008,-2.2402,-2.1827,-2.1286,-2.0029,-1.9056,-1.8093,-1.7045,-1.6151,-1.5468,-1.4765,-1.4121,-1.3752,-1.3881,-1.3941,-1.4001,-1.4588,-1.4961,-1.5215,-1.5614,-1.5672,-1.6009,-1.6581,-1.7667,-1.8886,-2.0281,-2.1315,-2.2377,-2.3363,-2.4162,-2.4695,-2.5013,-2.5185,-2.531,-2.5084,-2.4951,-2.4777,-2.4599,-2.4698,-2.4952,-2.5228,-2.5879,-2.6578,-2.7324,-2.7963,-2.8576,-2.9027,-2.9657,-3.068,-3.1718,-3.2619,-3.305,-3.3345,-3.3541,-3.3707,-3.3954,-3.433,-3.4768,-3.5119,-3.5341,-3.5558,-3.571,-3.5633,-3.5406,-3.5081,-3.451,-3.3746,-3.2793,-3.1742,-3.0235,-2.8015,-2.5145,-2.2424,-1.7301,-1.3719,-0.9786,-0.5558,-0.2709,0.0311,0.2876,0.5054,0.6912,0.8456,0.983,1.1099,1.2285,1.3375,1.4514,1.5424,1.6336,1.7081,1.7724,1.8209,1.868,1.941,1.9973,2.0346,2.0584,2.0574,2.0606,2.0677,2.085,-0.9334,-0.9886,-1.0748,-1.2214,-1.4025,-1.5193,-1.6533,-1.7872,-1.8927,-2.0344,-2.1988,-2.2799,-2.3187,-2.2904,-2.2263,-2.1492,-2.072,-1.9542,-1.8632,-1.7776,-1.6786,-1.5931,-1.5235,-1.4529,-1.3881,-1.3511,-1.3511,-1.3631,-1.3692,-1.4291,-1.4834,-1.5205,-1.5498,-1.574,-1.6077,-1.674,-1.7952,-1.9081,-2.008,-2.1015,-2.188,-2.2815,-2.3537,-2.4021,-2.5015,-2.5331,-2.5513,-2.5748,-2.5746,-2.5663,-2.5415,-2.5526,-2.5802,-2.6184,-2.6734,-2.7318,-2.798,-2.8401,-2.8669,-2.909,-2.9777,-3.0931,-3.1914,-3.2684,-3.3124,-3.3455,-3.3762,-3.3979,-3.4208,-3.4561,-3.4889,-3.5197,-3.5423,-3.5636,-3.5715,-3.5673,-3.5496,-3.5183,-3.4835,-3.4158,-3.3351,-3.2385,-3.0764,-2.8958,-2.5885,-2.2631,-1.7222,-1.2175,-0.8548,-0.5269,-0.2563,0.0078,0.2649,0.491,0.6773,0.8309,0.9916,1.1031,1.2211,1.3237,1.4258,1.5046,1.5974,1.6711,1.7455,1.7982,1.8606,1.9137,1.9626,2.0068,2.0202,2.0264,2.0322,2.0464,2.0722,-0.9211,-0.9591,-1.0128,-1.1529,-1.3345,-1.4465,-1.5756,-1.7159,-1.8293,-2.0079,-2.2207,-2.283,-2.2979,-2.2618,-2.1969,-2.1028,-2.0105,-1.9032,-1.8147,-1.729,-1.64,-1.5642,-1.4942,-1.4181,-1.3407,-1.3147,-1.3086,-1.3147,-1.3511,-1.4181,-1.4725,-1.5147,-1.5566,-1.5798,-1.6192,-1.6976,-1.8064,-1.9155,-1.9972,-2.0874,-2.1758,-2.2608,-2.3331,-2.3864,-2.4822,-2.5402,-2.5672,-2.5978,-2.6178,-2.615,-2.6077,-2.6184,-2.6504,-2.6949,-2.7442,-2.7922,-2.8436,-2.8858,-2.9106,-2.9364,-3.0011,-3.1044,-3.1806,-3.25,-3.3069,-3.356,-3.3935,-3.4279,-3.4483,-3.4753,-3.5089,-3.5239,-3.5432,-3.5638,-3.5758,-3.574,-3.5607,-3.5344,-3.5045,-3.4604,-3.3788,-3.2895,-3.0779,-2.8722,-2.4933,-2.156,-1.7026,-1.236,-0.8801,-0.5647,-0.2952,-0.0311,0.2336,0.4513,0.6542,0.83,0.9981,1.1111,1.2218,1.3178,1.4122,1.4919,1.5638,1.6367,1.712,1.7842,1.8459,1.8989,1.9382,1.9726,2.0116,2.0607,2.0398,2.0582,2.0967,-0.9159,-0.9413,-0.9732,-1.086,-1.25,-1.3568,-1.4762,-1.61,-1.7609,-1.9545,-2.1744,-2.2392,-2.2558,-2.2235,-2.1465,-2.0458,-1.9426,-1.8501,-1.7667,-1.6797,-1.5941,-1.5118,-1.435,-1.358,-1.2858,-1.2621,-1.2552,-1.2728,-1.3268,-1.3881,-1.4428,-1.5117,-1.5683,-1.6168,-1.6259,-1.7032,-1.8091,-1.9218,-1.9964,-2.092,-2.1836,-2.2575,-2.3202,-2.383,-2.4665,-2.529,-2.5801,-2.6275,-2.6489,-2.6489,-2.6397,-2.6594,-2.7052,-2.7302,-2.7938,-2.887,-2.9396,-2.9717,-2.9826,-2.981,-3.0309,-3.1004,-3.1752,-3.2464,-3.3135,-3.3723,-3.4367,-3.4894,-3.5116,-3.5228,-3.5321,-3.546,-3.5759,-3.5785,-3.5956,-3.5861,-3.574,-3.5558,-3.525,-3.4936,-3.4285,-3.3296,-3.0973,-2.8218,-2.4068,-2.0177,-1.6269,-1.2618,-0.9404,-0.6481,-0.3795,-0.0775,0.1863,0.4187,0.628,0.8433,1.0121,1.1254,1.2445,1.347,1.4338,1.5204,1.5771,1.6193,1.7028,1.7998,1.8414,1.8808,1.9615,2.0466,2.0924,2.1243,2.0921,2.1028,2.1597,-0.9309,-0.951,-0.951,-1.0075,-1.102,-1.186,-1.3074,-1.4817,-1.7201,-1.9416,-2.0864,-2.1595,-2.1766,-2.1355,-2.0631,-1.9672,-1.8703,-1.7797,-1.6944,-1.6275,-1.5478,-1.4883,-1.4103,-1.3199,-1.2413,-1.212,-1.2058,-1.2228,-1.2757,-1.3571,-1.4309,-1.4999,-1.5999,-1.6857,-1.7323,-1.7931,-1.8646,-1.9735,-2.031,-2.079,-2.1511,-2.2143,-2.2684,-2.3266,-2.4339,-2.5265,-2.5904,-2.6415,-2.6868,-2.7043,-2.7043,-2.7258,-2.7646,-2.7902,-2.8467,-2.9393,-2.9983,-3.0523,-3.0634,-3.0667,-3.0642,-3.1223,-3.1861,-3.266,-3.3396,-3.4617,-3.5233,-3.5799,-3.6283,-3.6626,-3.7083,-3.7113,-3.7166,-3.6651,-3.6537,-3.6234,-3.6026,-3.5773,-3.5496,-3.5122,-3.4605,-3.3002,-3.0964,-2.9146,-2.5408,-2.2191,-1.8763,-1.4805,-1.1338,-0.8036,-0.5092,-0.1698,0.1159,0.3705,0.6093,0.8769,1.0914,1.2271,1.3302,1.4258,1.4982,1.5692,1.6254,1.689,1.7579,1.8202,1.8906,1.9656,2.0643,2.1393,2.1893,2.2294,2.2259,2.246,2.2899,-0.9673,-0.9777,-0.9673,-0.9738,-1.0104,-1.0754,-1.2058,-1.4014,-1.6623,-1.8566,-1.9824,-2.0601,-2.0881,-2.0471,-1.9787,-1.8838,-1.7918,-1.7101,-1.6436,-1.5816,-1.5128,-1.4469,-1.3734,-1.2826,-1.2174,-1.1755,-1.1685,-1.1856,-1.2443,-1.326,-1.433,-1.5415,-1.6297,-1.7142,-1.7867,-1.8495,-1.9039,-2.0041,-2.0546,-2.1029,-2.1642,-2.2108,-2.2539,-2.3234,-2.4137,-2.5126,-2.5911,-2.6674,-2.7357,-2.759,-2.7755,-2.779,-2.8073,-2.8479,-2.8966,-2.9677,-3.0551,-3.1122,-3.1385,-3.1846,-3.1984,-3.2424,-3.2629,-3.3274,-3.4346,-3.5694,-3.6442,-3.7064,-3.7632,-3.782,-3.8041,-3.8099,-3.7924,-3.7382,-3.7278,-3.6988,-3.6428,-3.6194,-3.5764,-3.5387,-3.4548,-3.2855,-3.1242,-2.9447,-2.7154,-2.4368,-2.1548,-1.7475,-1.3346,-0.9726,-0.6036,-0.2297,0.1305,0.4301,0.7052,0.9707,1.1611,1.3208,1.4322,1.5363,1.5877,1.6576,1.7079,1.7638,1.8375,1.9142,1.9888,2.0708,2.1701,2.2476,2.3069,2.3387,2.3549,2.3754,2.4026,-1.036,-1.0205,-1.0058,-0.9844,-0.9777,-1.031,-1.1693,-1.3742,-1.5414,-1.7024,-1.8472,-1.9548,-1.9838,-1.9567,-1.8927,-1.807,-1.7202,-1.6446,-1.5874,-1.5352,-1.4706,-1.4043,-1.3199,-1.2282,-1.1685,-1.1457,-1.1331,-1.1483,-1.2205,-1.3308,-1.452,-1.5626,-1.6243,-1.7143,-1.8009,-1.8717,-1.9354,-2.0236,-2.0789,-2.1318,-2.1922,-2.2384,-2.2777,-2.3308,-2.401,-2.4774,-2.5534,-2.6172,-2.6707,-2.7049,-2.7284,-2.7554,-2.7925,-2.8479,-2.918,-3.0192,-3.1329,-3.1981,-3.2669,-3.3265,-3.3723,-3.4165,-3.4441,-3.4932,-3.5684,-3.6894,-3.7674,-3.8092,-3.8485,-3.8362,-3.832,-3.8358,-3.8358,-3.8245,-3.8258,-3.7773,-3.7077,-3.6596,-3.611,-3.5493,-3.4623,-3.3287,-3.1917,-3.0245,-2.8715,-2.6772,-2.3941,-2.0668,-1.6335,-1.1144,-0.7192,-0.2502,0.1215,0.5194,0.8169,1.1495,1.3717,1.5779,1.5865,1.665,1.7065,1.7472,1.8017,1.8633,1.9288,2.0085,2.1247,2.2075,2.2775,2.352,2.428,2.4444,2.4688,2.4542,2.47,-1.082,-1.0667,-1.0462,-1.0095,-0.9777,-0.9769,-1.0666,-1.2272,-1.3937,-1.549,-1.6894,-1.7699,-1.8277,-1.8382,-1.7754,-1.7101,-1.6436,-1.5874,-1.5352,-1.4824,-1.4231,-1.3623,-1.2773,-1.1856,-1.1185,-1.0814,-1.0814,-1.1122,-1.1917,-1.3099,-1.424,-1.5115,-1.6065,-1.7012,-1.773,-1.8601,-1.9564,-2.0374,-2.0848,-2.1424,-2.1928,-2.2247,-2.2653,-2.3125,-2.359,-2.4323,-2.4937,-2.555,-2.6054,-2.6496,-2.6878,-2.724,-2.784,-2.8606,-2.9617,-3.219,-3.3176,-3.3898,-3.4715,-3.5198,-3.5579,-3.6193,-3.6746,-3.7011,-3.7534,-3.8099,-3.896,-3.9174,-3.9453,-3.9457,-3.9419,-3.9386,-3.9245,-3.9135,-3.9035,-3.8531,-3.7808,-3.7092,-3.6528,-3.5524,-3.4678,-3.3797,-3.2476,-3.1472,-3.0011,-2.8529,-2.6213,-2.2911,-1.8575,-1.3195,-0.7471,-0.2549,0.2872,0.7271,1.1007,1.4367,1.6381,1.81,1.8008,1.7946,1.8291,1.8694,1.9054,1.9738,2.0504,2.1689,2.3044,2.3728,2.4188,2.4953,2.5665,2.5715,2.5729,2.5542,2.548,-0.4545,-0.4663,-0.6631,-0.826,-0.9622,-0.9465,-0.9783,-1.0711,-1.2413,-1.3937,-1.519,-1.6223,-1.6851,-1.7081,-1.6821,-1.6332,-1.5758,-1.5284,-1.4765,-1.43,-1.3752,-1.3009,-1.2158,-1.1421,-1.08,-1.0491,-1.0561,-1.101,-1.1788,-1.2995,-1.4223,-1.497,-1.5889,-1.6514,-1.7216,-1.7955,-1.8895,-1.9857,-2.0666,-2.1285,-2.1675,-2.1987,-2.2297,-2.2665,-2.3125,-2.3708,-2.4279,-2.4824,-2.5342,-2.5892,-2.6361,-2.7004,-2.8057,-2.9366,-3.1093,-3.3454,-3.4643,-3.557,-3.6456,-3.6926,-3.7314,-3.7867,-3.872,-3.9065,-3.9226,-3.9611,-3.9946,-4.0179,-4.0507,-4.073,-4.0667,-4.0578,-4.0289,-4.0014,-3.9643,-3.9276,-3.8505,-3.7683,-3.6687,-3.5633,-3.4784,-3.406,-3.3142,-3.2295,-3.1248,-2.9769,-2.7229,-2.378,-1.9137,-1.3658,-0.7339,-0.1501,0.446,0.9959,1.3548,1.6642,1.8457,1.9576,1.9453,1.9445,1.9613,1.9669,1.9911,2.0835,2.1892,2.3071,2.4262,2.4996,2.5586,2.6298,2.6685,2.6678,2.6536,2.6319,2.6307,0.5129,0.4685,-0.039,-0.5225,-0.8806,-0.8958,-0.9054,-0.9015,-1.0854,-1.2316,-1.3483,-1.4864,-1.5573,-1.581,-1.5796,-1.5575,-1.5118,-1.4706,-1.4231,-1.3709,-1.3139,-1.2397,-1.1663,-1.0989,-1.0491,-1.0371,-1.0518,-1.0989,-1.1933,-1.3004,-1.3924,-1.4806,-1.5221,-1.5815,-1.6597,-1.7151,-1.8027,-1.8967,-2.0031,-2.088,-2.1463,-2.1788,-2.2049,-2.2359,-2.2714,-2.3138,-2.3636,-2.4092,-2.4553,-2.5231,-2.604,-2.6768,-2.8967,-3.1075,-3.3037,-3.4485,-3.5919,-3.7074,-3.798,-3.8471,-3.8747,-3.9262,-3.9937,-4.0254,-4.0392,-4.0432,-4.0604,-4.0652,-4.0878,-4.0849,-4.077,-4.0751,-4.0575,-4.0364,-4.0076,-3.9454,-3.862,-3.7677,-3.6594,-3.5639,-3.5046,-3.4355,-3.4121,-3.3242,-3.1583,-3.0527,-2.7792,-2.4166,-1.8858,-1.3299,-0.6783,-0.0228,0.5572,1.1338,1.5741,1.8571,2.0237,2.1052,2.0695,2.0471,2.0283,2.0468,2.0752,2.1859,2.3083,2.4192,2.5314,2.6065,2.6747,2.728,2.7603,2.7524,2.7361,2.7079,2.6726,0.5209,0.4882,-0.0218,-0.2884,-0.3925,-0.7599,-0.8844,-0.8427,-0.9049,-1.0294,-1.1718,-1.2753,-1.3772,-1.444,-1.4796,-1.4706,-1.4478,-1.4181,-1.3743,-1.3139,-1.2589,-1.1911,-1.117,-1.0618,-1.0308,-1.0244,-1.0461,-1.1058,-1.1919,-1.2737,-1.3384,-1.4058,-1.4567,-1.523,-1.5886,-1.6385,-1.7207,-1.8162,-1.9233,-2.0355,-2.1135,-2.1463,-2.1714,-2.2111,-2.2482,-2.2653,-2.3113,-2.3531,-2.406,-2.4738,-2.5835,-2.783,-3.0787,-3.3221,-3.4907,-3.6122,-3.7361,-3.8493,-3.9279,-3.9763,-3.9946,-4.0152,-4.056,-4.0772,-4.0924,-4.096,-4.0988,-4.0988,-4.0949,-4.0882,-4.0836,-4.0827,-4.0765,-4.0591,-4.0356,-3.9518,-3.866,-3.7617,-3.65,-3.5915,-3.5316,-3.4959,-3.4766,-3.366,-3.2066,-2.971,-2.6791,-2.2868,-1.6959,-1.1212,-0.4733,0.1564,0.6619,1.198,1.6833,2.0014,2.147,2.1883,2.1575,2.1355,2.0992,2.1163,2.1438,2.2995,2.432,2.5232,2.623,2.7264,2.7933,2.828,2.8292,2.817,2.7881,2.7536,2.7134,1.2551,1.1685,0.4242,0.0045,-0.2243,-0.6861,-0.8521,-0.7729,-0.7717,-0.8366,-0.9595,-1.1015,-1.2233,-1.3135,-1.3647,-1.3932,-1.3821,-1.3761,-1.3147,-1.2528,-1.1973,-1.1296,-1.0737,-1.0301,-1.018,-1.0117,-1.0645,-1.1284,-1.1978,-1.255,-1.3172,-1.3677,-1.4191,-1.4625,-1.5133,-1.5833,-1.6673,-1.7628,-1.8566,-1.9694,-2.0805,-2.1262,-2.16,-2.1987,-2.2297,-2.2408,-2.2775,-2.3245,-2.4002,-2.5453,-2.7137,-2.979,-3.2586,-3.4912,-3.6517,-3.7665,-3.8762,-3.9766,-4.035,-4.0635,-4.0725,-4.0798,-4.0869,-4.0963,-4.096,-4.0993,-4.0986,-4.0993,-4.0998,-4.0914,-4.0787,-4.0762,-4.0476,-4.0256,-3.9837,-3.9157,-3.8447,-3.765,-3.7073,-3.6823,-3.618,-3.5501,-3.4968,-3.37,-3.1883,-2.9285,-2.625,-2.1485,-1.5553,-0.9514,-0.2873,0.2986,0.7819,1.3084,1.8222,2.0868,2.2253,2.2472,2.2226,2.1635,2.1096,2.1587,2.2243,2.3509,2.4746,2.5955,2.6991,2.7899,2.8643,2.899,2.8862,2.8716,2.8392,2.8066,2.7723,2.1278,2.0065,1.0192,0.3662,-0.0675,-0.5752,-0.7505,-0.6815,-0.6539,-0.6694,-0.7402,-0.9432,-1.074,-1.1776,-1.2603,-1.2951,-1.3147,-1.3216,-1.2597,-1.2042,-1.1615,-1.0926,-1.0421,-1.0053,-1.011,-1.0364,-1.0821,-1.1326,-1.1906,-1.2424,-1.296,-1.3429,-1.3836,-1.4209,-1.4633,-1.5275,-1.6114,-1.7276,-1.8365,-1.9507,-2.0355,-2.1135,-2.1537,-2.1925,-2.2235,-2.2408,-2.2714,-2.3352,-2.4176,-2.639,-2.8808,-3.1796,-3.4164,-3.6344,-3.7736,-3.8929,-3.9672,-4.0371,-4.079,-4.0843,-4.0888,-4.0917,-4.0991,-4.1128,-4.1195,-4.1325,-4.134,-4.1296,-4.1294,-4.1132,-4.1013,-4.076,-4.0463,-4.012,-3.9618,-3.91,-3.8469,-3.7811,-3.7609,-3.7471,-3.6731,-3.5951,-3.4187,-3.3006,-3.1016,-2.8477,-2.467,-1.9738,-1.4424,-0.8248,-0.192,0.3506,0.8267,1.3709,1.9012,2.1125,2.2456,2.2424,2.2041,2.1532,2.1261,2.1545,2.2319,2.3568,2.4841,2.6089,2.7189,2.8146,2.8803,2.9421,2.9324,2.9099,2.8894,2.8624,2.8287,2.1038,1.9516,1.2026,0.8261,0.6263,-0.0665,-0.4567,-0.5727,-0.5614,-0.5694,-0.6276,-0.7187,-0.8637,-1.0416,-1.1392,-1.2035,-1.2536,-1.2666,-1.2421,-1.1864,-1.1365,-1.0674,-1.0238,-1.0047,-1.0295,-1.0618,-1.0961,-1.1376,-1.1978,-1.2432,-1.2755,-1.3157,-1.3475,-1.3912,-1.4346,-1.5117,-1.6097,-1.7267,-1.8499,-1.9715,-2.0624,-2.121,-2.1537,-2.1913,-2.2235,-2.2359,-2.2702,-2.3577,-2.4573,-2.6776,-3.0154,-3.3312,-3.5575,-3.7492,-3.8963,-3.9943,-4.067,-4.1047,-4.1343,-4.1392,-4.147,-4.1448,-4.1649,-4.2066,-4.2259,-4.2616,-4.2577,-4.249,-4.2364,-4.1961,-4.1751,-4.1343,-4.0997,-4.064,-4.0173,-3.9581,-3.8999,-3.8294,-3.783,-3.7217,-3.6397,-3.4426,-3.1702,-3.0377,-2.8933,-2.6192,-2.3003,-1.8062,-1.3385,-0.7151,-0.1041,0.3612,0.8417,1.3326,1.8082,2.0566,2.1859,2.1939,2.191,2.1426,2.1293,2.1392,2.2271,2.3455,2.4823,2.6101,2.7155,2.8062,2.885,2.9338,2.9526,2.9477,2.9275,2.9168,2.893]}]]